     2.11           OBSERVATION DATA    G (GPS)             RINEX VERSION / TYPE
teqc 2010Oct21 OPUS Account 20111027 15:04:19UTC            PGM / RUN BY / DATE
U 1524                                                      MARKER NAME
1223                                                        MARKER NUMBER
CSMIDDLETON NGS                                             OBSERVER / AGENCY
4624K01631 TRIMBLE NETR5 4.41                               REC # / TYPE / VERS
12481390 TRM41249.00 NONE                                   ANT # / TYPE
  -761253.9529 -5535599.8504  3065252.7873                  APPROX POSITION XYZ
        2.0000        0.0000        0.0000                  ANTENNA: DELTA H/E/N
     1     1                                                WAVELENGTH FACT L1/2
     5    L1    L2    C1    P1    P2                        # / TYPES OF OBSERV
    15                                                      LEAP SECONDS
  2011     8    14     0     0    0.0000000     GPS         TIME OF FIRST OBS
                                                            END OF HEADER
 11  8 14  0  0  0.0000000  0  8G04G09G02G10G12G17G05G28
 107880961.518 8  84063204.16746  20529043.883                    20529053.176
 118385125.969 7  92248216.72645  22527943.836                    22527954.496
 109617628.276 8  85416471.98546  20859523.461                    20859530.762
 112381284.492 8  87569964.77445  21385432.758                    21385442.363
 119345924.624 7  92996888.738 7  22710776.734                    22710786.469
 117499332.886 7  91557941.746 7  22359374.844                    22359384.039
 124674593.593 6  97149103.584 6  23724780.867                    23724794.047
 124380340.164 6  96919767.11143  23668801.523                    23668812.910
 11  8 14  0  0 30.0000000  0  8G04G09G02G10G12G17G05G28
 107935929.235 8  84106036.14846  20539503.797                    20539513.090
 118435787.298 7  92287693.04844  22537585.055                    22537595.621
 109587165.497 8  85392734.79046  20853726.438                    20853733.891
 112327855.625 8  87528331.94445  21375265.094                    21375275.094
 119257957.167 7  92928342.691 7  22694037.008                    22694046.578
 117540836.753 7  91590282.397 7  22367272.758                    22367282.055
 124569208.709 6  97066985.758 6  23704726.281                    23704739.699
 124474783.162 6  96993359.00443  23686773.539                    23686785.063
 11  8 14  0  1  0.0000000  0  8G04G09G02G10G12G17G05G28
 107991241.844 8  84149136.88446  20550029.820                    20550039.137
 118486905.559 7  92327525.41845  22547312.344                    22547322.813
 109557066.544 8  85369281.10346  20847998.969                    20848006.184
 112274919.754 8  87487083.25745  21365191.867                    21365201.453
 119170195.046 7  92859956.641 7  22677337.055                    22677345.648
 117582443.481 7  91622703.200 7  22375190.273                    22375199.461
 124463859.620 7  96984895.851 6  23684678.086                    23684692.371
 124569481.396 6  97067149.78043  23704793.703                    23704805.352
 11  8 14  0  1 30.0000000  0  8G04G09G02G10G12G17G05G28
 108046897.276 8  84192504.74646  20560620.602                    20560629.648
 118538478.418 7  92367712.00445  22557125.609                    22557136.594
 109527331.438 8  85346110.93546  20842340.375                    20842347.703
 112222479.627 8  87446220.88245  21355213.266                    21355222.047
 119082640.732 7  92791732.514 7  22660675.859                    22660684.621
 117624154.321 7  91655205.121 7  22383127.594                    22383137.141
 124358549.983 7  96902836.687 6  23664638.602                    23664651.758
 124664433.309 6  97141138.15943  23722862.617                    23722874.551
 11  8 14  0  2  0.0000000  0  8G04G09G02G10G12G17G05G28
 108102893.171 8  84236137.91446  20571276.281                    20571285.117
 118590503.014 7  92408250.60544  22567026.273                    22567037.082
 109497959.498 8  85323223.75246  20836751.023                    20836758.414
 112170538.192 8  87405747.08545  21345328.891                    21345338.004
 118995296.702 7  92723672.248 7  22644054.945                    22644063.441
 117665969.930 7  91687788.712 7  22391084.672                    22391093.508
 124253282.392 7  96820810.270 6  23644606.875                    23644620.078
 124759637.030 6  97215322.75643  23740978.977                    23740991.148
 11  8 14  0  2 30.0000000  0  8G04G09G02G10G12G17G05G28
 108159226.683 8  84280034.15246  20581996.242                    20582005.285
 118642976.173 7  92449138.71744  22577011.570                    22577022.430
 109468950.210 8  85300619.15246  20831231.055                    20831237.711
 112119097.155 8  87365663.22345  21335539.539                    21335549.305
 118908165.464 7  92655777.780 7  22627474.344                    22627483.641
 117707890.532 7  91720454.099 7  22399061.938                    22399071.422
 124148059.451 7  96738818.637 6  23624583.508                    23624596.715
 124855090.720 6  97289702.16543  23759143.453                    23759155.273
 11  8 14  0  3  0.0000000  0  8G04G09G02G10G12G17G05G28
 108215896.118 8  84324192.15346  20592779.734                    20592789.148
 118695895.411 7  92490374.41044  22587081.930                    22587092.758
 109440303.780 8  85278297.29946  20825779.273                    20825786.543
 112068159.858 8  87325971.86345  21325846.727                    21325856.016
 118821250.221 7  92588051.624 7  22610934.961                    22610943.633
 117749917.130 7  91753202.077 7  22407059.352                    22407068.750
 124042884.478 7  96656864.395 6  23604569.047                    23604581.660
 124950793.188 6  97364275.42643  23777354.773                    23777365.793
 11  8 14  0  3 30.0000000  0  8G04G09G02G10G12G17G05G28
 108272899.148 8  84368610.10046  20603627.672                    20603636.184
 118749257.807 7  92531955.42444  22597236.219                    22597247.297
 109412019.548 8  85256257.67646  20820397.148                    20820404.227
 112017728.663 8  87286674.87545  21316249.852                    21316259.102
 118734553.123 7  92520495.465 7  22594436.680                    22594446.164
 117792050.275 7  91786033.077 7  22415076.742                    22415086.141
 123937760.204 7  96574949.642 6  23584564.336                    23584577.320
 125046742.363 6  97439040.90743  23795613.914                    23795624.512
 11  8 14  0  4  0.0000000  0  8G04G09G02G10G12G17G05G28
 108330232.935 8  84413285.77446  20614537.383                    20614546.426
 118803060.105 7  92573879.20845  22607474.977                    22607485.285
 109384096.843 8  85234499.76246  20815083.430                    20815090.656
 111967805.912 8  87247774.07345  21306749.781                    21306759.438
 118648076.390 7  92453111.017 7  22577980.914                    22577990.125
 117834290.197 7  91818947.276 7  22423115.516                    22423124.227
 123832689.381 7  96493076.544 6  23564570.102                    23564582.422
 125142936.254 6  97513997.08843  23813919.117                    23813930.574
 11  8 14  0  4 30.0000000  0  8G04G09G02G10G12G17G05G28
 108387894.820 8  84458217.12146  20625510.391                    20625519.020
 118857299.084 7  92616143.27845  22617796.211                    22617806.750
 109356535.088 8  85213023.10946  20809838.992                    20809845.828
 111918393.574 8  87209270.99046  21297347.188                    21297356.750
 118561822.553 7  92385900.262 7  22561567.383                    22561576.148
 117876637.410 7  91851945.075 7  22431173.945                    22431182.730
 123727674.696 7  96411247.175 6  23544585.789                    23544598.813
 125239372.703 6  97589142.30943  23832270.539                    23832281.410
 11  8 14  0  5  0.0000000  0  8G04G09G02G10G12G17G05G28
 108445883.004 8  84503402.71846  20636544.813                    20636553.992
 118911971.779 7  92658745.30245  22628199.500                    22628210.066
 109329334.046 8  85191827.53646  20804662.656                    20804669.832
 111869494.564 8  87171167.90746  21288041.563                    21288051.301
 118475794.767 7  92318865.657 7  22545196.578                    22545205.633
 117919092.505 7  91885026.950 7  22439253.008                    22439262.023
 123622718.969 7  96329463.755 6  23524613.805                    23524626.293
 125336050.082 6  97664475.30343  23850667.781                    23850677.746
 11  8 14  0  5 30.0000000  0  8G04G09G02G10G12G17G05G28
 108504195.017 8  84548840.65246  20647641.688                    20647650.320
 118967075.592 7  92701683.26344  22638685.594                    22638696.758
 109302493.357 8  85170912.75246  20799554.867                    20799562.242
 111821111.421 8  87133466.82146  21278834.836                    21278844.023
 118389995.123 7  92252008.833 7  22528869.563                    22528878.855
 117961656.233 7  91918193.482 7  22447352.195                    22447361.238
 123517825.459 7  96247728.823 6  23504652.758                    23504665.254
 125432966.641 6  97739994.66043  23869110.156                    23869120.676
 11  8 14  0  6  0.0000000  0  8G04G09G02G10G12G17G05G28
 108562827.949 8  84594528.65246  20658798.539                    20658807.926
 119022607.123 7  92744954.52045  22649252.953                    22649263.973
 109276011.808 8  85150277.81646  20794515.734                    20794522.535
 111773245.951 8  87096169.08246  21269726.258                    21269735.801
 118304425.742 7  92185331.434 7  22512585.766                    22512595.465
 118004328.694 7  91951444.733 7  22455472.461                    22455481.895
 123412996.567 7  96166044.215 6  23484704.539                    23484717.004
 125530120.385 6  97815698.78943  23887597.969                    23887609.020
 11  8 14  0  6 30.0000000  0  8G04G09G02G10G12G17G05G28
 108621779.967 8  84640465.28646  20670017.063                    20670025.938
 119078563.332 7  92788556.67945  22659901.391                    22659912.434
 109249889.841 8  85129923.07646  20789544.344                    20789551.727
 111725901.048 8  87059276.98546  21260716.781                    21260726.160
 118219090.047 7  92118836.128 7  22496347.047                    22496356.527
 118047110.779 7  91984781.414 7  22463613.875                    22463623.105
 123308235.706 7  96084412.636 6  23464769.094                    23464781.148
 125627509.829 6  97891586.59343  23906130.961                    23906142.211
 11  8 14  0  7  0.0000000  0  8G04G09G02G10G12G17G05G28
 108681048.358 8  84686648.45146  20681295.422                    20681304.457
 119134941.105 7  92832487.34545  22670629.891                    22670640.680
 109224126.418 8  85109847.71746  20784642.148                    20784648.824
 111679078.811 8  87022792.17446  21251806.672                    21251816.137
 118133990.115 7  92052524.533 7  22480153.000                    22480162.398
 118090002.884 7  92018203.819 7  22471775.969                    22471784.629
 123203545.504 7  96002836.118 6  23444846.313                    23444859.090
 125725132.620 6  97967656.18643  23924708.688                    23924719.129
 11  8 14  0  7 30.0000000  0  8G04G09G02G10G12G17G05G28
 108740630.949 8  84733076.44846  20692633.563                    20692642.660
 119191738.015 7  92876744.60145  22681438.258                    22681449.379
 109198721.324 8  85090051.57446  20779807.453                    20779814.664
 111632781.885 8  86986716.69545  21242996.875                    21243006.418
 118049128.536 7  91986398.672 7  22464004.750                    22464013.543
 118133005.791 7  92051712.571 7  22479959.211                    22479967.762
 123098929.125 7  95921317.103 6  23424938.445                    23424950.723
 125822987.401 6  98043906.57143  23943328.008                    23943340.578
 11  8 14  0  8  0.0000000  0  8G04G09G02G10G12G17G05G28
 108800525.672 8  84779747.66246  20704031.078                    20704040.309
 119248950.906 7  92921325.99045  22692325.195                    22692336.695
 109173674.139 8  85070534.32246  20775041.297                    20775048.367
 111587012.787 8  86951052.50246  21234287.141                    21234296.766
 117964508.059 7  91920460.679 7  22447901.813                    22447910.879
 118176120.126 7  92085308.147 6  22488163.250                    22488171.965
 122994389.637 7  95839858.007 7  23405044.992                    23405057.402
 125921072.080 6  98120336.08143  23961993.258                    23962005.680
 11  8 14  0  8 30.0000000  0  8G04G09G02G10G12G17G05G28
 108860730.003 8  84826660.12546  20715487.789                    20715496.480
 119306576.565 7  92966229.03344  22703290.539                    22703302.430
 109148984.457 8  85051295.63846  20770342.914                    20770349.887
 111541773.597 8  86915801.22346  21225678.336                    21225687.371
 117880131.291 7  91854712.587 7  22431845.242                    22431854.414
 118219346.513 7  92118991.015 7  22496389.258                    22496397.719
 122889929.677 7  95758460.876 6  23385166.844                    23385179.230
 126019384.598 6  98196943.12743  23980702.656                    23980713.523
 11  8 14  0  9  0.0000000  0  8G04G09G02G10G12G17G05G28
 108921241.136 8  84873811.65546  20727002.711                    20727011.664
 119364611.634 7  93011451.08844  22714334.641                    22714346.043
 109124650.987 8  85032334.52046  20765712.695                    20765719.629
 111497066.045 8  86880964.20245  21217170.523                    21217179.645
 117796000.544 8  91789156.202 7  22415836.086                    22415844.969
 118262685.348 7  92152761.525 7  22504636.203                    22504645.387
 122785551.721 7  95677127.628 7  23365303.961                    23365316.438
 126117922.678 6  98273725.98443  23999453.805                    23999464.789
 11  8 14  0  9 30.0000000  0  8G04G09G02G10G12G17G05G28
 108982056.943 8  84921200.58746  20738575.758                    20738584.320
 119423053.300 7  93056989.97544  22725455.992                    22725467.023
 109100673.453 8  85013650.75546  20761149.836                    20761156.809
 111452893.034 8  86846543.71345  21208765.031                    21208774.230
 117712118.560 7  91723793.654 7  22399873.609                    22399882.148
 118306137.288 7  92186620.147 7  22512904.781                    22512914.332
 122681258.812 7  95595860.638 7  23345457.789                    23345469.770
 126216685.201 6  98350683.67943  24018248.383                    24018258.656
 11  8 14  0 10  0.0000000  0  8G04G09G02G10G12G17G05G28
 109043174.970 8  84968825.02146  20750205.617                    20750214.676
 119481898.307 7  93102843.15345  22736653.781                    22736664.723
 109077051.583 8  84995244.13246  20756654.414                    20756661.336
 111409256.289 7  86812541.10045  21200461.242                    21200470.520
 117628487.628 7  91658626.735 7  22383959.484                    22383968.633
 118349702.579 7  92220567.113 7  22521195.430                    22521204.707
 122577054.520 7  95514662.705 6  23325628.102                    23325640.289
 126315669.969 6  98427814.60943  24037083.195                    24037094.469
 11  8 14  0 10 30.0000000  0  8G04G09G02G10G12G17G05G28
 109104593.090 8  85016683.29146  20761893.266                    20761902.531
 119541143.562 7  93149008.22445  22747927.609                    22747939.234
 109053784.612 8  84977114.03946  20752226.844                    20752233.805
 111366158.368 8  86778958.35145  21192259.594                    21192268.910
 117545110.693 7  91593657.738 7  22368092.953                    22368101.984
 118393382.111 7  92254603.094 7  22529507.422                    22529516.480
 122472941.439 7  95433535.844 7  23305815.813                    23305828.051
 126414874.795 6  98505117.01643  24055961.727                    24055972.695
 11  8 14  0 11  0.0000000  0  8G04G09G02G10G12G17G05G28
 109166308.704 8  85064773.36646  20773637.688                    20773646.680
 119600786.065 7  93195482.83045  22759277.719                    22759288.715
 109030872.177 8  84959260.21646  20747866.719                    20747873.770
 111323601.286 8  86745797.04745  21184161.344                    21184170.887
 117461990.378 7  91528888.713 7  22352275.453                    22352285.016
 118437176.498 7  92288728.574 7  22537840.586                    22537850.414
 122368922.386 7  95352482.266 6  23286022.320                    23286034.172
 126514297.693 6  98582589.29343  24074881.664                    24074892.871
 11  8 14  0 11 30.0000000  0  8G04G09G02G10G12G17G05G28
 109228319.615 8  85113093.53646  20785437.867                    20785446.918
 119660822.582 7  93242264.45844  22770702.219                    22770713.215
 109008313.557 8  84941682.08646  20743574.242                    20743580.895
 111281587.477 8  86713059.05445  21176166.211                    21176175.668
 117379129.227 7  91464321.627 7  22336507.875                    22336516.938
 118481086.435 7  92322944.088 7  22546196.883                    22546205.895
 122265000.498 7  95271504.389 6  23266245.883                    23266257.730
 126613937.038 6  98660230.27742  24093842.492                    24093853.484
 11  8 14  0 12  0.0000000  0  8G04G09G02G10G12G17G05G28
 109290622.826 8  85161641.48446  20797293.375                    20797302.938
 119721249.733 7  93289350.49544  22782201.289                    22782212.586
 108986107.528 8  84924378.70246  20739348.727                    20739355.699
 111240118.354 8  86680745.49845  21168274.961                    21168284.441
 117296529.269 7  91399958.072 7  22320789.453                    22320798.609
 118525112.028 7  92357249.724 7  22554574.859                    22554583.754
 122161178.323 7  95190604.198 6  23246489.266                    23246500.680
 126713790.275 6  98738037.90343  24112844.023                    24112855.051
 11  8 14  0 12 30.0000000  0  8G04G09G02G10G12G17G05G28
 109353216.755 8  85210415.96246  20809204.711                    20809213.711
 119782065.019 7  93336738.94444  22793773.711                    22793785.602
 108964254.139 8  84907350.10046  20735189.992                    20735196.836
 111199197.058 8  86648858.80246  21160487.938                    21160497.223
 117214193.565 7  91335800.436 7  22305121.305                    22305130.840
 118569254.230 7  92391646.240 7  22562974.500                    22562984.020
 122057459.294 7  95109784.384 6  23226751.727                    23226763.426
 126813856.293 6  98816011.30943  24131886.484                    24131897.473
 11  8 14  0 13  0.0000000  0  8G04G09G02G10G12G17G05G28
 109416098.597 8  85259414.78746  20821170.617                    20821179.508
 119843264.771 7  93384426.99944  22805420.102                    22805431.953
 108942752.671 8  84890595.73446  20731098.133                    20731105.066
 111158825.222 8  86617400.26746  21152805.484                    21152814.930
 117132124.731 7  91271850.752 7  22289504.313                    22289513.027
 118613513.464 7  92426133.917 7  22571396.844                    22571406.004
 121953846.002 7  95029046.943 6  23207034.516                    23207046.410
 126914132.771 6  98894148.65443  24150968.281                    24150979.984
 11  8 14  0 13 30.0000000  0  8G04G09G02G10G12G17G05G28
 109479266.651 8  85308636.63046  20833191.477                    20833200.590
 119904846.422 6  93432412.62844  22817138.695                    22817149.758
 108921602.981 8  84874115.47346  20727073.578                    20727080.395
 111119005.354 8  86586371.83746  21145228.273                    21145237.387
 117050325.559 7  91208111.199 7  22273938.539                    22273947.281
 118657890.824 7  92460713.634 7  22579841.305                    22579850.914
 121850342.104 7  94948394.748 6  23187338.109                    23187349.813
 127014617.963 6  98972448.74443  24170089.758                    24170101.750
 11  8 14  0 14  0.0000000  0  8G04G09G02G10G12G17G05G28
 109542717.950 8  85358079.18846  20845265.961                    20845274.961
 119966806.037 7  93480692.77844  22828929.453                    22828940.445
 108900803.896 8  84857908.41846  20723115.844                    20723122.617
 111079739.082 8  86555774.77346  21137756.000                    21137764.820
 116968798.549 7  91144583.716 7  22258424.094                    22258433.656
 118702386.778 7  92495385.758 7  22588308.953                    22588318.270
 121746949.815 7  94867829.519 6  23167663.375                    23167675.145
 127115309.670 6  99050909.63843  24189251.188                    24189262.430
 11  8 14  0 14 30.0000000  0  8G04G09G02G10G12G17G05G28
 109606450.517 8  85407740.92246  20857393.563                    20857402.875
 120029140.945 7  93529265.36444  22840791.031                    22840802.285
 108880355.103 8  84841974.31246  20719223.898                    20719231.473
 111041028.611 8  86525610.80046  21130389.359                    21130398.516
 116887546.133 7  91081270.198 7  22242962.188                    22242971.453
 118747002.029 7  92530150.862 7  22596799.055                    22596807.605
 121643672.585 7  94787353.946 6  23148010.031                    23148021.926
 127216206.149 6  99129530.15143  24208451.195                    24208462.672
 11  8 14  0 15  0.0000000  0  8G04G09G02G10G12G17G05G28
 109670462.570 8  85457620.43046  20869574.703                    20869584.070
 120091848.243 7  93578128.13744  22852723.492                    22852734.941
 108860256.174 8  84826312.83646  20715399.727                    20715406.594
 111002876.397 8  86495881.82946  21123129.250                    21123138.859
 116806571.625 7  91018173.237 7  22227553.453                    22227562.172
 118791737.305 7  92565009.472 7  22605311.820                    22605320.422
 121540513.745 7  94706970.634 6  23128379.156                    23128391.645
 127317305.787 6  99208309.03743  24227689.977                    24227701.316
 11  8 14  0 15 30.0000000  0  8G04G09G02G10G12G17G05G28
 109734750.360 8  85507714.79746  20881808.375                    20881817.941
 120154923.676 7  93627277.76144  22864726.859                    22864737.996
 108840505.418 8  84810922.66746  20711641.344                    20711648.172
 110965283.230 8  86466588.48146  21115975.445                    21115984.797
 116725876.829 7  90955294.217 7  22212197.625                    22212206.355
 118836592.329 7  92599961.405 7  22613847.742                    22613856.402
 121437475.240 7  94626681.079 7  23108771.719                    23108783.293
 127418605.391 6  99287243.65643  24246966.672                    24246977.926
 11  8 14  0 16  0.0000000  0  9G04G09G02G30G10G12G17G05G28
 109799311.896 8  85558022.46946  20894094.117                    20894103.273
 120218364.311 7  93676711.94044  22876798.711                    22876810.805
 108821102.466 8  84795803.51546  20707948.859                    20707956.039
 127954363.18417  99704764.38153  24348911.555                    24348921.902
 110928251.648 8  86437732.72946  21108928.344                    21108938.195
 116645463.896 7  90892634.840 7  22196895.484                    22196904.270
 118881567.916 7  92635007.279 6  22622406.102                    22622415.043
 121334560.318 7  94546487.814 7  23089187.602                    23089199.395
 127520103.554 6  99366333.02243  24266280.758                    24266292.801
 11  8 14  0 16 30.0000000  0  9G04G09G02G30G10G12G17G05G28
 109864145.294 8  85608541.97846  20906431.258                    20906440.672
 120282167.482 6  93726428.60444  22888940.805                    22888952.000
 108802047.307 8  84780955.36546  20704323.039                    20704330.027
 127847997.065 6  99621881.68743  24328670.883                    24328681.598
 110891784.110 8  86409316.49646  21101989.078                    21101998.645
 116565335.958 8  90830197.524 7  22181647.648                    22181656.457
 118926664.899 7  92670147.742 7  22630987.773                    22630997.172
 121231772.243 7  94466393.374 7  23069627.852                    23069639.430
 127621798.560 5  99445575.77742  24285632.898                    24285644.965
 11  8 14  0 17  0.0000000  0  9G04G09G02G30G10G12G17G05G28
 109929247.386 8  85659270.86546  20918820.063                    20918829.316
 120346329.098 7  93776424.59144  22901150.008                    22901161.242
 108783338.110 8  84766376.80046  20700762.734                    20700769.680
 127741778.949 6  99539114.28442  24308458.523                    24308468.848
 110855881.799 8  86381340.70046  21095156.563                    21095166.441
 116485495.190 8  90767983.974 7  22166454.156                    22166462.988
 118971883.509 7  92705382.986 7  22639592.563                    22639602.461
 121129113.269 7  94386399.546 7  23050092.391                    23050103.934
 127723687.767 5  99524969.78342  24305021.539                    24305034.656
 11  8 14  0 17 30.0000000  0  9G04G09G02G30G10G12G17G05G28
 109994616.916 8  85710208.14746  20931259.406                    20931268.664
 120410846.761 7  93826698.03644  22913428.109                    22913439.164
 108764975.091 8  84752067.98946  20697268.023                    20697274.906
 127635712.473 5  99456465.07342  24288274.641                    24288285.215
 110820547.379 8  86353807.41246  21088433.023                    21088442.563
 116405945.239 7  90705997.032 7  22151316.391                    22151325.137
 119017225.426 7  92740714.321 7  22648221.016                    22648230.371
 121026587.257 7  94306509.326 7  23030582.086                    23030593.516
 127825769.600 6  99604514.01742  24324446.969                    24324459.820
 11  8 14  0 18  0.0000000  0  8G04G09G02G30G10G12G17G05
 110060251.202 8  85761351.73746  20943749.289                    20943758.750
 120475717.041 7  93877246.23544  22925772.227                    22925783.457
 108746957.480 8  84738028.32346  20693839.430                    20693846.750
 127529800.090 5  99373935.97842  24268119.820                    24268131.563
 110785782.527 8  86326717.93446  21081817.359                    21081827.254
 116326688.015 7  90644238.183 7  22136234.625                    22136242.992
 119062690.920 7  92776141.945 7  22656872.438                    22656882.273
 120924197.149 7  94226725.003 7  23011097.594                    23011109.012
 11  8 14  0 18 30.0000000  0  8G04G09G02G30G10G12G17G05
 110126147.482 8  85812699.47446  20956288.953                    20956298.195
 120540936.591 7  93928066.56944  22938183.188                    22938194.371
 108729284.185 8  84724256.96146  20690475.977                    20690483.207
 127424043.87914                  24247991.906
 110751588.726 8  86300073.43646  21075310.672                    21075319.617
 116247726.154 7  90582709.484 7  22121208.523                    22121217.016
 119108279.898 7  92811665.785 7  22665547.773                    22665557.605
 120821945.311 7  94147048.413 7  22991639.219                    22991650.930
 11  8 14  0 19  0.0000000  0  8G04G09G02G30G10G12G17G05
 110192303.545 8  85864249.64346  20968877.938                    20968887.238
 120606501.813 7  93979156.30244  22950659.266                    22950670.508
 108711954.440 8  84710753.30046  20687178.688                    20687185.652
 127318446.96015                  24227899.883
 110717967.700 8  86273875.27346  21068912.734                    21068921.832
 116169062.036 7  90521412.783 7  22106239.289                    22106247.941
 119153993.099 7  92847286.452 7  22674246.602                    22674256.402
 120719834.797 7  94067481.944 7  22972208.586                    22972219.719
 11  8 14  0 19 30.0000000  0  8G04G09G02G30G10G12G17G05
 110258717.256 8  85916000.58046  20981516.234                    20981525.516
 120672409.708 7  94030513.00544  22963201.523                    22963212.820
 108694967.705 8  84697516.91746  20683946.188                    20683952.695
 127213012.101 5  99127074.25953  24207836.938                    24207847.336
 110684921.420 7  86248124.96846  21062623.797                    21062633.629
 116090698.350 7  90460350.190 7  22091326.922                    22091335.461
 119199831.363 7  92883004.546 7  22682969.758                    22682979.223
 120617868.657 7  93988027.979 7  22952804.617                    22952816.340
 11  8 14  0 20  0.0000000  0  8G04G09G02G30G10G12G17G05
 110325386.180 8  85967950.38446  20994202.594                    20994211.914
 120738657.043 6  94082134.22844  22975807.930                    22975819.773
 108678323.557 8  84684547.48346  20680778.797                    20680785.398
 127107742.249 6  99045045.90243  24187805.227                    24187816.480
 110652451.757 7  86222823.95246  21056445.195                    21056454.570
 116012637.857 7  90399523.856 7  22076472.406                    22076481.387
 119245795.158 7  92918820.484 7  22691716.188                    22691725.594
 120516050.572 7  93908689.382 7  22933428.711                    22933440.352
 11  8 14  0 20 30.0000000  0  8G04G09G02G30G10G12G17G05
 110392307.960 8  86020097.21146  21006937.672                    21006946.652
 120805239.930 7  94134016.89144  22988479.055                    22988490.953
 108662020.390 8  84671843.74846  20677676.234                    20677682.629
 127002639.948 7  98963148.07244  24167804.273                    24167815.691
 110620559.958 7  86197973.23646  21050376.383                    21050385.914
 115934883.046 7  90338935.707 7  22061676.234                    22061685.125
 119291885.147 7  92954734.741 7  22700486.953                    22700496.188
 120414382.384 7  93829467.576 7  22914082.305                    22914093.328
 11  8 14  0 21  0.0000000  0  8G04G09G02G30G10G12G17G05
 110459479.957 8  86072439.02746  21019719.766                    21019728.648
 120872155.291 7  94186158.65744  23001212.453                    23001223.512
 108646057.495 8  84659405.16346  20674638.602                    20674645.777
 126897707.500 7  98881382.68144  24147836.766                    24147848.027
 110589247.963 8  86173574.31546  21044418.125                    21044427.809
 115857436.208 7  90278587.525 7  22046938.617                    22046947.387
 119338101.719 7  92990747.623 7  22709281.375                    22709291.270
 120312867.484 7  93750365.217 7  22894764.117                    22894776.012
 11  8 14  0 21 30.0000000  0  8G04G09G02G30G10G12G17G05
 110526899.749 8  86124973.92046  21032549.492                    21032558.289
 120939399.574 7  94238556.73144  23014008.555                    23014020.184
 108630433.846 8  84647230.91246  20671665.586                    20671672.145
 126792947.443 7  98799751.59244  24127901.586                    24127913.043
 110558516.929 7  86149628.08046  21038569.805                    21038579.449
 115780299.716 7  90218481.192 7  22032259.766                    22032268.832
 119384445.311 7  93026859.482 6  22718100.320                    22718109.711
 120211508.684 7  93671384.503 7  22875476.750                    22875487.582
 11  8 14  0 22  0.0000000  0  8G04G09G02G30G10G12G17G05
 110594564.819 8  86177699.94746  21045425.648                    21045434.945
 121006969.587 7  94291208.60544  23026866.578                    23026878.246
 108615148.612 8  84635320.36446  20668756.961                    20668763.855
 126688362.480 6  98718256.97844  24107999.539                    24108010.637
 110528368.699 8  86126135.98546  21032832.695                    21032842.281
 115703476.201 7  90158618.729 7  22017640.883                    22017650.195
 119430916.761 7  93063070.949 7  22726944.438                    22726953.684
 120110308.686 7  93592527.516 7  22856218.297                    22856229.836
 11  8 14  0 22 30.0000000  0  8G04G09G02G30G10G12G17G05
 110662474.106 8  86230616.26146  21058348.188                    21058357.566
 121074862.873 7  94344112.39444  23039787.117                    23039797.844
 108600202.167 8  84623673.81346  20665912.625                    20665919.477
 126583956.463 7  98636901.78044  24088131.594                    24088142.691
 110498805.895 8  86103100.06646  21027207.156                    21027216.777
 115626968.947 7  90099002.707 7  22003082.258                    22003091.207
 119477517.010 7  93099382.794 7  22735811.258                    22735821.125
 120009271.347 7  93513797.273 7  22836992.195                    22837002.887
 11  8 14  0 23  0.0000000  0  8G04G09G02G30G10G12G17G05
 110730624.305 8  86283720.30046  21071316.859                    21071326.281
 121143075.553 7  94397265.04144  23052766.391                    23052778.055
 108585593.119 8  84612290.16246  20663132.633                    20663139.277
 126479731.377 6  98555687.60044  24068298.070                    24068309.168
 110469829.307 8  86080520.93446  21021693.070                    21021702.949
 115550780.336 7  90039634.972 7  21988584.031                    21988592.578
 119524246.184 7  93135795.102 6  22744704.211                    22744713.379
 119908399.278 7  93435195.825 7  22817796.375                    22817807.398
 11  8 14  0 23 30.0000000  0  8G04G09G02G30G10G12G17G05
 110799013.186 8  86337010.33646  21084331.016                    21084340.512
 121211604.001 7  94450663.75544  23065807.070                    23065818.426
 108571319.992 8  84601168.26546  20660416.453                    20660423.141
 126375689.802 6  98474616.37743  24048499.305                    24048510.563
 110441440.761 8  86058400.02946  21016291.211                    21016299.965
 115474912.716 8  89980517.372 7  21974146.648                    21974155.211
 119571104.969 7  93172308.426 7  22753620.820                    22753630.691
 119807695.250 7  93356725.308 7  22798633.016                    22798643.871
 11  8 14  0 24  0.0000000  0  8G04G09G02G30G10G12G17G05
 110867638.968 8  86390484.95646  21097390.266                    21097399.336
 121280445.194 7  94504306.17044  23078907.781                    23078918.898
 108557382.568 8  84590307.94946  20657764.688                    20657771.234
 126271835.032 6  98393690.72243  24028735.820                    24028746.949
 110413641.989 8  86036738.69746  21011001.047                    21011010.414
 115399368.600 8  89921651.845 7  21959771.109                    21959779.871
 119618094.381 7  93208923.545 7  22762562.625                    22762572.371
 119707162.447 7  93278388.218 7  22779502.031                    22779513.035
 11  8 14  0 24 30.0000000  0  8G04G09G02G30G10G12G17G05
 110936499.138 8  86444142.21746  21110493.648                    21110503.234
 121349595.914 7  94558189.77044  23092066.344                    23092078.688
 108543780.448 8  84579708.90546  20655176.227                    20655183.129
 126168169.832 6  98312912.80642  24009009.086                    24009020.371
 110386434.771 8  86015538.29646  21005823.719                    21005833.344
 115324150.911 7  89863040.695 7  21945457.602                    21945466.629
 119665215.026 7  93245640.887 7  22771529.523                    22771538.879
 119606804.220 7  93200187.162 7  22760404.383                    22760415.344
 11  8 14  0 25  0.0000000  0  8G04G09G02G30G10G12G17G05
 111005591.431 8  86497980.35946  21123641.719                    21123650.750
 121419052.551 7  94612311.75944  23105283.602                    23105295.574
 108530512.460 8  84569370.22746  20652651.156                    20652657.750
 126064696.864 6  98232284.57542  23989318.031                    23989329.090
 110359820.070 8  85994799.61446  21000759.172                    21000768.262
 115249262.201 8  89804685.878 7  21931206.398                    21931215.477
 119712467.439 7  93282460.931 7  22780521.234                    22780530.758
 119506623.230 7  93122124.213 7  22741340.586                    22741351.758
 11  8 14  0 25 30.0000000  0  8G04G09G02G30G10G12G17G05
 111074912.857 8  86551997.05246  21136833.094                    21136842.313
 121488811.226 7  94666669.10244  23118558.820                    23118570.797
 108517576.699 8  84559290.41846  20650189.680                    20650196.227
 125961418.121 6  98151807.69842  23969665.836                    23969676.195
 110333798.836 8  85974523.35846  20995807.602                    20995816.555
 115174704.349 7  89746588.884 7  21917018.750                    21917027.523
 119759851.663 7  93319383.673 7  22789538.016                    22789547.387
 119406622.243 7  93044201.502 7  22722310.617                    22722321.891
 11  8 14  0 26  0.0000000  0  8G04G09G02G30G10G12G17G05
 111144462.034 8  86606191.20746  21150067.563                    21150076.789
 121558869.369 7  94721259.77644  23131890.281                    23131902.773
 108504973.547 8  84549469.78846  20647791.336                    20647797.945
 125858337.242 6  98071484.95243  23950050.250                    23950060.750
 110308373.627 8  85954711.53846  20990969.102                    20990978.813
 115100480.949 7  89688752.497 7  21902894.594                    21902903.445
 119807368.860 7  93356410.026 7  22798580.500                    22798590.293
 119306804.697 7  92966421.746 7  22703316.383                    22703327.152
 11  8 14  0 26 30.0000000  0  8G04G09G02G30G10G12G17G05
 111214236.786 8  86660561.13346  21163345.531                    21163354.340
 121629223.863 7  94776081.38844  23145278.445                    23145290.270
 108492702.246 8  84539907.75046  20645456.234                    20645462.668
 125755457.246 6  97991318.75843  23930472.430                    23930483.059
 110283546.187 8  85935365.50246  20986244.445                    20986254.156
 115026594.300 8  89631178.507 7  21888834.328                    21888843.617
 119855019.813 7  93393540.600 7  22807648.531                    22807657.742
 119207173.439 7  92888787.141 7  22684356.930                    22684367.770
 11  8 14  0 27  0.0000000  0  8G04G09G02G30G10G12G17G05
 111284234.664 8  86715104.93846  21176665.719                    21176674.980
 121699871.298 7  94831131.29344  23158721.438                    23158733.793
 108480761.979 8  84530603.64946  20643183.758                    20643190.531
 125652780.792 6  97911311.19943  23910934.125                    23910944.398
 110259317.450 8  85916486.00546  20981634.133                    20981643.473
 114953046.933 8  89573868.900 7  21874838.945                    21874847.613
 119902805.123 7  93430775.856 7  22816741.750                    22816751.031
 119107731.526 7  92811300.084 7  22665433.398                    22665444.195
 11  8 14  0 27 30.0000000  0  8G04G09G02G30G10G12G17G05
 111354452.808 8  86769820.37546  21190027.844                    21190037.078
 121770807.632 7  94886406.30944  23172220.680                    23172232.637
 108469150.792 8  84521555.97446  20640974.094                    20640980.773
 125550310.083 6  97831463.99043  23891434.508                    23891444.879
 110235688.191 8  85898073.62246  20977137.672                    20977147.156
 114879841.142 7  89516825.449 7  21860908.563                    21860916.949
 119950724.635 7  93468115.679 7  22825860.219                    22825869.582
 119008481.655 7  92733962.660 7  22646546.656                    22646557.656
 11  8 14  0 28  0.0000000  0  8G04G09G02G30G10G12G17G05
 111424889.385 8  86824706.02146  21203431.086                    21203440.684
 121842029.850 7  94941904.08244  23185773.758                    23185785.879
 108457868.153 8  84512764.30546  20638827.188                    20638833.867
 125448048.106 7  97751779.38143  23871974.031                    23871985.105
 110212660.014 8  85880129.60946  20972755.297                    20972764.988
 114806979.268 8  89460049.984 7  21847043.008                    21847051.355
 119998779.316 7  93505560.861 6  22835005.148                    22835014.059
 118909426.844 7  92656777.239 7  22627696.914                    22627708.145
 11  8 14  0 28 30.0000000  0  8G04G09G02G30G10G12G17G05
 111495541.743 8  86879759.80946  21216875.750                    21216885.367
 121913534.233 7  94997621.72244  23199380.984                    23199392.480
 108446913.022 8  84504227.83446  20636742.555                    20636749.270
 125345997.489 6  97672259.45743  23852554.531                    23852565.711
 110190234.190 7  85862654.97546  20968488.016                    20968497.180
 114734463.598 8  89403544.284 7  21833243.672                    21833252.637
 120046970.091 7  93543112.040 7  22844175.539                    22844184.516
 118810570.222 7  92579746.255 7  22608885.781                    22608896.047
 11  8 14  0 29  0.0000000  0  8G04G09G02G30G10G12G17G05
 111566408.298 8  86934980.50846  21230361.641                    21230370.496
 121985317.841 7  95053556.94344  23213040.711                    23213052.883
 108436285.398 8  84495946.55846  20634720.141                    20634726.938
 125244161.697 6  97592907.01743  23833175.633                    23833187.320
 110168412.416 8  85845651.02246  20964335.148                    20964344.516
 114662297.861 7  89347311.250 7  21819511.336                    21819519.520
 120095297.560 7  93580769.765 7  22853371.852                    22853381.141
 118711915.113 7  92502872.289 7  22590111.859                    22590122.359
 11  8 14  0 29 30.0000000  0  8G04G09G02G30G10G12G17G05
 111637486.763 8  86990366.32246  21243887.047                    21243896.660
 122057376.890 7  95109706.77744  23226753.156                    23226765.637
 108425983.692 8  84487919.26046  20632759.945                    20632766.199
 125142543.381 6  97513723.99443  23813838.258                    23813849.086
 110147195.897 8  85829118.68746  20960298.281                    20960307.188
 114590484.176 8  89291352.556 7  21805845.297                    21805854.266
 120143762.186 7  93618534.350 7  22862594.516                    22862603.773
 118613463.943 7  92426157.230 7  22571376.922                    22571387.891
 11  8 14  0 30  0.0000000  0  8G04G09G02G30G10G12G17G05
 111708774.674 8  87045915.33946  21257452.875                    21257462.246
 122129708.357 7  95166068.89744  23240518.234                    23240529.379
 108416007.274 8  84480145.42246  20630861.688                    20630868.473
 125041145.318 6  97434712.56544  23794543.359                    23794554.320
 110126585.963 8  85813059.03046  20956375.898                    20956385.316
 114519024.840 7  89235669.974 7  21792247.203                    21792255.945
 120192364.667 7  93656406.365 7  22871842.438                    22871852.828
 118515220.209 7  92349603.804 7  22552681.797                    22552692.375
 11  8 14  0 30 30.0000000  0  8G04G09G02G30G10G12G17G05
 111780269.914 8  87101625.91846  21271057.992                    21271067.238
 122202308.964 7  95222640.72244  23254333.164                    23254345.227
 108406355.284 8  84472624.39146  20629024.367                    20629031.363
 124939970.118 6  97355874.81643  23775289.711                    23775300.422
 110106583.566 8  85797472.77146  20952569.625                    20952579.031
 114447922.537 8  89180265.605 7  21778716.750                    21778725.410
 120241105.526 7  93694386.197 7  22881118.219                    22881128.164
 118417186.374 7  92273213.930 7  22534026.609                    22534037.129
 11  8 14  0 31  0.0000000  0  9G04G09G02G30G25G10G12G17G05
 111851969.578 8  87157495.78146  21284701.867                    21284711.621
 122275174.696 7  95279419.14544  23268198.789                    23268211.152
 108397025.806 8  84465354.67746  20627249.664                    20627256.387
 124839020.269 7  97277212.65844  23756080.227                    23756090.730
 129605249.82316 100991147.41916  24663065.461                    24663078.520
 110087189.348 8  85782360.41246  20948879.266                    20948888.012
 114377179.076 7  89125140.840 7  21765254.711                    21765263.473
 120289985.002 7  93732474.069 7  22890419.305                    22890429.281
 118319365.159 7  92196989.730 7  22515411.289                    22515422.336
 11  8 14  0 31 30.0000000  0  9G04G09G02G30G25G10G12G17G05
 111923871.097 8  87213522.92646  21298384.547                    21298393.953
 122348301.785 7  95336401.22444  23282114.875                    23282125.906
 108388017.792 8  84458335.45046  20625535.313                    20625541.809
 124738298.104 6  97198727.93544  23736913.141                    23736923.840
 129501942.766 7 100910648.573 6  24643407.133                    24643420.797
 110068404.101 8  85767722.58046  20945304.195                    20945313.465
 114306796.731 7  89070297.480 7  21751861.422                    21751870.035
 120339003.101 7  93770669.931 7  22899747.578                    22899757.508
 118221759.307 7  92120933.344 7  22496837.773                    22496848.117
 11  8 14  0 32  0.0000000  0  9G04G09G02G30G25G10G12G17G05
 111995973.259 8  87269706.42246  21312104.984                    21312114.480
 122421687.627 6  95393584.92944  23296079.508                    23296091.078
 108379331.457 8  84451566.88446  20623882.203                    20623889.016
 124637807.415 6  97120423.54343  23717790.102                    23717801.063
 129398740.359 6 100830231.235 5  24623768.508                    24623781.539
 110050230.209 8  85753561.12546  20941845.906                    20941855.375
 114236779.057 8  89015738.280 7  21738537.648                    21738546.359
 120388161.301 7  93808974.974 6  22909102.180                    22909111.219
 118124372.867 7  92045047.923 7  22478305.883                    22478316.188
 11  8 14  0 32 30.0000000  0  9G04G09G02G30G25G10G12G17G05
 112068273.752 8  87326044.45845  21325863.258                    21325872.859
 122495328.443 7  95450967.30844  23310092.945                    23310104.559
 108370965.105 8  84445047.66746  20622290.289                    20622296.727
 124537550.776 6  97042301.53544  23698712.094                    23698722.707
 129295644.831 6 100749897.151 6  24604149.703                    24604162.348
 110032668.170 8  85739876.44046  20938504.344                    20938513.188
 114167128.446 8  88961465.114 7  21725283.352                    21725292.066
 120437460.255 7  93847389.687 6  22918483.906                    22918492.496
 118027208.263 7  91969335.356 7  22459815.945                    22459825.996
 11  8 14  0 33  0.0000000  0  9G04G09G02G30G25G10G12G17G05
 112140770.767 8  87382535.61345  21339659.148                    21339668.500
 122569221.478 7  95508546.21544  23324154.250                    23324166.320
 108362918.711 8  84438777.76246  20620759.109                    20620765.641
 124437531.637 6  96964364.61643  23679678.781                    23679689.777
 129192658.802 6 100669648.442 5  24584551.555                    24584565.066
 110015719.663 8  85726669.82446  20935278.781                    20935287.641
 114097848.078 7  88907480.449 7  21712099.664                    21712108.457
 120486901.091 7  93885914.973 6  22927891.594                    22927901.082
 117930269.017 7  91893798.396 7  22441368.961                    22441379.355
 11  8 14  0 33 30.0000000  0  9G04G09G02G30G25G10G12G17G05
 112213461.863 8  87439178.00846  21353491.594                    21353500.426
 122643363.260 7  95566318.95544  23338263.484                    23338275.234
 108355191.105 8  84432756.26946  20619288.359                    20619294.996
 124337752.470 6  96886614.66544  23660691.586                    23660702.176
 129089784.583 6 100589486.794 5  24564975.703                    24564988.645
 109999385.800 8  85713942.15546  20932170.563                    20932179.512
 114028939.848 8  88853785.769 7  21698986.914                    21698995.688
 120536484.063 7  93924551.017 6  22937327.664                    22937336.277
 117833558.190 7  91818439.420 7  22422965.000                    22422975.207
 11  8 14  0 34  0.0000000  0  9G04G09G02G30G25G10G12G17G05
 112286344.892 7  87495969.95545  21367360.766                    21367369.836
 122717750.219 7  95624282.72144  23352418.500                    23352430.695
 108347780.900 8  84426982.10946  20617878.398                    20617885.055
 124238216.187 6  96809054.00244  23641750.578                    23641760.957
 128987024.558 5 100509414.105 5  24545420.352                    24545433.922
 109983667.466 8  85701694.11346  20929179.328                    20929188.879
 113960406.334 8  88800383.083 7  21685945.375                    21685953.914
 120586209.748 7  93963298.284 7  22946789.906                    22946798.836
 117737078.342 7  91743260.418 7  22404605.727                    22404615.992
 11  8 14  0 34 30.0000000  0  9G04G09G02G30G25G10G12G17G05
 112359417.465 7  87552909.59745  21381266.414                    21381275.352
 122792378.963 7  95682434.89744  23366619.922                    23366632.488
 108340687.153 8  84421454.53846  20616528.367                    20616535.547
 124138925.458 6  96731684.63444  23622855.586                    23622866.516
 128884381.221 6 100429432.444 6  24525887.672                    24525901.207
 109968565.423 7  85689926.30946  20926304.961                    20926314.617
 113892249.754 8  88747274.128 7  21672975.344                    21672984.250
 120636078.814 7  94002157.266 6  22956279.711                    22956289.145
 117640832.570 7  91668263.829 7  22386290.531                    22386301.023
 11  8 14  0 35  0.0000000  0  9G04G09G02G30G25G10G12G17G05
 112432677.425 8  87609995.24745  21395207.305                    21395216.441
 122867245.984 7  95740772.70644  23380866.844                    23380879.332
 108333908.853 8  84416172.77346  20615238.664                    20615245.035
 124039883.174 6  96654508.90543  23604008.648                    23604019.387
 128781856.907 6 100349543.524 6  24506377.680                    24506391.969
 109954080.367 8  85678639.27346  20923549.102                    20923558.324
 113824472.563 8  88694460.799 7  21660078.125                    21660086.703
 120686091.721 7  94041128.323 6  22965796.672                    22965805.926
 117544823.551 7  91593451.697 7  22368020.570                    22368030.809
 11  8 14  0 35 30.0000000  0  9G04G09G02G30G25G10G12G17G05
 112506122.887 8  87667225.44545  21409183.367                    21409192.656
 122942348.026 7  95799293.66044  23395158.609                    23395171.086
 108327445.374 8  84411136.32646  20614008.516                    20614015.039
 123941092.255 6  96577529.04043  23585209.461                    23585219.688
 128679454.650 7 100269749.653 6  24486891.695                    24486905.266
 109940214.004 8  85667834.33546  20920910.555                    20920919.441
 113757077.734 8  88641945.404 7  21647253.102                    21647261.914
 120736249.119 7  94080211.972 6  22975340.883                    22975350.012
 117449054.784 7  91518826.797 7  22349796.305                    22349806.488
 11  8 14  0 36  0.0000000  0  9G04G09G02G30G25G10G12G17G05
 112579751.632 8  87724598.45545  21423194.211                    21423203.883
 123017681.656 6  95857995.05844  23409493.836                    23409506.285
 108321295.862 8  84406344.52546  20612838.359                    20612845.297
 123842555.572 6  96500747.29243  23566458.578                    23566469.285
 128577176.806 7 100190052.693 6  24467428.813                    24467442.941
 109926966.881 8  85657511.92546  20918389.836                    20918398.645
 113690067.599 8  88589729.779 7  21634501.469                    21634510.090
 120786551.623 7  94119408.720 6  22984913.633                    22984922.797
 117353529.366 7  91444391.510 7  22331618.266                    22331628.461
 11  8 14  0 36 30.0000000  0  9G04G09G02G30G25G10G12G17G05
 112653561.265 8  87782112.41045  21437239.867                    21437249.410
 123093243.500 7  95916874.29944  23423872.648                    23423884.969
 108315458.714 8  84401796.12446  20611727.852                    20611734.051
 123744275.783 6  96424165.73043  23547756.578                    23547767.551
 128475025.613 7 100110454.409 7  24447990.313                    24448003.758
 109914339.503 8  85647672.43046  20915986.406                    20915995.387
 113623444.469 8  88537815.702 7  21621823.320                    21621831.840
 120836999.592 7  94158718.813 6  22994513.398                    22994522.680
 117258249.692 7  91370147.719 7  22313487.266                    22313497.574
 11  8 14  0 37  0.0000000  0  9G04G09G02G30G25G10G12G17G05
 112727549.631 8  87839765.63245  21451319.766                    21451328.672
 123169029.762 6  95975928.39444  23438294.625                    23438306.711
 108309932.943 8  84397490.35746  20610675.953                    20610682.742
 123646255.723 6  96347786.54043  23529103.969                    23529114.059
 128373003.623 7 100030956.777 7  24428576.102                    24428589.801
 109902332.725 8  85638316.52046  20913701.688                    20913710.238
 113557210.503 8  88486204.882 7  21609219.406                    21609228.215
 120887593.557 7  94198142.664 7  23004141.430                    23004151.066
 117163218.801 7  91296097.785 7  22295403.422                    22295413.379
 11  8 14  0 37 30.0000000  0  9G04G09G02G30G25G10G12G17G05
 112801714.847 8  87897556.66646  21465433.219                    21465442.418
 123245037.395 6  96035154.98944  23452758.234                    23452770.988
 108304717.766 8  84393426.60746  20609683.469                    20609690.422
 123548498.382 6  96271612.09143  23510501.289                    23510511.469
 128271113.550 7  99951561.953 7  24409187.227                    24409200.457
 109890947.533 8  85629444.95746  20911535.359                    20911544.383
 113491368.666 8  88434899.612 7  21596690.047                    21596698.645
 120938334.488 7  94237681.021 7  23013796.695                    23013806.602
 117068439.532 7  91222243.917 7  22277366.992                    22277377.301
 11  8 14  0 38  0.0000000  0  9G04G09G02G30G25G10G12G17G05
 112876054.441 8  87955483.57745  21479579.281                    21479588.496
 123321262.603 7  96094551.11144  23467263.797                    23467276.484
 108299811.669 8  84389603.69846  20608750.016                    20608756.828
 123451006.214 6  96195644.26243  23491948.813                    23491959.258
 128169357.533 7  99872271.564 7  24389823.719                    24389837.031
 109880184.333 8  85621058.06346  20909487.344                    20909495.961
 113425921.207 8  88383901.635 7  21584235.922                    21584244.371
 120989222.451 6  94277333.982 6  23023480.367                    23023490.398
 116973914.890 7  91148588.460 7  22259379.719                    22259389.711
 11  8 14  0 38 30.0000000  0  9G04G09G02G30G25G10G12G17G05
 112950566.572 8  88013544.94245  21493758.344                    21493767.570
 123397702.212 7  96154114.31244  23481809.523                    23481822.805
 108295214.070 8  84386021.17546  20607875.219                    20607881.727
 123353782.394 6  96119885.58644  23473447.344                    23473458.605
 128067738.372 7  99793087.835 7  24370486.375                    24370499.980
 109870044.677 8  85613157.06046  20907557.711                    20907566.543
 113360870.571 8  88333212.879 7  21571857.234                    21571866.129
 121040258.593 7  94317102.373 7  23033192.195                    23033202.281
 116879648.303 7  91075134.084 7  22241441.391                    22241451.340
 11  8 14  0 39  0.0000000  0  9G04G09G02G30G25G10G12G17G05
 113025248.720 8  88071738.77745  21507970.055                    21507979.375
 123474352.654 7  96213841.78944  23496396.625                    23496408.516
 108290923.667 8  84382678.02246  20607059.055                    20607065.520
 123256829.547 6  96044337.99644  23454998.070                    23455008.305
 127966258.405 6  99714012.576 6  24351174.523                    24351188.809
 109860528.569 8  85605741.92146  20905746.633                    20905755.813
 113296218.951 8  88282835.026 7  21559554.273                    21559563.012
 121091443.279 7  94356986.528 6  23042932.461                    23042942.238
 116785641.853 7  91001882.421 7  22223552.516                    22223562.258
 11  8 14  0 39 30.0000000  0  9G04G09G02G30G25G10G12G17G05
 113100099.077 8  88130063.68945  21522213.617                    21522222.750
 123551210.607 6  96273730.97444  23511021.977                    23511034.398
 108286939.823 8  84379573.75046  20606300.641                    20606307.379
 123160150.742 6  95969003.99044  23436601.242                    23436611.438
 127864920.490 6  99635048.011 6  24331890.422                    24331904.082
 109851637.131 8  85598813.54346  20904054.680                    20904064.031
 113231968.991 8  88232770.143 7  21547327.844                    21547336.203
 121142777.115 7  94396986.883 7  23052701.023                    23052710.816
 116691899.062 7  90928836.196 7  22205713.430                    22205723.773
 11  8 14  0 40  0.0000000  0  9G04G09G02G30G25G10G12G17G05
 113175115.801 8  88188518.23345  21536489.063                    21536498.059
 123628273.009 7  96333779.45044  23525686.867                    23525699.402
 108283261.658 8  84376707.65746  20605600.586                    20605607.078
 123063748.950 6  95893885.80743  23418255.445                    23418266.000
 127763727.288 6  99556196.239 6  24312633.914                    24312648.070
 109843371.097 8  85592372.49946  20902481.969                    20902490.789
 113168123.320 8  88183020.278 7  21535178.734                    21535187.285
 121194260.536 7  94437103.798 6  23062497.969                    23062507.531
 116598423.060 7  90855997.857 7  22187926.031                    22187935.664
 11  8 14  0 40 30.0000000  0  9G04G09G02G30G25G10G12G17G05
 113250296.324 8  88247100.41545  21550794.664                    21550804.473
 123705536.013 7  96393984.27944  23540388.836                    23540401.535
 108279887.286 8  84374078.29346  20604958.445                    20604964.828
 122967626.580 6  95818985.33443  23399964.055                    23399974.184
 127662680.898 6  99477458.837 5  24293405.773                    24293418.781
 109835730.671 8  85586418.93346  20901027.852                    20901036.762
 113104683.989 8  88133587.055 7  21523106.023                    21523115.094
 121245894.013 7  94477337.616 6  23072324.070                    23072333.465
 116505216.486 7  90783369.464 7  22170188.805                    22170198.855
 11  8 14  0 41  0.0000000  0  9G04G09G02G30G25G10G12G17G05
 113325638.583 8  88305808.62845  21565132.648                    21565141.766
 123782996.070 7  96454342.64844  23555129.359                    23555141.781
 108276815.801 8  84371684.94546  20604374.078                    20604380.660
 122871786.625 6  95744304.93043  23381726.930                    23381736.355
 127561784.004 6  99398837.880 5  24274206.148                    24274218.578
 109828716.575 8  85580953.41646  20899693.086                    20899702.094
 113041653.339 7  88084472.269 7  21511112.195                    21511120.594
 121297677.964 7  94517688.711 6  23082177.758                    23082187.094
 116412282.091 7  90710953.161 7  22152504.063                    22152514.070
 11  8 14  0 41 30.0000000  0  9G04G09G02G30G25G10G12G17G05
 113401140.163 8  88364640.99345  21579499.867                    21579509.086
 123860649.593 7  96514851.78144  23569906.680                    23569918.852
 108274045.863 7  84369526.56346  20603846.883                    20603853.121
 122776231.315 6  95669846.35844  23363542.516                    23363553.762
 127461038.592 7  99320335.004 5  24255034.789                    24255047.195
 109822328.686 7  85575975.85546  20898477.281                    20898486.398
 112979033.425 8  88035677.528 7  21499195.891                    21499204.965
 121349612.750 7  94558157.321 6  23092060.953                    23092070.012
 116319622.534 7  90638751.015 7  22134871.664                    22134881.277
 11  8 14  0 42  0.0000000  0  9G04G09G02G30G25G10G12G17G05
 113476799.573 8  88423596.35445  21593896.961                    21593906.211
 123938493.778 7  96575509.46644  23584720.203                    23584732.680
 108271577.254 8  84367602.98646  20603377.039                    20603383.777
 122680964.338 6  95595612.45044  23345413.797                    23345425.035
 127360448.130 6  99241952.878 6  24235892.789                    24235906.004
 109816568.714 7  85571487.58146  20897381.297                    20897390.262
 112916827.217 7  87987205.151 7  21487358.219                    21487366.941
 121401699.641 7  94598744.451 6  23101972.789                    23101982.250
 116227241.321 7  90566765.762 7  22117291.734                    22117301.703
 11  8 14  0 42 30.0000000  0  9G04G09G02G30G25G10G12G17G05
 113552614.718 8  88482673.07245  21608324.594                    21608334.016
 124016524.803 7  96636312.74144  23599568.641                    23599581.305
 108269408.399 8  84365912.96746  20602964.727                    20602971.117
 122585988.391 6  95521605.31943  23327340.039                    23327351.207
 127260014.838 6  99163693.253 6  24216781.336                    24216794.180
 109811436.673 7  85567488.60046  20896404.852                    20896413.906
 112855037.364 7  87939057.199 7  21475600.102                    21475608.703
 121453939.111 7  94639450.475 6  23111913.945                    23111922.387
 116135141.408 7  90494999.691 7  22099765.703                    22099775.621
 11  8 14  0 43  0.0000000  0  9G04G09G02G30G25G10G12G17G05
 113628583.768 8  88541869.70845  21622781.102                    21622790.289
 124094739.608 7  96697259.23044  23614452.703                    23614465.125
 108267538.667 8  84364456.04646  20602608.750                    20602615.277
 122491306.411 6  95447827.21743  23309322.938                    23309332.781
 127159741.659 7  99085558.428 6  24197699.594                    24197712.801
 109806933.374 7  85563979.55346  20895547.867                    20895556.938
 112793665.983 7  87891235.334 7  21463921.453                    21463930.270
 121506331.651 7  94680275.782 6  23121883.781                    23121892.629
 116043325.477 7  90423454.912 7  22082293.602                    22082303.363
 11  8 14  0 43 30.0000000  0  9G04G09G02G30G25G10G12G17G05
 113704704.309 8  88601184.40745  21637265.852                    21637275.773
 124173134.489 7  96758346.02044  23629371.023                    23629383.188
 108265966.579 8  84363231.04846  20602309.250                    20602315.773
 122396921.125 6  95374280.30444  23291361.625                    23291372.691
 127059630.791 6  99007550.060 6  24178648.500                    24178662.359
 109803058.965 8  85560960.55346  20894810.102                    20894819.816
 112732715.116 7  87843741.141 7  21452323.430                    21452332.098
 121558877.742 7  94721220.734 6  23131883.016                    23131892.141
 115951796.510 7  90352133.741 7  22064875.891                    22064886.113
 11  8 14  0 44  0.0000000  0  9G04G09G02G30G25G10G12G17G05
 113780974.771 8  88660615.92945  21651780.258                    21651789.395
 124251706.319 7  96819570.72344  23644322.563                    23644335.555
 108264691.415 8  84362237.41046  20602066.625                    20602073.320
 122302835.634 6  95300967.02344  23273458.078                    23273468.313
 126959685.323 7  98929670.574 6  24159629.984                    24159643.270
 109799814.298 8  85558432.25346  20894193.078                    20894202.121
 112672187.759 7  87796576.961 7  21440804.953                    21440814.012
 121611578.307 7  94762286.059 6  23141911.016                    23141920.902
 115860557.725 7  90281038.676 7  22047513.805                    22047523.844
 11  8 14  0 44 30.0000000  0  9G04G09G02G30G25G10G12G17G05
 113857392.755 8  88720162.38845  21666321.953                    21666331.148
 124330451.683 6  96880930.63944  23659307.828                    23659320.258
 108263711.953 8  84361474.20046  20601880.313                    20601887.121
 122209052.618 6  95227889.45944  23255611.961                    23255622.781
 126859907.643 6  98851921.879 7  24140642.625                    24140656.004
 109797199.723 7  85556394.94446  20893695.508                    20893704.180
 112612085.886 7  87749744.330 7  21429367.648                    21429376.641
 121664433.558 7  94803471.939 6  23151969.289                    23151978.945
 115769611.611 7  90210171.678 7  22030207.586                    22030216.996
 11  8 14  0 45  0.0000000  0  9G04G09G02G30G25G10G12G17G05
 113933956.006 8  88779822.05345  21680891.242                    21680900.402
 124409366.765 7  96942422.80044  23674324.656                    23674337.230
 108263026.475 8  84360940.06446  20601750.023                    20601756.188
 122115574.569 6  95155049.53744  23237823.734                    23237834.359
 126760299.865 7  98774305.547 6  24121687.609                    24121700.695
 109795215.181 8  85554848.55946  20893318.117                    20893326.656
 112552411.532 7  87703244.827 7  21418012.242                    21418021.043
 121717443.949 7  94844778.680 6  23162056.930                    23162066.996
 115678961.097 7  90139535.005 7  22012957.180                    22012967.039
 11  8 14  0 45 30.0000000  0  9G04G09G02G30G25G10G12G17G05
 114010662.694 8  88839593.49945  21695488.172                    21695497.496
 124488448.613 6  97004044.92844  23689372.992                    23689386.477
 108262634.366 8  84360634.52946  20601675.406                    20601681.512
 122022404.686 6  95082449.68844  23220094.188                    23220104.332
 126660864.917 7  98696823.885 6  24102765.367                    24102779.383
 109793860.954 7  85553793.34146  20893060.234                    20893068.844
 112493167.273 7  87657080.475 7  21406738.711                    21406747.234
 121770610.087 7  94886206.791 6  23172173.430                    23172184.129
 115588609.215 7  90069131.034 7  21995763.930                    21995773.340
 11  8 14  0 46  0.0000000  0  9G04G09G02G30G25G10G12G17G05
 114087510.782 8  88899475.11945  21710112.102                    21710121.371
 124567693.663 6  97065794.19744  23704452.898                    23704466.215
 108262534.604 8  84360556.80046  20601656.328                    20601662.734
 121929545.610 6  95010092.05044  23202423.195                    23202433.047
 126561605.386 7  98619478.908 6  24083877.773                    24083890.523
 109793137.524 8  85553229.64946  20892922.391                    20892931.246
 112434355.479 7  87611253.118 7  21395547.070                    21395555.535
 121823932.689 7  94927756.829 6  23182320.883                    23182331.066
 115498558.736 7  89998961.924 7  21978627.828                    21978637.059
 11  8 14  0 46 30.0000000  0  9G04G09G02G30G25G10G12G17G05
 114164498.498 8  88959465.54345  21724762.336                    21724771.730
 124647098.643 6  97127668.08144  23719563.664                    23719576.789
 108262725.995 8  84360705.95346  20601692.773                    20601699.238
 121837000.257 6  94937978.87844  23184812.461                    23184822.367
 126462523.894 7  98542272.646 6  24065022.609                    24065035.992
 109793045.314 7  85553157.80546  20892905.133                    20892913.480
 112375978.464 7  87565764.545 7  21384438.359                    21384446.988
 121877412.199 7  94969429.163 6  23192497.883                    23192507.695
 115408812.674 7  89929030.020 7  21961549.133                    21961559.020
 11  8 14  0 47  0.0000000  0  9G04G09G02G30G25G10G12G17G05
 114241623.864 8  89019563.23945  21739438.453                    21739448.023
 124726659.998 6  97189663.82744  23734703.836                    23734716.676
 108263207.661 8  84361081.28846  20601784.539                    20601790.871
 121744771.578 6  94866112.46844  23167261.813                    23167272.504
 126363623.096 7  98465207.198 6  24046203.125                    24046215.449
 109793584.683 8  85553578.11346  20893007.570                    20893016.328
 112318038.708 7  87520616.707 7  21373412.586                    21373421.180
 121931049.361 7  95011224.309 6  23202704.664                    23202714.832
 115319374.046 7  89859337.666 7  21944529.422                    21944539.324
 11  8 14  0 47 30.0000000  0  9G04G09G02G30G25G10G12G17G05
 114318884.592 8  89079766.42145  21754140.711                    21754150.578
 124806374.420 7  97251778.84944  23749873.258                    23749886.301
 108263978.343 8  84361681.83446  20601931.117                    20601937.715
 121652862.365 6  94794494.96644  23149771.961                    23149782.703
 126264905.648 7  98388284.602 7  24027417.391                    24027430.176
 109794755.436 7  85554490.41546  20893230.258                    20893239.223
 112260538.305 7  87475811.210 7  21362470.758                    21362479.348
 121984844.474 7  95053142.537 6  23212941.570                    23212951.172
 115230245.541 7  89789886.981 7  21927569.078                    21927578.859
 11  8 14  0 48  0.0000000  0  9G04G09G02G30G25G10G12G17G05
 114396278.868 8  89140073.65045  21768868.383                    21768878.188
 124886238.409 7  97314010.42644  23765070.023                    23765083.555
 108265036.739 8  84362506.57946  20602132.461                    20602138.828
 121561275.279 6  94723128.48644  23132343.148                    23132353.508
 126166373.989 7  98311506.757 6  24008667.469                    24008679.914
 109796558.045 8  85555895.06246  20893573.391                    20893582.105
 112203479.428 7  87431349.769 7  21351612.766                    21351621.422
 122038798.129 7  95095184.314 6  23223208.711                    23223218.539
 115141429.656 7  89720679.888 7  21910667.750                    21910677.199
 11  8 14  0 48 30.0000000  0  9G04G09G02G30G25G10G12G17G05
 114473804.774 8  89200483.45845  21783621.039                    21783630.840
 124966248.669 6  97376355.97444  23780296.477                    23780309.676
 108266381.714 8  84363554.62846  20602388.539                    20602394.844
 121470013.245 6  94652015.28644  23114976.523                    23114987.160
 126068030.930 7  98234875.881 6  23989953.266                    23989966.379
 109798992.776 8  85557792.28446  20894036.445                    20894045.195
 112146864.336 7  87387234.127 7  21340839.031                    21340847.840
 122092910.792 7  95137350.023 6  23233506.141                    23233515.879
 115052929.598 7  89651718.886 7  21893826.680                    21893836.469
 11  8 14  0 49  0.0000000  0  9G04G09G02G30G25G10G12G17G05
 114551460.273 8  89260994.24245  21798398.758                    21798408.250
 125046401.746 6  97438812.84044  23795549.125                    23795562.215
 108268012.341 8  84364825.27246  20602698.641                    20602705.238
 121379079.222 6  94581157.62444  23097672.859                    23097682.746
 125969879.021 7  98158393.993 7  23971274.617                    23971288.676
 109802059.701 8  85560182.11946  20894620.164                    20894628.730
 112090695.212 8  87343465.991 7  21330150.820                    21330159.367
 122147183.020 7  95179640.032 6  23243833.859                    23243843.352
 114964748.472 7  89583006.408 7  21877046.492                    21877056.129
 11  8 14  0 49 30.0000000  0  9G04G09G02G30G25G10G12G17G05
 114629243.246 8  89321604.32945  21813200.078                    21813209.348
 125126694.004 6  97501378.13743  23810827.297                    23810841.586
 108269927.180 8  84366317.37446  20603062.938                    20603069.566
 121288475.556 6  94510557.37344  23080431.656                    23080441.367
 125871920.678 7  98082062.916 6  23952634.383                    23952647.598
 109805758.243 8  85563064.12746  20895323.852                    20895333.055
 112034974.219 7  87300047.052 7  21319547.328                    21319555.820
 122201615.504 7  95222054.956 6  23254191.719                    23254200.863
 114876888.313 7  89514544.033 7  21860327.266                    21860336.879
 11  8 14  0 50  0.0000000  0  9G04G09G02G30G25G10G12G17G05
 114707152.151 8  89382312.55945  21828025.703                    21828035.145
 125207122.623 6  97564049.69844  23826132.969                    23826146.461
 108272125.539 8  84368030.39746  20603481.180                    20603487.707
 121198205.612 6  94440217.21344  23063253.422                    23063263.645
 125774158.989 7  98005885.068 6  23934030.742                    23934043.715
 109810089.157 8  85566438.89146  20896148.094                    20896156.762
 111979703.865 8  87256979.265 7  21309029.203                    21309038.262
 122256208.398 7  95264594.858 6  23264580.563                    23264589.465
 114789352.680 7  89446334.535 7  21843669.688                    21843678.895
 11  8 14  0 50 30.0000000  0  9G04G09G02G30G25G10G12G17G05
 114785184.686 8  89443117.11245  21842875.023                    21842883.906
 125287683.817 7  97626824.55344  23841463.953                    23841476.867
 108274605.586 8  84369962.91546  20603953.023                    20603959.953
 121108271.744 6  94370138.89544  23046138.930                    23046150.090
 125676596.149 7  97929862.180 6  23915465.727                    23915478.230
 109815051.980 8  85570306.05146  20897092.195                    20897101.098
 111924886.531 8  87214264.479 7  21298598.195                    21298606.320
 122310962.350 7  95307260.274 6  23275000.266                    23275009.406
 114702144.173 7  89378379.938 7  21827074.258                    21827083.844
 11  8 14  0 51  0.0000000  0  9G04G09G02G30G25G10G12G17G05
 114863339.077 8  89504016.63145  21857747.070                    21857756.559
 125368374.267 6  97689700.13544  23856819.219                    23856832.043
 108277366.682 7  84372114.43646  20604478.742                    20604485.359
 121018677.102 7  94300324.91744  23029090.102                    23029100.516
 125579235.114 7  97853996.536 6  23896937.594                    23896950.340
 109820647.305 7  85574666.06746  20898157.078                    20898165.707
 111870523.920 8  87171904.014 7  21288253.281                    21288261.793
 122365877.934 7  95350051.626 6  23285449.672                    23285459.551
 114615265.610 7  89310682.434 7  21810541.750                    21810551.348
 11  8 14  0 51 30.0000000  0  9G04G09G02G30G25G10G12G17G05
 114941613.608 7  89565009.75745  21872642.156                    21872651.555
 125449190.741 6  97752673.90844  23872197.930                    23872211.043
 108280407.640 7  84374484.03546  20605057.328                    20605063.691
 120929424.519 6  94230777.47244  23012106.242                    23012115.953
 125482078.459 7  97778290.158 6  23878448.945                    23878461.719
 109826875.035 8  85579518.87046  20899342.477                    20899351.316
 111816618.428 7  87129899.752 7  21277995.656                    21278004.082
 122420955.755 7  95392969.389 6  23295931.172                    23295940.730
 114528719.889 7  89243244.287 7  21794072.398                    21794082.094
 11  8 14  0 52  0.0000000  0  9G04G09G02G30G25G10G12G17G05
 115020006.036 8  89626094.75545  21887559.570                    21887569.184
 125530129.671 7  97815743.11144  23887599.789                    23887613.027
 108283726.979 8  84377070.54146  20605688.805                    20605695.152
 120840516.685 7  94161498.68344  22995187.305                    22995197.715
 125385128.772 7  97702745.085 6  23860000.078                    23860013.242
 109833734.938 8  85584864.27446  20900647.594                    20900656.922
 111763172.151 8  87088253.305 7  21267824.852                    21267833.313
 122476196.100 7  95436013.805 6  23306443.078                    23306453.035
 114442509.689 7  89176067.582 7  21777667.141                    21777676.633
 11  8 14  0 52 30.0000000  0  9G04G09G02G30G25G10G12G17G05
 115098514.766 7  89687270.36245  21902499.617                    21902509.211
 125611187.882 6  97878905.24544  23903024.469                    23903037.824
 108287324.088 7  84379873.49746  20606373.367                    20606379.816
 120751956.416 6  94092490.71944  22978334.727                    22978345.477
 125288388.723 7  97627363.346 6  23841590.906                    23841604.109
 109841226.916 8  85590702.20946  20902073.125                    20902082.066
 111710187.375 8  87046966.484 7  21257742.555                    21257750.848
 122531599.755 7  95479185.464 6  23316985.563                    23316995.758
 114356637.699 7  89109154.421 7  21761326.438                    21761335.754
 11  8 14  0 53  0.0000000  0  9G04G09G02G30G25G10G12G17G05
 115177138.092 8  89748535.27245  21917461.344                    21917470.984
 125692362.102 7  97942157.77344  23918471.883                    23918485.148
 108291197.974 8  84382892.11446  20607110.859                    20607117.047
 120663746.741 6  94023755.95444  22961549.031                    22961559.406
 125191861.267 7  97552147.251 6  23823223.250                    23823234.930
 109849351.198 8  85597032.84846  20903619.211                    20903628.301
 111657666.535 8  87006041.171 7  21247747.641                    21247756.059
 122587167.059 6  95522484.632 6  23327559.313                    23327570.738
 114271107.165 7  89042507.319 7  21745050.031                    21745060.293
 11  8 14  0 53 30.0000000  0  9G04G09G02G30G25G10G12G17G05
 115255873.740 8  89809887.69945  21932443.875                    21932453.625
 125773648.802 7  98005497.94344  23933940.023                    23933953.570
 108295346.961 8  84386125.11446  20607899.695                    20607906.645
 120575890.186 6  93955296.34644  22944830.500                    22944840.723
 125095548.598 7  97477098.498 6  23804894.586                    23804907.207
 109858107.210 8  85603855.74646  20905285.336                    20905294.363
 111605611.560 8  86965478.863 7  21237842.094                    21237850.563
 122642898.593 6  95565911.773 6  23338164.336                    23338175.352
 114185920.493 7  88976128.175 7  21728839.695                    21728849.129
 11  8 14  0 54  0.0000000  0  9G04G09G02G30G25G10G12G17G05
 115334719.919 7  89871326.26445  21947448.070                    21947457.531
 125855044.628 7  98068923.12544  23949429.039                    23949442.777
 108299769.695 8  84389571.41746  20608741.539                    20608748.020
 120488389.401 6  93887113.97344  22928179.547                    22928189.500
 124999453.336 7  97402219.158 6  23786608.141                    23786620.473
 109867494.701 8  85611170.68746  20907071.719                    20907080.840
 111554024.176 8  86925280.914 7  21228025.227                    21228034.090
 122698794.624 7  95609467.134 6  23348801.773                    23348811.797
 114101080.525 7  88910019.174 7  21712695.531                    21712704.762
 11  8 14  0 54 30.0000000  0  9G04G09G02G30G25G10G12G17G05
 115413674.843 7  89932849.55745  21962472.469                    21962482.004
 125936546.184 7  98132430.73444  23964938.625                    23964951.309
 108304465.399 8  84393230.42146  20609635.023                    20609641.840
 120401247.480 6  93819211.23544  22911597.094                    22911607.023
 124903578.443 7  97327511.524 6  23768364.406                    23768377.262
 109877513.886 8  85618977.87046  20908978.375                    20908986.781
 111502906.861 8  86885449.245 7  21218298.055                    21218306.660
 122754855.962 7  95653151.285 6  23359470.367                    23359479.984
 114016590.009 7  88844182.476 7  21696617.063                    21696626.859
 11  8 14  0 55  0.0000000  0  9G04G09G02G30G25G10G12G17G05
 115492736.641 7  89994456.12945  21977517.578                    21977526.598
 126018150.322 7  98196018.31543  23980467.773                    23980480.332
 108309433.017 8  84397101.30946  20610580.406                    20610587.137
 120314467.158 6  93751590.28344  22895083.086                    22895093.445
 124807926.600 7  97252977.654 6  23750162.297                    23750174.930
 109888164.682 8  85627277.21046  20911005.016                    20911013.602
 111452261.782 8  86845985.563 7  21208660.438                    21208669.465
 122811082.958 6  95696964.525 6  23370169.164                    23370179.332
 113932451.797 7  88778620.311 7  21680606.273                    21680615.871
 11  8 14  0 55 30.0000000  0  9G04G09G02G30G25G10G12G17G05
 115571903.596 7  90056144.63945  21992582.891                    21992592.043
 126099853.788 7  98259683.23343  23996014.313                    23996028.438
 108314671.199 8  84401183.02546  20611577.656                    20611584.203
 120228051.272 7  93684253.29144  22878639.234                    22878649.137
 124712500.409 7  97178619.668 6  23732002.727                    23732015.918
 109899446.428 8  85636068.20046  20913151.609                    20913160.828
 111402091.131 8  86806891.557 7  21199113.461                    21199121.801
 122867475.797 7  95740906.987 6  23380900.578                    23380909.828
 113848668.722 8  88713334.868 7  21664662.680                    21664672.043
 11  8 14  0 56  0.0000000  0  9G04G09G02G30G25G10G12G17G05
 115651173.660 8  90117913.48445  22007667.242                    22007676.160
 126181652.967 6  98323422.79143  24011580.945                    24011594.055
 108320178.552 8  84405474.48746  20612625.484                    20612631.977
 120142002.201 7  93617202.13344  22862263.820                    22862274.301
 124617302.233 7  97104439.326 6  23713887.258                    23713899.840
 109911358.772 8  85645350.56746  20915418.805                    20915427.723
 111352396.390 8  86768168.393 7  21189656.703                    21189665.109
 122924035.204 7  95784979.236 6  23391663.477                    23391673.234
 113765243.249 8  88648328.067 7  21648786.961                    21648796.781
 11  8 14  0 56 30.0000000  0  9G04G09G02G30G25G10G12G17G05
 115730545.012 8  90179761.26745  22022771.492                    22022780.496
 126263544.406 6  98387234.21643  24027164.016                    24027178.004
 108325954.143 8  84409974.96546  20613724.391                    20613730.922
 120056322.875 6  93550439.11644  22845959.523                    22845970.148
 124522334.889 7  97030438.818 6  23695816.219                    23695827.586
 109923901.503 8  85655124.13946  20917805.633                    20917814.816
 111303179.829 7  86729817.838 7  21180290.945                    21180299.484
 122980761.666 6  95829181.664 6  23402458.609                    23402467.637
 113682178.200 7  88583602.127 7  21632980.680                    21632989.863
 11  8 14  0 57  0.0000000  0  9G04G09G02G30G25G10G12G17G05
 115810015.988 8  90241686.66945  22037893.930                    22037903.348
 126345525.092 6  98451115.17343  24042764.711                    24042778.207
 108331996.886 8  84414683.61946  20614874.164                    20614880.688
 119971016.206 7  93483966.47544  22829726.703                    22829736.605
 124427601.256 7  96956620.426 6  23677789.070                    23677800.668
 109937074.535 8  85665388.86246  20920312.023                    20920321.137
 111254443.797 8  86691841.712 7  21171016.672                    21171025.445
 123037655.835 7  95873514.769 6  23413284.867                    23413294.293
 113599476.459 8  88519159.285 7  21617242.930                    21617252.090
 11  8 14  0 57 30.0000000  0  9G04G09G02G30G25G10G12G17G05
 115889584.716 8  90303688.26645  22053035.609                    22053045.109
 126427591.562 6  98515063.00243  24058382.086                    24058395.023
 108338305.131 8  84419599.16046  20616074.664                    20616081.211
 119886084.691 6  93417786.15044  22813564.969                    22813574.531
 124333103.763 7  96882986.058 6  23659806.109                    23659819.047
 109950876.821 8  85676143.90645  20922938.641                    20922947.898
 111206190.036 8  86654241.393 7  21161834.789                    21161842.715
 123094717.605 7  95917978.489 6  23424144.219                    23424152.801
 113517140.560 7  88455001.512 7  21601574.664                    21601583.914
 11  8 14  0 58  0.0000000  0  9G04G09G02G30G25G10G12G17G05
 115969249.426 7  90365764.64745  22068195.047                    22068204.824
 126509740.536 6  98579075.12343  24074015.086                    24074027.531
 108344878.080 8  84424720.95446  20617325.383                    20617332.125
 119801531.241 7  93351900.43144  22797474.813                    22797484.137
 124238845.169 7  96809537.877 7  23641869.672                    23641882.477
 109965308.525 8  85687389.40446  20925684.883                    20925693.699
 111158420.660 8  86617018.526 7  21152744.227                    21152753.113
 123151947.862 7  95962573.532 6  23435034.313                    23435042.730
 113435173.046 8  88391130.787 7  21585976.930                    21585986.164
 11  8 14  0 58 30.0000000  0  9G04G09G02G30G25G10G12G17G05
 116049008.348 7  90427914.43845  22083372.836                    22083382.449
 126591968.736 6  98643148.99843  24089662.094                    24089675.004
 108351714.474 8  84430048.04346  20618626.398                    20618632.977
 119717358.615 7  93286311.44744  22781456.375                    22781466.375
 124144828.213 7  96736277.971 6  23623977.930                    23623991.094
 109980369.258 8  85699125.05746  20928551.031                    20928559.570
 111111137.546 8  86580174.568 7  21143746.750                    21143755.363
 123209346.990 7  96007300.103 6  23445957.023                    23445967.375
 113353576.617 8  88327549.220 7  21570449.500                    21570458.898
 11  8 14  0 59  0.0000000  0  9G04G09G02G30G25G10G12G17G05
 116128859.780 7  90490136.32445  22098567.703                    22098577.566
 126674272.878 6  98707282.00443  24105323.922                    24105336.965
 108358812.906 8  84435579.30346  20619977.383                    20619983.754
 119633569.462 7  93221021.29044  22765511.977                    22765522.188
 124051055.488 7  96663208.357 6  23606134.414                    23606146.371
 109996058.516 7  85711350.46846  20931536.563                    20931545.367
 111064342.624 8  86543711.018 7  21134841.852                    21134850.637
 123266915.173 6  96052158.417 6  23456911.813                    23456921.629
 113272354.163 8  88264259.056 7  21554993.328                    21555002.762
 11  8 14  0 59 30.0000000  0  9G04G09G02G30G25G10G12G17G05
 116208802.018 7  90552428.97745  22113780.469                    22113789.785
 126756649.739 6  98771471.66443  24120999.078                    24121012.836
 108366172.568 8  84441314.12246  20621377.336                    20621384.336
 119550166.520 7  93156032.04644  22749641.102                    22749651.313
 123957529.731 7  96590331.204 6  23588336.750                    23588348.996
 110012375.549 8  85724065.04846  20934641.375                    20934650.402
 111018038.233 8  86507629.713 7  21126030.531                    21126039.090
 123324653.029 7  96097148.971 6  23467898.766                    23467909.293
 113191508.336 8  88201262.378 7  21539608.922                    21539618.508
 11  8 14  1  0  0.0000000  0  9G04G09G02G30G25G10G12G17G05
 116288832.986 7  90614790.75145  22129009.945                    22129019.184
 126839095.831 6  98835715.25243  24136688.750                    24136702.355
 108373792.053 8  84447251.39846  20622827.461                    20622834.113
 119467152.593 7  93091345.94344  22733844.039                    22733854.359
 123864253.690 7  96517648.634 7  23570586.352                    23570599.410
 110029319.905 8  85737268.46446  20937865.797                    20937874.602
 110972226.167 8  86471932.027 7  21117312.742                    21117320.992
 123382561.253 7  96142272.249 6  23478918.586                    23478928.242
 113111042.008 8  88138561.410 7  21524296.781                    21524306.285
 11  8 14  1  0 30.0000000  0  9G04G09G02G30G25G10G12G17G05
 116368951.175 7  90677220.50545  22144255.766                    22144264.883
 126921608.030 7  98900010.34544  24152391.352                    24152403.645
 108381670.535 8  84453390.49246  20624326.734                    20624333.238
 119384530.458 7  93026965.13144  22718121.734                    22718131.746
 123771229.982 7  96445162.707 7  23552884.508                    23552897.684
 110046890.915 8  85750960.17946  20941209.461                    20941218.340
 110926908.352 8  86436619.489 7  21108689.102                    21108697.363
 123440640.008 6  96187528.423 6  23489971.008                    23489980.445
 113030957.614 8  88076158.046 7  21509057.031                    21509066.344
 11  8 14  1  1  0.0000000  0  9G04G09G02G30G25G10G12G17G05
 116449155.075 7  90739717.04145  22159518.336                    22159527.250
 127004182.984 7  98964354.35944  24168105.070                    24168117.414
 108389806.428 8  84459730.16846  20625874.656                    20625881.730
 119302302.717 7  92962891.62944  22702473.813                    22702484.082
 123678461.279 7  96372875.477 7  23535231.828                    23535244.266
 110065088.385 8  85765140.04646  20944672.461                    20944680.969
 110882086.746 8  86401693.603 7  21100159.672                    21100167.805
 123498889.742 6  96232917.822 6  23501054.852                    23501064.723
 112951257.783 8  88014054.349 7  21493890.602                    21493900.293
 11  8 14  1  1 30.0000000  0  9G04G09G02G30G25G10G12G17G05
 116529442.578 7  90802278.70445  22174796.164                    22174805.863
 127086817.471 7  99028744.74644  24183829.094                    24183842.656
 108398198.626 8  84466269.55946  20627471.758                    20627478.371
 119220471.950 7  92899127.45844  22686901.992                    22686911.984
 123585950.179 7  96300788.970 7  23517627.523                    23517639.820
 110083911.314 8  85779807.26646  20948254.148                    20948263.355
 110837763.128 8  86367155.762 7  21091725.211                    21091733.523
 123557310.738 7  96278440.674 6  23512172.570                    23512181.566
 112871945.083 8  87952252.308 7  21478797.750                    21478807.113
 11  8 14  1  2  0.0000000  0  9G04G09G02G30G25G10G12G17G05
 116609812.055 7  90864904.25045  22190090.305                    22190099.996
 127169508.139 7  99093178.86544  24199564.656                    24199578.266
 108406845.816 8  84473007.64246  20629117.203                    20629123.969
 119139040.927 7  92835674.75144  22671406.242                    22671416.234
 123493699.360 7  96228905.264 7  23500072.586                    23500085.141
 110103359.162 8  85794961.45546  20951955.039                    20951964.293
 110793939.455 8  86333007.489 7  21083385.563                    21083394.043
 123615903.603 6  96324097.432 6  23523321.742                    23523332.230
 112793022.156 8  87890753.987 7  21463779.469                    21463788.719
 11  8 14  1  2 30.0000000  0  9G04G09G02G30G25G10G12G17G05
 116690261.723 7  90927592.31144  22205399.266                    22205408.785
 127252251.706 7  99157654.17644  24215310.156                    24215324.285
 108415746.812 8  84479943.49246  20630810.891                    20630817.902
 119058012.336 7  92772535.63144  22655987.008                    22655997.328
 123401711.501 7  96157226.488 6  23482567.414                    23482579.645
 110123431.468 8  85810602.23146  20955774.602                    20955783.270
 110750617.528 8  86299250.184 7  21075141.836                    21075150.406
 123674668.703 6  96369888.421 6  23534504.375                    23534513.914
 112714491.623 8  87829561.430 7  21448835.234                    21448844.387
 11  8 14  1  3  0.0000000  0  9G04G09G02G30G25G10G12G17G05
 116770790.477 7  90990341.97445  22220723.594                    22220733.227
 127335045.161 7  99222168.36544  24231065.688                    24231079.613
 108424900.897 8  84487076.55346  20632553.359                    20632559.934
 118977389.143 7  92709712.41244  22640645.039                    22640655.211
 123309989.629 7  96085754.968 7  23465113.719                    23465126.164
 110144127.709 8  85826729.19146  20959713.102                    20959722.035
 110707799.515 8  86265885.542 7  21066994.008                    21067002.070
 123733606.578 6  96415814.023 6  23545719.828                    23545730.039
 112636356.359 8  87768676.875 7  21433966.617                    21433975.820
 11  8 14  1  3 30.0000000  0  9G04G09G02G30G25G10G12G17G05
 116851396.165 7  91053151.60645  22236062.180                    22236071.684
 127417884.835 7  99286718.53944  24246829.680                    24246843.328
 108434306.500 8  84494405.60346  20634342.906                    20634349.496
 118897173.705 7  92647206.93344  22625380.563                    22625390.395
 123218536.061 7  96014492.516 7  23447711.086                    23447723.172
 110165446.871 8  85843341.53346  20963769.977                    20963778.445
 110665486.712 8  86232914.559 7  21058942.227                    21058950.289
 123792717.614 6  96461874.531 6  23556968.086                    23556979.340
 112558618.623 7  87708102.073 7  21419173.766                    21419182.707
 11  8 14  1  4  0.0000000  0  9G04G09G02G30G25G10G12G17G05
 116932077.202 7  91116019.93745  22251415.172                    22251425.363
 127500767.856 7  99351302.46744  24262602.344                    24262615.621
 108443962.604 8  84501929.84146  20636180.297                    20636187.223
 118817368.863 7  92585021.37744  22610194.344                    22610204.066
 123127353.664 7  95943441.369 7  23430358.719                    23430371.266
 110187388.263 8  85860438.73446  20967945.391                    20967954.129
 110623681.313 8  86200338.963 7  21050986.500                    21050994.977
 123852002.053 6  96508070.192 6  23568250.031                    23568260.121
 112481280.972 8  87647839.038 7  21404456.328                    21404466.035
 11  8 14  1  4 30.0000000  0  9G04G09G02G30G25G10G12G17G05
 117012831.954 7  91178945.71945  22266782.492                    22266791.953
 127583690.931 7  99415917.57844  24278381.813                    24278395.430
 108453867.926 8  84509648.28646  20638065.141                    20638071.629
 118737977.106 7  92523157.72244  22595086.297                    22595096.363
 123036444.926 7  95872603.458 6  23413059.148                    23413071.410
 110209950.935 8  85878020.04545  20972238.883                    20972247.762
 110582385.189 8  86168160.184 7  21043127.695                    21043136.125
 123911460.472 7  96554401.443 6  23579565.086                    23579574.488
 112404346.202 8  87587889.928 7  21389816.398                    21389825.352
 11  8 14  1  5  0.0000000  0  9G04G09G02G30G25G10G12G17G05
 117093658.435 7  91241927.37945  22282163.141                    22282172.363
 127666650.512 6  99480561.14344  24294168.469                    24294182.348
 108464020.686 8  84517559.52646  20639997.008                    20640003.809
 118659000.814 7  92461617.78745  22580057.477                    22580067.008
 122945812.379 7  95801980.743 6  23395812.828                    23395824.363
 110233134.110 8  85896084.87246  20976650.148                    20976659.242
 110541599.739 8  86136379.332 7  21035366.844                    21035375.281
 123971093.090 7  96600868.413 6  23590912.242                    23590922.734
 112327816.599 8  87528256.532 7  21375253.250                    21375262.309
 11  8 14  1  5 30.0000000  0  9G04G09G02G30G25G10G12G17G05
 117174555.504 7  91304964.04145  22297557.555                    22297566.797
 127749643.969 6  99545231.07044  24309962.320                    24309975.902
 108474420.848 8  84525663.56246  20641976.266                    20641983.188
 118580443.453 7  92400404.30545  22565108.492                    22565118.410
 122855459.313 7  95731575.798 6  23378619.117                    23378631.125
 110256937.551 8  85914633.00845  20981180.180                    20981188.926
 110501327.387 8  86104998.288 7  21027703.500                    21027711.203
 124030900.250 7  96647471.394 6  23602293.930                    23602303.281
 112251695.160 8  87468941.190 7  21360767.695                    21360777.016
 11  8 14  1  6  0.0000000  0  9G04G09G02G30G25G10G12G17G05
 117255521.496 7  91368054.41145  22312964.516                    22312973.754
 127832667.636 6  99609924.50444  24325761.500                    24325775.141
 108485066.569 8  84533958.93246  20644002.219                    20644009.164
 118502307.196 7  92339518.96145  22550239.914                    22550249.293
 122765388.136 7  95661390.538 6  23361478.945                    23361491.582
 110281359.802 8  85933663.34146  20985827.539                    20985836.293
 110461569.567 8  86074018.180 7  21020137.953                    21020146.215
 124090882.426 7  96694210.740 6  23613707.742                    23613717.648
 112175984.132 8  87409945.632 7  21346360.508                    21346369.598
 11  8 14  1  6 30.0000000  0  9G04G09G02G30G25G10G12G17G05
 117336554.617 7  91431197.10045  22328384.906                    22328394.273
 127915718.301 6  99674638.98443  24341565.391                    24341579.664
 108495956.638 8  84542444.70446  20646074.367                    20646081.168
 118424594.526 7  92278963.68445  22535451.703                    22535461.266
 122675601.324 7  95591426.884 6  23344392.766                    23344405.219
 110306400.181 8  85953175.32646  20990592.578                    20990601.398
 110422327.729 8  86043440.129 7  21012670.195                    21012678.465
 124151040.123 7  96741086.865 6  23625155.664                    23625166.117
 112100686.012 8  87351271.837 7  21332031.461                    21332040.750
 11  8 14  1  7  0.0000000  0  9G04G09G02G30G25G10G12G17G05
 117417653.303 7  91494390.87145  22343817.375                    22343826.527
 127998793.044 6  99739372.21243  24357374.055                    24357388.703
 108507089.950 8  84551120.01346  20648193.031                    20648199.449
 118347308.098 7  92218740.53944  22520744.188                    22520754.156
 122586101.619 7  95521686.913 6  23327361.773                    23327373.988
 110332057.703 8  85973168.21846  20995475.023                    20995483.348
 110383603.569 8  86013265.462 7  21005301.164                    21005310.035
 124211373.467 7  96788099.832 6  23636637.320                    23636645.988
 112025803.120 8  87292921.584 7  21317781.938                    21317791.133
 11  8 14  1  7 30.0000000  0  9G04G09G02G30G25G10G12G17G05
 117498815.744 7  91557634.31744  22359262.008                    22359271.805
 128081888.517 6  99804121.59243  24373185.523                    24373201.199
 108518465.095 8  84559983.77646  20650357.570                    20650364.520
 118270450.492 7  92158851.53545  22506118.695                    22506128.461
 122496891.669 7  95452172.712 6  23310386.375                    23310397.711
 110358331.173 8  85993641.05846  21000474.383                    21000483.449
 110345399.209 8  85983495.830 7  20998031.461                    20998039.625
 124271883.057 7  96835250.150 6  23648151.664                    23648160.445
 111951338.057 8  87234896.906 7  21303611.406                    21303620.914
 11  8 14  1  8  0.0000000  0  9G04G09G02G30G25G10G12G17G05
 117580040.624 7  91620926.42745  22374719.328                    22374728.070
 128165001.704 5  99868884.77342  24389001.984                    24389017.785
 108530080.987 8  84569035.13546  20652568.438                    20652574.840
 118194024.340 7  92099298.73445  22491575.586                    22491584.625
 122407974.211 7  95382886.424 6  23293465.891                    23293477.148
 110385219.841 8  86014593.27646  21005591.422                    21005600.336
 110307716.467 8  85954132.656 7  20990860.578                    20990868.598
 124332568.882 7  96882537.829 6  23659699.164                    23659708.520
 111877293.294 8  87177199.748 7  21289520.875                    21289530.613
 11  8 14  1  8 30.0000000  0  9G04G09G02G30G25G10G12G17G05
 117661326.158 7  91684265.78645  22390187.078                    22390196.535
 128248129.279 6  99933659.17742  24404823.133                    24404836.297
 108541936.363 8  84578273.10346  20654824.188                    20654830.512
 118118032.078 7  92040084.01945  22477114.188                    22477124.012
 122319351.770 7  95313830.036 6  23276600.547                    23276613.156
 110412722.720 8  86036024.09846  21010824.656                    21010834.340
 110270556.326 8  85925176.694 7  20983789.133                    20983797.371
 124393431.335 7  96929963.091 6  23671280.813                    23671289.910
 111803671.300 8  87119832.011 7  21275511.297                    21275520.691
 11  8 14  1  9  0.0000000  0  9G04G09G02G30G25G10G12G17G05
 117742670.670 7  91747651.11145  22405666.125                    22405675.473
 128331267.708 5  99998442.11242  24420643.094                    24420657.539
 108554029.944 8  84587696.68246  20657125.445                    20657131.832
 118042476.141 7  91981209.29545  22462736.922                    22462746.480
 122231026.883 7  95245005.518 6  23259793.031                    23259805.508
 110440838.553 8  86057932.54946  21016175.367                    21016183.559
 110233920.461 8  85896629.267 7  20976817.805                    20976825.980
 124454470.823 6  96977526.326 6  23682896.445                    23682905.270
 111730474.410 8  87062795.524 7  21261582.164                    21261591.563
 11  8 14  1  9 30.0000000  0  9G04G09G02G30G25G10G12G17G05
 117824072.800 7  91811081.32944  22421156.602                    22421165.871
 128414414.309 5 100063231.40842  24436464.680                    24436479.672
 108566360.791 8  84597305.15446  20659471.852                    20659478.469
 117967359.540 7  91922676.89245  22448442.336                    22448452.000
 122143002.622 7  95176415.229 6  23243042.805                    23243054.938
 110469566.766 7  86080318.17846  21021641.844                    21021651.035
 110197810.925 8  85868491.962 7  20969946.242                    20969954.184
 124515687.738 6  97025227.789 6  23694545.867                    23694554.738
 111657705.312 8  87006092.382 7  21247734.789                    21247743.824
 11  8 14  1 10  0.0000000  0  9G04G09G02G30G25G10G12G17G05
 117905531.138 7  91874555.34644  22436657.500                    22436666.730
 128497565.942 5 100128024.65842  24452289.008                    24452303.195
 108578927.837 8  84607097.66846  20661863.188                    20661869.957
 117892684.652 7  91864488.68345  22434232.102                    22434242.043
 122055281.529 7  95108061.188 6  23226350.102                    23226361.973
 110498906.203 8  86103180.09146  21027224.836                    21027233.879
 110162229.217 8  85840765.959 7  20963175.008                    20963183.281
 124577082.568 6  97073067.915 6  23706228.109                    23706237.031
 111585366.173 8  86949724.275 7  21233968.820                    21233978.328
 11  8 14  1 10 30.0000000  0  9G04G09G02G30G25G10G12G17G05
 117987044.161 7  91938071.98944  22452168.539                    22452178.668
 128580719.176 6 100192819.15342  24468112.469                    24468127.008
 108591729.739 8  84617073.18846  20664299.359                    20664305.914
 117818454.085 7  91806646.69045  22420106.594                    22420115.922
 121967866.262 7  95039945.443 6  23209715.297                    23209727.293
 110528855.393 8  86126517.13846  21032924.383                    21032933.504
 110127177.094 8  85813452.609 7  20956504.867                    20956513.207
 124638655.502 6  97121046.784 6  23717945.375                    23717955.801
 111513459.554 8  86893693.194 7  21220285.891                    21220294.582
 11  8 14  1 11  0.0000000  0  9G04G09G02G30G25G10G12G17G05
 118068609.928 7  92001629.74244  22467690.000                    22467699.559
 128663870.846 6 100257612.44843  24483935.727                    24483950.848
 108604764.952 8  84627230.51546  20666780.031                    20666786.676
 117744670.049 7  91749152.63145  22406066.336                    22406075.930
 121880759.228 7  94972069.899 6  23193138.953                    23193151.293
 110559413.164 8  86150328.39946  21038739.125                    21038747.965
 110092655.570 8  85786552.729 7  20949935.742                    20949943.703
 124700406.791 6  97169164.635 6  23729695.992                    23729706.809
 111441987.653 8  86838000.851 7  21206684.773                    21206694.441
 11  8 14  1 11 30.0000000  0  9G04G09G02G30G25G10G12G17G05
 118150227.051 7  92065227.52345  22483221.594                    22483230.754
 128747017.891 6 100322402.13843  24499758.516                    24499772.887
 108618032.291 8  84637568.71046  20669304.883                    20669311.102
 117671335.061 7  91692008.47345  22392110.586                    22392120.555
 121793963.146 7  94904436.654 6  23176622.164                    23176634.398
 110590578.350 7  86174612.98546  21044669.438                    21044678.684
 110058666.588 8  85760067.813 7  20943468.039                    20943476.102
 124762336.505 6  97217421.541 6  23741480.313                    23741490.914
 111370952.999 8  86782649.228 7  21193167.367                    21193176.758
 11  8 14  1 12  0.0000000  0  9G04G09G02G30G25G10G12G17G05
 118231894.105 7  92128864.20945  22498762.594                    22498771.914
 128830157.431 6 100387186.02643  24515580.141                    24515594.180
 108631530.963 8  84648087.17046  20671873.414                    20671879.727
 117598451.946 7  91635216.42045  22378241.602                    22378251.641
 121707480.900 7  94837047.948 6  23160165.500                    23160178.051
 110622350.083 8  86199370.20446  21050715.547                    21050724.547
 110025211.617 8  85733999.027 7  20937101.680                    20937110.125
 124824445.551 6  97265818.186 6  23753299.828                    23753309.863
 111300358.033 8  86727640.205 7  21179733.656                    21179742.938
 11  8 14  1 12 30.0000000  0  9G04G09G02G30G25G10G12G17G05
 118313610.039 7  92192538.99144  22514312.648                    22514322.492
 128913286.283 6 100451961.58643  24531398.539                    24531413.141
 108645259.658 8  84658784.86346  20674485.969                    20674492.305
 117526023.157 7  91578778.39845  22364458.953                    22364469.242
 121621315.135 7  94769905.852 6  23143768.680                    23143780.320
 110654726.992 8  86224598.97846  21056876.844                    21056885.500
 109992292.434 8  85708347.736 7  20930837.406                    20930845.648
 124886733.685 6  97314354.369 6  23765152.297                    23765163.133
 111230205.426 8  86672975.877 7  21166384.219                    21166393.230
 11  8 14  1 13  0.0000000  0  9G04G09G02G30G25G10G12G17G05
 118395373.018 7  92256250.41245  22529871.219                    22529880.809
 128996401.459 6 100516726.46644  24547215.016                    24547229.754
 108659217.370 8  84669661.00646  20677142.195                    20677148.180
 117454051.212 7  91522696.34945  22350763.047                    22350772.383
 121535468.543 7  94703012.461 6  23127432.391                    23127444.195
 110687708.068 8  86250298.54946  21063152.727                    21063161.855
 109959910.335 8  85683114.953 7  20924675.063                    20924683.254
 124949201.395 6  97363030.506 6  23777040.641                    23777051.266
 111160496.895 8  86618657.587 7  21153119.000                    21153128.094
 11  8 14  1 13 30.0000000  0  9G04G09G02G30G25G10G12G17G05
 118477181.370 7  92319997.19844  22545438.813                    22545448.141
 129079499.666 6 100581478.13043  24563027.969                    24563043.352
 108673402.590 8  84680714.42846  20679841.016                    20679847.461
 117382538.423 7  91466972.10645  22337154.266                    22337164.176
 121449943.534 7  94636369.644 6  23111157.117                    23111169.230
 110721291.856 8  86276467.75946  21069543.070                    21069551.961
 109928066.666 8  85658301.733 7  20918615.289                    20918623.594
 125011849.153 6  97411846.918 6  23788961.539                    23788971.754
 111091234.885 8  86564687.238 7  21139939.023                    21139947.879
 11  8 14  1 14  0.0000000  0  9G04G09G02G30G25G10G12G17G05
 118559033.908 7  92383778.42144  22561015.289                    22561024.527
 129162577.963 6 100646214.24444  24578837.570                    24578853.125
 108687814.527 8  84691944.51446  20682583.586                    20682590.461
 117311487.398 7  91411607.66845  22323633.938                    22323644.230
 121364742.937 7  94569979.609 7  23094944.516                    23094957.004
 110755477.155 8  86303105.68146  21076048.984                    21076057.379
 109896763.256 8  85633909.492 7  20912658.711                    20912667.082
 125074677.080 6  97460803.755 6  23800917.375                    23800928.039
 111022422.014 8  86511066.862 7  21126844.289                    21126853.102
 11  8 14  1 14 30.0000000  0  9G04G09G02G30G25G10G12G17G05
 118640928.980 7  92447592.75144  22576598.820                    22576608.668
 129245633.070 6 100710932.30443  24594643.063                    24594657.832
 108702451.257 8  84703349.76046  20685369.320                    20685375.551
 117240900.351 7  91356604.78545  22310201.695                    22310211.621
 121279869.229 7  94503844.297 7  23078793.039                    23078805.625
 110790262.711 8  86330211.33845  21082668.055                    21082676.426
 109866001.080 8  85609939.001 7  20906804.891                    20906813.184
 125137685.298 6  97509901.046 6  23812907.742                    23812917.965
 110954060.174 8  86457797.941 7  21113835.438                    21113844.188
 11  8 14  1 15  0.0000000  0  9G04G09G02G30G25G10G12G17G05
 118722865.216 7  92511439.16644  22592190.594                    22592200.613
 129328661.867 7 100775629.87144  24610443.195                    24610457.551
 108717311.848 8  84714929.45146  20688197.000                    20688203.586
 117170779.824 7  91301965.43745  22296858.055                    22296868.352
 121195325.027 7  94437965.736 6  23062705.328                    23062717.359
 110825647.056 7  86357783.57746  21089401.547                    21089410.141
 109835781.568 8  85586391.358 7  20901054.047                    20901062.430
 125200874.324 6  97559139.262 6  23824932.875                    23824941.941
 110886151.725 8  86404882.310 7  21100912.641                    21100921.770
 11  8 14  1 15 30.0000000  0  9G04G09G02G30G25G10G12G17G05
 118804841.310 7  92575316.65044  22607789.914                    22607800.359
 129411661.452 7 100840304.68643  24626237.266                    24626252.156
 108732395.733 8  84726683.13346  20691066.656                    20691073.953
 117101128.466 7  91247691.68645  22283604.078                    22283614.191
 121111113.341 7  94372346.287 7  23046679.773                    23046692.152
 110861629.131 8  86385821.58046  21096248.563                    21096257.500
 109806106.277 8  85563267.778 7  20895406.891                    20895415.613
 125264244.457 6  97608518.620 6  23836991.242                    23837001.324
 110818699.528 8  86352322.204 7  21088076.844                    21088086.031
 11  8 14  1 16  0.0000000  0  9G04G09G02G30G25G10G12G17G05
 118886855.722 7  92639223.98144  22623397.086                    22623407.430
 129494628.548 6 100904954.14643  24642024.930                    24642040.930
 108747701.110 8  84738609.40346  20693980.039                    20693986.465
 117031948.374 7  91193785.16245  22270439.328                    22270449.613
 121027236.419 7  94306987.700 7  23030719.164                    23030730.895
 110898207.126 8  86414323.94345  21103209.023                    21103218.469
 109776976.460 8  85540569.241 7  20889863.664                    20889871.977
 125327795.832 6  97658039.202 6  23849084.852                    23849094.648
 110751705.075 8  86300118.783 7  21075328.281                    21075337.203
 11  8 14  1 16 30.0000000  0  9G04G09G02G30G25G10G12G17G05
 118968906.979 7  92703160.02945  22639010.883                    22639021.113
 129577560.205 6 100969575.96843  24657806.727                    24657822.098
 108763227.000 8  84750707.50346  20696934.281                    20696940.820
 116963242.047 7  91140247.81245  22257365.547                    22257374.895
 120943696.938 7  94241892.024 7  23014822.227                    23014833.652
 110935379.818 8  86443289.69146  21110282.930                    21110291.637
 109748393.775 8  85518297.047 7  20884424.602                    20884432.926
 125391529.013 6  97707701.432 6  23861213.320                    23861223.148
 110685170.924 8  86248274.037 7  21062667.313                    21062676.438
 11  8 14  1 17  0.0000000  0  9G04G09G02G30G25G10G12G17G05
 119050993.874 7  92767123.86344  22654631.570                    22654641.473
 129660453.700 6 101034168.06143  24673581.328                    24673596.648
 108778972.523 8  84762976.74446  20699930.430                    20699937.133
 116895012.051 7  91087081.63745  22244381.273                    22244390.543
 120860497.780 7  94177061.535 6  22998989.445                    22999001.598
 110973145.952 8  86472717.86946  21117469.828                    21117478.387
 109720359.518 8  85496452.189 7  20879090.125                    20879098.457
 125455443.774 6  97757505.130 6  23873375.625                    23873386.305
 110619099.341 8  86196789.731 7  21050094.156                    21050103.184
 11  8 14  1 17 30.0000000  0  9G04G09G02G30G25G10G12G17G05
 119133114.848 7  92831114.22544  22670258.688                    22670268.629
 129743305.805 6 101098727.90643  24689348.242                    24689363.230
 108794936.269 8  84775416.03746  20702968.469                    20702974.723
 116827260.432 7  91034288.22745  22231488.438                    22231497.855
 120777641.271 7  94112498.055 7  22983222.500                    22983234.414
 111011503.865 8  86502607.16946  21124769.078                    21124777.824
 109692874.563 8  85475035.352 7  20873859.773                    20873868.090
 125519540.491 6  97807450.616 6  23885572.336                    23885583.770
 110553492.222 8  86145667.343 7  21037609.422                    21037618.602
 11  8 14  1 18  0.0000000  0  9G04G09G02G30G25G10G12G17G05
 119215268.586 7  92895130.11944  22685891.859                    22685901.605
 129826113.583 6 101163253.21743  24705105.352                    24705121.531
 108811116.866 8  84788024.30446  20706047.461                    20706054.234
 116759989.525 7  90981869.41545  22218686.922                    22218696.984
 120695130.008 7  94048203.586 7  22967521.125                    22967532.848
 111050451.867 8  86532956.26846  21132180.461                    21132189.457
 109665940.284 8  85454047.619 7  20868734.125                    20868742.188
 125583819.191 7  97857537.900 6  23897805.070                    23897814.930
 110488351.884 8  86094908.689 7  21025213.516                    21025222.691
 11  8 14  1 18 30.0000000  0  9G04G09G02G30G25G10G12G17G05
 119297453.550 7  92959170.33044  22701531.203                    22701540.707
 129908873.643 6 101227741.32943  24720854.891                    24720869.258
 108827512.876 8  84800800.42246  20709167.445                    20709174.223
 116693201.745 7  90929827.05145  22205978.156                    22205987.953
 120612966.599 7  93984180.173 7  22951886.188                    22951898.020
 111089988.539 8  86563764.09145  21139703.914                    21139712.723
 109639558.064 8  85433490.058 7  20863714.234                    20863722.340
 125648280.338 7  97907767.382 6  23910071.445                    23910081.219
 110423680.244 8  86044515.245 7  21012906.977                    21012916.090
 11  8 14  1 19  0.0000000  0  9G04G09G02G30G25G10G12G17G05
 119379668.583 7  93023233.98144  22717176.156                    22717186.051
 129991583.261 6 101292190.15143  24736594.516                    24736608.902
 108844123.782 8  84813743.99146  20712328.563                    20712334.520
 116626899.607 7  90878163.11345  22193361.109                    22193370.715
 120531153.882 7  93920430.010 7  22936317.633                    22936329.691
 111130112.704 8  86595029.68946  21147339.258                    21147348.191
 109613729.409 8  85413363.840 7  20858798.992                    20858807.199
 125712924.098 6  97958139.125 6  23922372.102                    23922382.723
 110359480.045 8  85994489.165 7  21000689.945                    21000699.402
 11  8 14  1 19 30.0000000  0  9G04G09G02G30G25G10G12G17G05
 119461912.587 7  93087320.20444  22732826.852                    22732836.293
 130074239.376 6 101356597.24343  24752322.719                    24752338.297
 108860948.222 8  84826853.95846  20715530.055                    20715536.652
 116561085.402 7  90826879.39345  22180837.055                    22180846.301
 120449694.383 7  93856955.091 7  22920816.070                    22920828.051
 111170822.506 8  86626751.61846  21155085.914                    21155094.922
 109588455.359 8  85393669.788 7  20853989.602                    20853997.871
 125777750.848 6  98008653.458 6  23934708.016                    23934718.863
 110295753.294 7  85944831.998 7  20988563.406                    20988571.941
 11  8 14  1 20  0.0000000  0  9G04G09G02G30G25G10G12G17G05
 119544183.677 7  93151427.53044  22748482.375                    22748492.191
 130156838.920 6 101420960.29343  24768041.719                    24768057.020
 108877984.645 8  84840129.10046  20718771.664                    20718778.219
 116495760.933 7  90775977.26545  22168405.930                    22168415.242
 120368590.355 7  93793757.164 7  22905382.563                    22905394.301
 111212116.097 8  86658928.45946  21162943.922                    21162952.941
 109563736.766 8  85374408.553 7  20849285.703                    20849293.758
 125842760.396 6  98059310.241 6  23947079.352                    23947089.250
 110232501.510 8  85895544.936 7  20976526.500                    20976535.793
 11  8 14  1 20 30.0000000  0  9G04G09G02G30G25G10G12G17G05
 119626480.826 7  93215555.14144  22764143.578                    22764153.324
 130239379.025 6 101485276.99443  24783748.008                    24783764.234
 108895232.343 8  84853568.87346  20722054.023                    20722060.875
 116430928.968 7  90725458.91845  22156068.734                    22156078.082
 120287844.786 7  93730838.559 7  22890017.250                    22890028.836
 111253992.577 8  86691559.49146  21170912.930                    21170921.902
 109539575.117 8  85355581.296 7  20844687.656                    20844696.148
 125907953.317 6  98110109.900 6  23959485.023                    23959494.824
 110169727.421 8  85846630.101 7  20964581.359                    20964590.359
 11  8 14  1 21  0.0000000  0  9G04G09G02G30G25G10G12G17G05
 119708802.778 7  93279702.09844  22779808.531                    22779818.832
 130321856.708 6 101549545.09343  24799443.234                    24799459.445
 108912690.037 8  84867172.29146  20725376.102                    20725382.625
 116366591.606 7  90675325.96745  22143825.758                    22143835.188
 120207460.129 7  93668201.176 7  22874720.172                    22874732.637
 111296449.836 8  86724643.08545  21178992.203                    21179000.750
 109515971.599 8  85337188.950 7  20840196.047                    20840204.223
 125973329.602 6  98161052.442 6  23971925.297                    23971936.340
 110107432.910 8  85798088.972 7  20952727.188                    20952735.863
 11  8 14  1 21 30.0000000  0  9G04G09G02G30G25G10G12G17G05
 119791148.047 7  93343867.22144  22795478.031                    22795488.328
 130404268.914 6 101613762.09443  24815126.078                    24815141.695
 108930356.218 8  84880938.16946  20728738.063                    20728744.320
 116302751.080 7  90625580.16345  22131677.484                    22131686.996
 120127438.855 7  93605846.963 7  22859493.109                    22859504.891
 111339486.243 8  86758177.96246  21187181.875                    21187190.223
 109492927.119 8  85319232.219 7  20835810.977                    20835819.273
 126038889.430 6  98212137.977 6  23984401.750                    23984411.492
 110045620.028 8  85749923.130 7  20940964.516                    20940973.234
 11  8 14  1 22  0.0000000  0  9G04G09G02G30G25G10G12G17G05
 119873515.392 7  93408049.52344  22811152.078                    22811162.797
 130486612.907 6 101677926.00442  24830796.180                    24830811.621
 108948230.047 8  84894865.84046  20732138.930                    20732145.648
 116239409.581 7  90576223.21545  22119623.664                    22119633.250
 120047783.641 7  93543777.998 7  22844335.359                    22844346.918
 111383100.231 8  86792162.90045  21195481.227                    21195489.910
 109470442.900 8  85301712.051 7  20831532.125                    20831540.332
 126104632.955 6  98263366.700 6  23996910.813                    23996921.305
 109984290.605 8  85702134.007 7  20929293.602                    20929302.488
 11  8 14  1 22 30.0000000  0  9G04G09G02G30G25G10G12G17G05
 119955903.535 7  93472248.03944  22826830.477                    22826840.254
 130568885.501 6 101742034.31642  24846451.938                    24846468.055
 108966310.408 8  84908954.45446  20735579.664                    20735586.289
 116176569.331 7  90527256.83945  22107665.766                    22107675.246
 119968496.950 7  93481996.204 7  22829247.406                    22829258.934
 111427289.776 8  86826596.32146  21203890.281                    21203899.047
 109448519.891 8  85284629.190 7  20827360.375                    20827368.617
 126170560.384 6  98314738.715 6  24009458.117                    24009467.535
 109923446.798 8  85654723.295 7  20917715.719                    20917724.418
 11  8 14  1 23  0.0000000  0  8G04G02G30G25G10G12G17G05
 120038311.378 7  93536461.90244  22842512.148                    22842521.773
 108984596.426 8  84923203.30246  20739059.625                    20739065.805
 116114232.824 7  90478682.98645  22095803.578                    22095812.598
 119889581.646 7  93420503.805 7  22814230.383                    22814242.180
 111472053.785 7  86861477.37545  21212408.453                    21212417.031
 109427159.771 8  85267984.938 7  20823296.086                    20823303.969
 126236672.397 6  98366254.525 6  24022038.477                    24022048.500
 109863090.700 8  85607692.612 7  20906230.008                    20906238.840
 11  8 14  1 23 30.0000000  0  8G04G02G30G25G10G12G17G05
 120120738.529 7  93600690.82344  22858197.422                    22858206.828
 109003087.528 8  84937611.96246  20742577.992                    20742584.809
 116052403.045 7  90430503.98345  22084037.250                    22084047.109
 119811041.144 7  93359303.470 7  22799284.563                    22799296.414
 111517391.419 7  86896805.40845  21221036.070                    21221044.711
 109406364.094 8  85251780.523 7  20819338.188                    20819346.438
 126302969.407 6  98417914.518 6  24034653.219                    24034663.574
 109803225.400 8  85561044.362 7  20894837.898                    20894846.891
 11  8 14  1 24  0.0000000  0  8G04G02G30G25G10G12G17G05
 120203182.414 7  93664932.78544  22873886.125                    22873895.457
 109021781.192 8  84952178.46946  20746135.313                    20746141.887
 115991080.830 7  90382720.49545  22072367.984                    22072377.504
 119732876.513 7  93298396.022 7  22784410.250                    22784421.988
 111563299.344 7  86932577.82246  21229772.398                    21229781.023
 109386132.636 8  85236015.750 7  20815488.586                    20815496.574
 126369450.730 7  98469718.157 6  24047305.453                    24047313.785
 109743851.260 8  85514778.833 7  20883539.547                    20883548.434
 11  8 14  1 24 30.0000000  0  8G04G02G30G25G10G12G17G05
 120285641.890 7  93729186.90244  22889577.789                    22889586.645
 109040676.448 8  84966902.05446  20749731.000                    20749737.707
 115930268.359 7  90335334.19545  22060795.773                    22060805.234
 119655090.403 7  93237783.539 7  22769607.969                    22769619.734
 111609775.902 8  86968793.32645  21238616.383                    21238624.930
 109366466.501 8  85220691.490 7  20811746.227                    20811754.555
 126436116.147 6  98521665.215 6  24059990.000                    24060000.840
 109684970.800 8  85468897.998 8  20872334.945                    20872343.977
 11  8 14  1 25  0.0000000  0  8G04G02G30G25G10G12G17G05
 120368115.727 7  93793452.21044  22905271.969                    22905281.078
 109059771.785 8  84981781.55846  20753364.727                    20753371.586
 115869967.838 7  90288346.82045  22049321.219                    22049330.789
 119577685.495 7  93177468.106 7  22754878.320                    22754889.832
 111656819.420 8  87005450.62446  21247568.125                    21247577.074
 109347366.479 8  85205808.365 7  20808111.570                    20808119.898
 126502966.077 6  98573756.062 6  24072711.852                    24072720.855
 109626585.582 8  85423403.061 7  20861224.836                    20861233.070
 11  8 14  1 25 30.0000000  0  8G04G02G30G25G10G12G17G05
 120450602.937 7  93857727.95444  22920968.688                    22920977.871
 109079067.149 8  84996816.91246  20757036.586                    20757043.332
 115810181.652 7  90241760.22145  22037943.797                    22037953.688
 119500664.413 7  93117451.749 7  22740221.820                    22740233.766
 111704428.341 8  87042548.49945  21256627.539                    21256636.793
 109328833.806 8  85191367.326 7  20804585.008                    20804593.086
 126570000.844 6  98625990.946 6  24085468.133                    24085478.582
 109568697.612 8  85378295.583 7  20850208.711                    20850217.660
 11  8 14  1 26  0.0000000  0  8G04G02G30G25G10G12G17G05
 120533102.135 7  93922013.03344  22936668.352                    22936677.563
 109098560.827 8  85012006.80346  20760745.992                    20760752.371
 115750911.489 7  90195575.72145  22026665.602                    22026674.984
 119424029.415 7  93057736.245 7  22725638.305                    22725649.945
 111752600.177 8  87080085.00945  21265794.273                    21265803.355
 109310869.272 8  85177368.993 7  20801166.625                    20801174.668
 126637220.454 6  98678369.819 5  24098260.406                    24098269.586
 109511308.564 8  85333576.889 7  20839288.195                    20839296.543
 11  8 14  1 26 30.0000000  0  8G04G02G30G25G10G12G17G05
 120615611.737 7  93986306.21144  22952368.961                    22952378.379
 109118251.289 8  85027350.02746  20764492.953                    20764499.359
 115692159.385 7  90149794.89945  22015484.789                    22015494.254
 119347782.843 7  92998323.404 7  22711129.195                    22711140.770
 111801333.196 8  87118058.81546  21275068.445                    21275076.957
 109293473.654 8  85163813.972 7  20797855.859                    20797864.008
 126704624.934 6  98730892.800 5  24111086.125                    24111095.625
 109454420.582 8  85289248.618 7  20828462.563                    20828471.387
 11  8 14  1 27  0.0000000  0  8G04G02G30G25G10G12G17G05
 120698131.105 6  94050607.01044  22968072.102                    22968081.129
 109138137.816 8  85042846.03546  20768277.227                    20768283.543
 115633927.843 7  90104419.72445  22004404.234                    22004413.508
 119271927.634 7  92939215.524 7  22696694.008                    22696706.051
 111850625.930 8  87156468.73746  21284448.414                    21284456.680
 109276647.943 8  85150703.041 7  20794654.211                    20794662.508
 126772214.227 6  98783559.822 6  24123947.758                    24123957.414
 109398035.764 8  85245312.438 7  20817733.102                    20817741.309
 11  8 14  1 27 30.0000000  0  8G04G02G30G25G10G12G17G05
 120780659.119 7  94114914.53944  22983776.039                    22983785.547
 109158219.644 8  85058494.23246  20772098.742                    20772104.930
 115576218.871 7  90059451.73245  21993422.586                    21993431.746
 119196466.290 7  92880414.541 7  22682334.703                    22682345.676
 111900476.397 8  87195313.28546  21293934.594                    21293943.473
 109260393.265 8  85138037.071 7  20791560.977                    20791569.551
 126839988.791 6  98836371.127 6  24136844.930                    24136855.035
 109342155.893 8  85201769.728 8  20807099.273                    20807107.770
 11  8 14  1 28  0.0000000  0  8G04G02G30G25G10G12G17G05
 120863194.307 6  94179227.65644  22999482.297                    22999491.605
 109178494.913 8  85074293.15346  20775956.820                    20775963.371
 115519034.159 7  90014892.25445  21982540.500                    21982549.965
 119121400.939 7  92821922.123 7  22668049.789                    22668061.488
 111950882.330 8  87234590.65845  21303526.797                    21303535.605
 109244710.154 8  85125816.471 7  20788576.891                    20788584.938
 126907948.520 6  98889326.782 6  24149777.500                    24149786.988
 109286782.032 8  85158621.303 7  20796562.070                    20796570.332
 11  8 14  1 28 30.0000000  0  8G04G02G30G25G10G12G17G05
 120945735.622 7  94243545.55744  23015189.469                    23015198.703
 109198962.875 8  85090242.22046  20779851.477                    20779858.477
 115462376.092 7  89970743.13445  21971758.641                    21971768.340
 119046734.372 8  92763740.440 7  22653841.117                    22653853.090
 112001842.246 8  87274299.70245  21313224.047                    21313232.742
 109229599.791 8  85114042.179 7  20785701.195                    20785709.762
 126976093.719 6  98942426.937 6  24162746.086                    24162754.500
 109231916.648 8  85115869.093 7  20786121.383                    20786130.094
 11  8 14  1 29  0.0000000  0  8G04G02G30G25G10G12G17G05
 121028281.960 7  94307867.37244  23030896.844                    23030906.516
 109219622.409 8  85106340.57846  20783782.945                    20783789.508
 115406246.338 7  89927005.69445  21961077.461                    21961086.813
 118972468.897 7  92705871.307 7  22639708.664                    22639720.887
 112053354.074 8  87314438.81445  21323026.336                    21323035.004
 109215062.452 8  85102714.390 7  20782935.188                    20782943.172
 127044424.058 6  98995671.368 6  24175747.273                    24175758.039
 109177561.476 8  85073514.443 7  20775777.875                    20775786.902
 11  8 14  1 29 30.0000000  0  8G04G02G30G25G10G12G17G05
 121110832.267 7  94372192.27044  23046605.719                    23046615.930
 109240472.590 8  85122587.48946  20787750.563                    20787757.355
 115350647.158 7  89883681.70745  21950497.531                    21950506.879
 118898607.151 7  92648316.768 7  22625653.055                    22625665.160
 112105415.823 8  87355006.43345  21332933.391                    21332941.629
 109201099.124 8  85091833.891 7  20780277.742                    20780286.227
 127112939.910 6  99049060.284 6  24188787.023                    24188796.758
 109123718.385 8  85031558.834 7  20765531.844                    20765540.492
 11  8 14  1 30  0.0000000  0  8G04G02G30G25G10G12G17G05
 121193385.242 7  94436519.24244  23062316.148                    23062325.133
 109261511.826 8  85138981.70846  20791754.367                    20791760.965
 115295580.307 7  89840772.51045  21940018.383                    21940027.844
 118825151.307 7  92591078.505 7  22611675.219                    22611686.727
 112158025.231 7  87396000.80646  21342943.953                    21342952.969
 109187710.486 8  85081401.203 7  20777730.031                    20777738.508
 127181641.245 6  99102593.793 6  24201859.875                    24201869.375
 109070388.860 8  84990003.399 8  20755383.750                    20755391.797
 11  8 14  1 30 30.0000000  0  8G04G02G30G25G10G12G17G05
 121275939.796 7  94500847.44144  23078025.109                    23078034.840
 109282739.423 8  85155522.71246  20795794.148                    20795800.262
 115241047.810 7  89798279.68745  21929641.078                    21929650.680
 118752103.915 7  92534158.498 7  22597774.945                    22597786.301
 112211180.300 7  87437420.35845  21353059.242                    21353068.555
 109174897.133 8  85071416.790 7  20775291.648                    20775299.801
 127250528.065 6  99156271.854 6  24214968.078                    24214977.762
 109017574.590 8  84948849.471 8  20745333.539                    20745341.777
 11  8 14  1 31  0.0000000  0  8G04G02G30G25G10G12G17G05
 121358494.883 7  94565176.07944  23093734.906                    23093744.625
 109304154.095 8  85172209.48746  20799868.930                    20799875.586
 115187051.480 7  89756204.66445  21919366.047                    21919375.375
 118679467.367 7  92477558.645 7  22583952.438                    22583964.023
 112264878.991 8  87479263.51245  21363278.070                    21363286.738
 109162660.259 8  85061881.579 7  20772962.766                    20772971.188
 127319600.596 6  99210094.579 6  24228113.055                    24228121.992
 108965277.420 8  84908098.463 7  20735381.602                    20735390.230
 11  8 14  1 31 30.0000000  0  8G04G02G30G25G10G12G17G05
 121441049.565 6  94629504.36944  23109444.344                    23109454.051
 109325755.108 8  85189041.45246  20803979.297                    20803985.840
 115133593.664 7  89714549.27445  21909193.719                    21909202.926
 118607244.444 7  92421281.083 7  22570208.391                    22570220.293
 112319119.474 7  87521528.84045  21373599.594                    21373608.527
 109151000.113 8  85052795.775 7  20770744.141                    20770752.102
 127388858.852 6  99264062.048 6  24241292.516                    24241301.496
 108913499.467 8  84867752.045 8  20725528.406                    20725536.801
 11  8 14  1 32  0.0000000  0  8G04G02G30G25G10G12G17G05
 121523602.514 6  94693831.33844  23125154.070                    23125163.543
 109347540.484 8  85206017.07746  20808124.945                    20808131.660
 115080675.537 7  89673314.41645  21899123.422                    21899132.824
 118535436.972 7  92365327.260 7  22556544.289                    22556555.773
 112373899.026 7  87564214.21945  21384023.953                    21384032.305
 109139917.088 8  85044159.676 7  20768635.109                    20768643.602
 127458302.263 6  99318173.826 6  24254506.758                    24254515.906
 108862241.496 8  84827810.810 8  20715774.469                    20715783.047
 11  8 14  1 32 30.0000000  0  9G04G29G02G30G25G10G12G17G05
 121606152.730 6  94758156.17044  23140862.375                    23140872.801
 129587899.74516                  24659761.180
 109369509.919 8  85223136.13146  20812305.672                    20812312.059
 115028299.247 7  89632501.77045  21889156.359                    21889165.703
 118464047.612 7  92309699.235 7  22542959.391                    22542971.113
 112429216.324 7  87607318.61745  21394550.328                    21394558.840
 109129411.960 8  85035973.882 7  20766636.188                    20766644.379
 127527931.529 6  99372430.365 6  24267756.969                    24267766.563
 108811505.552 8  84788276.353 7  20706119.430                    20706128.617
 11  8 14  1 33  0.0000000  0  9G04G29G02G30G25G10G12G17G05
 121688699.067 6  94822477.97244  23156570.531                    23156580.063
 129508374.406 7 100915651.12416  24644629.094                    24644640.039
 109391662.182 8  85240397.64146  20816521.008                    20816527.590
 114976466.708 7  89592112.83545  21879292.898                    21879302.359
 118393078.828 7  92254398.929 7  22529454.305                    22529465.738
 112485068.907 7  87650840.11445  21405178.500                    21405187.477
 109119485.644 8  85028239.109 7  20764746.977                    20764755.340
 127597746.472 6  99426831.620 6  24281041.898                    24281051.938
 108761293.419 8  84749150.047 8  20696564.586                    20696573.039
 11  8 14  1 33 30.0000000  0  9G04G29G02G30G25G10G12G17G05
 121771240.634 7  94886796.06844  23172277.578                    23172287.926
 129428774.033 7 100853624.966 6  24629481.141                    24629492.480
 109413996.208 8  85257800.79546  20820771.336                    20820777.375
 114925179.872 7  89552149.11445  21869533.078                    21869542.949
 118322532.997 7  92199428.195 7  22516029.742                    22516041.875
 112541454.829 8  87694777.21945  21415908.750                    21415917.348
 109110138.445 8  85020955.598 7  20762968.438                    20762976.289
 127667747.317 6  99481377.721 6  24294362.570                    24294373.020
 108711606.476 8  84710432.988 8  20687109.227                    20687117.816
 11  8 14  1 34  0.0000000  0  9G04G29G02G30G25G10G12G17G05
 121853776.179 7  94951109.44744  23187983.617                    23187993.438
 129349098.385 7 100791540.149 6  24614319.430                    24614330.402
 109436510.484 8  85275344.39546  20825055.484                    20825062.027
 114874440.164 7  89512611.73045  21859877.781                    21859887.273
 118252412.265 7  92144788.709 7  22502686.313                    22502697.613
 112598371.576 8  87739127.93845  21426739.516                    21426748.102
 109101370.841 8  85014123.712 7  20761300.063                    20761308.371
 127737933.789 6  99536068.473 6  24307718.828                    24307729.145
 108662446.014 8  84672126.161 8  20677754.320                    20677763.129
 11  8 14  1 34 30.0000000  0  9G04G29G02G30G25G10G12G17G05
 121936304.999 7  95015417.58944  23203688.633                    23203698.281
 129269348.058 7 100729397.142 6  24599142.992                    24599154.359
 109459204.554 8  85293028.08946  20829373.734                    20829380.172
 114824249.757 7  89473502.36645  21850326.930                    21850336.258
 118182719.363 7  92090482.603 7  22489424.297                    22489435.375
 112655817.413 7  87783890.93945  21437670.914                    21437679.914
 109093183.878 8  85007744.272 7  20759742.047                    20759750.270
 127808305.897 6  99590903.915 6  24321110.578                    24321119.855
 108613814.114 8  84634231.211 8  20668499.836                    20668508.352
 11  8 14  1 35  0.0000000  0  9G04G29G02G30G25G10G12G17G05
 122018825.610 7  95079719.33944  23219391.711                    23219401.637
 129189523.285 6 100667196.092 5  24583953.156                    24583965.023
 109482076.773 8  85310850.60546  20833726.164                    20833732.648
 114774609.929 8  89434822.03345  21840880.727                    21840889.973
 118113456.203 7  92036511.349 7  22476243.922                    22476255.309
 112713789.718 7  87829064.16745  21448702.633                    21448711.793
 109085577.195 8  85001817.003 7  20758294.547                    20758302.703
 127878863.584 6  99645883.910 6  24334536.664                    24334546.805
 108565711.777 8  84596748.900 8  20659346.109                    20659354.785
 11  8 14  1 35 30.0000000  0  9G04G29G02G30G25G10G12G17G05
 122101337.077 7  95144013.95244  23235092.945                    23235103.172
 129109624.922 6 100604937.668 5  24568749.133                    24568760.309
 109505126.264 8  85328811.25546  20838112.789                    20838118.840
 114725522.588 7  89396572.19845  21831539.477                    21831548.957
 118044625.265 7  91982876.910 7  22463145.555                    22463156.699
 112772286.385 8  87874645.98745  21459834.117                    21459842.633
 109078551.256 8  84996342.259 7  20756957.742                    20756966.109
 127949606.758 6  99701008.463 6  24347998.961                    24348009.297
 108518140.788 8  84559680.632 7  20650293.766                    20650302.563
 11  8 14  1 36  0.0000000  0  9G04G29G02G30G25G10G12G17G05
 122183838.806 7  95208300.97143  23250792.109                    23250802.418
 129029653.605 6 100542622.311 4  24553530.813                    24553541.961
 109528351.993 8  85346909.23546  20842532.344                    20842538.582
 114676989.756 7  89358754.43945  21822304.008                    21822313.410
 117976229.122 7  91929581.282 7  22450130.367                    22450141.734
 112831305.602 7  87920635.00345  21471065.250                    21471073.613
 109072107.238 8  84991320.953 7  20755731.375                    20755739.277
 128020535.657 5  99756277.733 5  24361495.938                    24361506.602
 108471102.920 8  84523027.781 8  20641342.617                    20641351.211
 11  8 14  1 36 30.0000000  0  9G04G29G02G30G25G10G12G17G05
 122266329.564 6  95272579.47544  23266490.297                    23266499.988
 128949609.838 6 100480250.553 5  24538298.883                    24538310.430
 109551752.933 8  85365143.73846  20846985.297                    20846991.754
 114629012.732 8  89321369.77645  21813174.633                    21813183.711
 117908269.811 7  91876626.040 7  22437197.719                    22437209.129
 112890844.665 8  87967029.09745  21482394.969                    21482403.461
 109066245.084 8  84986753.048 7  20754615.891                    20754623.520
 128091649.816 6  99811691.377 6  24375028.188                    24375039.742
 108424599.210 8  84486791.155 8  20632493.578                    20632502.117
 11  8 14  1 37  0.0000000  0  9G04G29G02G30G25G10G12G17G05
 122348808.355 6  95336848.62644  23282185.617                    23282195.754
 128869494.108 5 100417822.757 5  24523052.383                    24523064.949
 109575328.265 8  85383514.12446  20851471.633                    20851478.094
 114581593.396 7  89284419.67045  21804151.031                    21804160.230
 117840749.771 7  91824013.074 7  22424349.383                    22424360.754
 112950901.483 7  88013826.62645  21493823.344                    21493832.059
 109060965.107 8  84982638.780 7  20753610.789                    20753618.793
 128162949.526 6  99867249.594 6  24388596.063                    24388607.602
 108378631.215 7  84450971.977 8  20623745.992                    20623754.445
 11  8 14  1 37 30.0000000  0  9G04G29G02G30G25G10G12G17G05
 122431274.053 6  95401107.57444  23297878.656                    23297887.930
 128789306.752 5 100355339.190 5  24507793.250                    24507805.922
 109599076.389 8  85402019.15246  20855990.711                    20855997.305
 114534733.087 8  89247905.16945  21795233.680                    21795242.379
 117773670.980 7  91771743.952 7  22411584.555                    22411595.840
 113011473.279 7  88061025.43545  21505349.719                    21505358.629
 109056267.473 7  84978978.292 7  20752717.148                    20752725.301
 128234434.537 5  99922952.210 5  24402198.406                    24402210.520
 108333200.056 8  84415571.101 8  20615100.719                    20615109.375
 11  8 14  1 38  0.0000000  0  9G04G29G02G30G25G10G12G17G05
 122513726.044 7  95465355.82844  23313568.734                    23313578.883
 128709049.164 6 100292800.900 6  24492521.609                    24492533.055
 109622996.743 7  85420658.39546  20860542.289                    20860549.113
 114488433.916 8  89211827.89545  21786423.000                    21786432.449
 117707036.193 7  91719820.812 7  22398904.227                    22398915.445
 113072558.466 7  88108624.28245  21516973.828                    21516983.012
 109052153.073 7  84975772.267 7  20751934.383                    20751942.395
 128306105.129 6  99978799.379 6  24415838.000                    24415848.465
 108288307.845 8  84380590.191 8  20606557.945                    20606566.680
 11  8 14  1 38 30.0000000  0  9G04G29G02G30G25G10G12G17G05
 122596163.089 7  95529592.45444  23329255.859                    23329265.953
 128628721.300 6 100230207.837 6  24477235.266                    24477247.793
 109647088.043 7  85439430.85246  20865127.031                    20865133.582
 114442697.119 7  89176188.84145  21777719.805                    21777729.020
 117640847.326 7  91668245.124 7  22386308.938                    22386320.188
 113134154.404 7  88156621.12045  21528695.844                    21528704.035
 109048621.949 8  84973020.748 7  20751262.219                    20751270.289
 128377960.619 6 100034790.685 6  24429512.039                    24429522.535
 108243955.451 8  84346029.911 8  20598117.672                    20598126.234
 11  8 14  1 39  0.0000000  0  9G04G29G02G30G25G10G12G17G05
 122678584.249 7  95593816.69944  23344940.211                    23344950.188
 128548323.818 6 100167560.552 6  24461935.609                    24461947.457
 109671349.316 8  85458335.74546  20869743.617                    20869750.207
 114397524.405 7  89140989.32745  21769123.211                    21769133.086
 117575106.679 7  91617018.724 7  22373799.031                    22373810.344
 113196258.507 7  88205013.93045  21540513.484                    21540521.750
 109045674.603 8  84970724.111 7  20750700.992                    20750709.520
 128450001.292 6 100090926.314 6  24443220.242                    24443230.785
 108200144.301 8  84311891.387 8  20589780.953                    20589789.512
 11  8 14  1 39 30.0000000  0  9G04G29G02G30G25G10G12G17G05
 122760988.641 7  95658027.88544  23360621.023                    23360630.969
 128467857.175 7 100104859.380 6  24446624.211                    24446635.258
 109695779.277 8  85477372.07646  20874392.406                    20874398.941
 114352917.108 7  89106230.38345  21760635.141                    21760644.500
 117509816.438 7  91566143.263 7  22361374.570                    22361385.867
 113258868.444 7  88253800.90345  21552427.578                    21552436.043
 109043310.622 7  84968882.051 7  20750251.523                    20750259.773
 128522227.120 6 100147206.142 6  24456965.477                    24456975.199
 108156875.195 8  84278175.225 8  20581547.016                    20581555.805
 11  8 14  1 40  0.0000000  0  9G04G29G02G30G25G10G12G17G05
 122843375.109 6  95722225.07643  23376298.531                    23376308.965
 128387322.113 7 100042104.874 6  24431298.727                    24431310.285
 109720377.079 8  85496539.19746  20879073.266                    20879080.035
 114308877.052 7  89071913.43545  21752254.469                    21752264.082
 117444978.866 7  91515620.534 7  22349036.234                    22349047.789
 113321982.131 7  88302980.40245  21564437.508                    21564446.281
 109041530.635 8  84967495.045 8  20749912.938                    20749920.988
 128594637.765 6 100203630.055 6  24470744.102                    24470755.387
 108114150.141 8  84244883.010 8  20573417.094                    20573425.316
 11  8 14  1 40 30.0000000  0  9G04G29G02G30G25G10G12G17G05
 122925743.099 7  95786407.93744  23391972.469                    23391981.734
 128306719.567 7  99979297.797 6  24415960.773                    24415972.168
 109745141.954 8  85515836.50246  20883786.047                    20883792.766
 114265405.557 8  89038039.52145  21743982.219                    21743991.605
 117380596.188 7  91465452.273 7  22336784.773                    22336795.797
 113385597.181 7  88352550.58345  21576543.102                    21576551.852
 109040334.832 8  84966563.254 7  20749685.258                    20749693.543
 128667233.298 6 100260198.013 5  24484558.609                    24484569.293
 108071970.104 8  84212015.480 8  20565390.117                    20565398.820
 11  8 14  1 41  0.0000000  0  9G04G29G02G30G25G10G12G17G05
 123008091.564 6  95850575.49243  23407643.242                    23407653.063
 128226049.906 7  99916438.417 6  24400609.492                    24400620.270
 109770072.568 8  85535262.95646  20888529.883                    20888536.570
 114222504.136 8  89004609.82345  21735818.453                    21735827.555
 117316670.567 7  91415640.134 7  22324619.938                    22324631.164
 113449711.265 7  88402509.61545  21588743.758                    21588752.121
 109039723.470 8  84966086.865 7  20749568.594                    20749576.867
 128740013.418 6 100316909.789 6  24498408.531                    24498417.988
 108030336.465 8  84179573.720 8  20557467.836                    20557475.926
 11  8 14  1 41 30.0000000  0  8G04G29G02G30G25G10G12G05
 123090420.210 6  95914727.69544  23423309.609                    23423319.125
 128145314.381 7  99853527.744 6  24385245.945                    24385257.184
 109795168.530 8  85554818.26646  20893305.930                    20893312.012
 114180174.875 8  88971625.94945  21727763.461                    21727772.707
 117253204.758 7  91366186.302 7  22312542.391                    22312554.145
 113514322.546 7  88452856.08045  21601038.820                    21601047.207
 109039696.917 8  84966066.185 7  20749563.563                    20749572.020
 107989250.957 8  84147559.066 8  20549649.063                    20549657.297
 11  8 14  1 42  0.0000000  0  8G04G29G02G30G25G10G12G05
 123172727.736 6  95978863.33843  23438973.008                    23438982.043
 128064513.251 7  99790565.925 6  24369870.367                    24369881.453
 109820428.458 8  85574501.33646  20898112.500                    20898119.039
 114138418.814 8  88939088.72245  21719817.734                    21719826.793
 117190200.576 7  91317092.148 7  22300553.477                    22300564.637
 113579428.082 8  88503587.67645  21613428.516                    21613436.391
 109040255.190 8  84966501.199 7  20749669.906                    20749678.352
 107948714.335 8  84115972.123 8  20541935.320                    20541943.867
 11  8 14  1 42 30.0000000  0  8G04G29G02G30G25G10G12G05
 123255012.812 6  96042981.55943  23454630.305                    23454640.566
 127983646.698 7  99727553.138 6  24354481.664                    24354492.809
 109845850.818 8  85594310.98346  20902950.641                    20902957.043
 114097236.934 8  88906998.91245  21711981.164                    21711990.215
 117127659.646 7  91268358.970 7  22288652.086                    22288663.992
 113645024.763 7  88554701.98945  21625910.719                    21625919.277
 109041397.665 8  84967391.444 7  20749887.156                    20749896.074
 107908727.745 8  84084813.775 8  20534326.281                    20534334.828
 11  8 14  1 43  0.0000000  0  8G04G29G02G30G25G10G12G05
 123337275.063 6  96107081.99443  23470284.555                    23470295.031
 127902715.916 6  99664490.321 6  24339080.523                    24339091.977
 109871435.362 8  85614247.00646  20907818.734                    20907825.445
 114056631.152 8  88875358.02045  21704254.281                    21704263.082
 117065584.735 7  91219988.908 7  22276839.578                    22276851.008
 113711110.893 7  88606197.67745  21638486.516                    21638495.168
 109043125.383 8  84968737.722 7  20750216.102                    20750224.441
 107869292.462 8  84054085.019 7  20526822.070                    20526830.254
 11  8 14  1 43 30.0000000  0  8G04G29G02G30G25G10G12G05
 123419513.400 6  96171163.79643  23485933.602                    23485945.266
 127821721.396 6  99601377.863 6  24323668.094                    24323679.430
 109897180.205 8  85634307.94446  20912717.992                    20912724.168
 114016602.370 8  88844166.74745  21696637.055                    21696646.090
 117003977.445 7  91171983.227 7  22265116.469                    22265127.734
 113777683.881 7  88658072.73445  21651155.125                    21651163.293
 109045437.537 8  84970539.407 7  20750656.102                    20750664.211
 107830408.937 8  84023786.204 8  20519422.406                    20519430.742
 11  8 14  1 44  0.0000000  0  8G04G29G02G30G25G10G12G05
 123501727.084 7  96235226.37843  23501578.359                    23501589.477
 127740663.716 6  99538216.115 6  24308243.133                    24308254.230
 109923084.836 8  85654493.39746  20917647.094                    20917653.668
 113977152.190 8  88813426.34145  21689129.578                    21689139.109
 116942840.107 7  91124343.722 7  22253481.969                    22253493.707
 113844741.289 7  88710325.26245  21663915.742                    21663924.086
 109048334.366 8  84972796.684 7  20751207.203                    20751215.547
 107792078.714 8  83993918.528 8  20512128.852                    20512137.195
 11  8 14  1 44 30.0000000  0  8G04G29G02G30G25G10G12G05
 123583915.017 7  96299268.91444  23517219.203                    23517229.320
 127659543.601 6  99475005.681 6  24292806.133                    24292817.660
 109949148.301 8  85674802.61246  20922606.922                    20922613.418
 113938281.765 8  88783137.70245  21681733.086                    21681742.121
 116882174.738 7  91077071.986 7  22241938.383                    22241949.137
 113912280.308 7  88762953.08845  21676767.516                    21676776.668
 109051815.932 8  84975509.599 7  20751869.891                    20751878.117
 107754302.919 8  83964482.874 8  20504939.969                    20504948.875
 11  8 14  1 45  0.0000000  0  8G04G29G02G30G25G10G12G05
 123666076.645 7  96363290.93044  23532853.727                    23532864.023
 127578362.162 6  99411747.520 6  24277357.859                    24277368.715
 109975369.903 8  85695235.06246  20927596.852                    20927603.508
 113899992.839 8  88753302.20145  21674446.539                    21674455.930
 116821983.809 8  91030169.924 7  22230484.133                    22230495.621
 113980298.875 7  88815954.56945  21689711.297                    21689720.090
 109055882.427 8  84978678.314 7  20752643.734                    20752652.156
 107717082.944 8  83935480.330 8  20497857.445                    20497865.938
 11  8 14  1 45 30.0000000  0  8G04G29G02G30G25G10G12G05
 123748211.005 7  96427291.70644  23548483.531                    23548493.531
 127497119.760 6  99348441.838 5  24261897.961                    24261908.797
 110001747.966 8  85715789.42146  20932616.484                    20932622.551
 113862286.178 7  88723920.40845  21667270.914                    21667280.832
 116762268.896 7  90983638.792 7  22219120.461                    22219132.352
 114048794.047 7  88869327.43645  21702745.477                    21702754.273
 109060533.723 8  84982302.708 7  20753528.633                    20753536.996
 107680419.117 8  83906911.147 8  20490880.203                    20490888.973
 11  8 14  1 46  0.0000000  0  8G04G29G02G30G25G10G12G05
 123830317.366 6  96491270.66244  23564107.836                    23564117.355
 127415817.107 6  99285089.171 5  24246425.664                    24246437.109
 110028282.024 8  85736465.35146  20937665.500                    20937672.090
 113825163.286 7  88694993.53045  21660206.750                    21660216.344
 116703032.349 8  90937480.413 7  22207848.297                    22207859.852
 114117763.502 8  88923069.87445  21715869.781                    21715878.820
 109065769.440 8  84986382.491 7  20754525.258                    20754533.324
 107644312.879 8  83878776.451 8  20484009.625                    20484018.016
 11  8 14  1 46 30.0000000  0  8G04G29G02G30G25G10G12G05
 123912395.219 6  96555227.43943  23579725.484                    23579736.477
 127334455.395 6  99221690.512 6  24230943.453                    24230954.344
 110054971.418 8  85757262.30846  20942744.492                    20942750.695
 113788625.701 7  88666522.73245  21653254.031                    21653263.598
 116644276.412 8  90891696.531 7  22196667.313                    22196678.813
 114187204.981 7  88977180.12445  21729083.898                    21729092.461
 109071589.973 8  84990917.972 7  20755632.852                    20755640.980
 107608765.657 8  83851077.347 8  20477245.438                    20477253.656
 11  8 14  1 47  0.0000000  0  8G04G29G02G30G25G10G12G05
 123994443.566 6  96619161.17343  23595339.141                    23595350.777
 127253034.858 6  99158245.999 6  24215449.609                    24215461.625
 110081814.676 7  85778179.15046  20947852.633                    20947858.641
 113752674.205 7  88638508.63845  21646412.672                    21646422.156
 116586002.829 8  90846288.533 7  22185578.227                    22185589.992
 114257115.601 7  89031655.93345  21742387.570                    21742396.645
 109077994.579 8  84995908.583 7  20756851.313                    20756859.402
 107573777.946 8  83823814.226 8  20470587.078                    20470595.816
 11  8 14  1 47 30.0000000  0  8G04G29G02G30G25G10G12G05
 124076461.223 6  96683071.04843  23610946.664                    23610957.121
 127171556.401 6  99094756.344 6  24199944.391                    24199955.934
 110108810.586 8  85799214.95246  20952989.688                    20952995.926
 113717309.763 7  88610951.98645  21639682.922                    21639692.141
 116528213.372 8  90801257.778 7  22174581.492                    22174593.039
 114327492.388 7  89086495.00045  21755780.344                    21755788.656
 109084982.998 8  85001354.110 7  20758181.523                    20758189.715
 107539350.621 8  83796987.773 8  20464035.539                    20464044.285
 11  8 14  1 48  0.0000000  0  8G04G29G02G30G25G10G12G05
 124158448.060 6  96746956.86543  23626548.422                    23626559.934
 127090021.310 6  99031222.489 5  24184429.672                    24184439.891
 110135959.148 8  85820369.69246  20958155.836                    20958162.133
 113682534.216 8  88583854.21745  21633065.563                    21633074.945
 116470910.747 8  90756606.396 7  22163677.266                    22163688.746
 114398333.789 7  89141696.09345  21769260.836                    21769269.012
 109092555.799 8  85007254.997 7  20759622.516                    20759630.383
 107505484.927 8  83770598.948 8  20457591.094                    20457599.746
 11  8 14  1 48 30.0000000  0  8G04G29G02G30G25G10G12G05
 124240402.890 6  96810817.77643  23642143.961                    23642154.434
 127008429.887 7  98967644.740 6  24168903.398                    24168914.402
 110163258.566 8  85841641.98846  20963350.727                    20963356.816
 113648348.044 8  88557215.69645  21626560.016                    21626569.656
 116414096.252 8  90712335.392 7  22152865.844                    22152877.496
 114469636.399 7  89197256.58345  21782828.977                    21782837.828
 109100712.140 8  85013610.587 7  20761174.609                    20761182.586
 107472181.329 8  83744648.122 8  20451253.664                    20451262.375
 11  8 14  1 49  0.0000000  0  8G04G29G02G30G25G10G12G05
 124322325.394 6  96874653.47243  23657733.188                    23657743.438
 126926783.227 6  98904023.995 6  24153366.320                    24153378.090
 110190708.633 8  85863031.67746  20968574.180                    20968580.949
 113614752.890 8  88531037.72145  21620166.852                    21620176.348
 116357772.420 8  90668446.731 7  22142147.805                    22142159.344
 114541397.954 7  89253174.67945  21796484.609                    21796493.609
 109109452.545 8  85020421.297 7  20762837.734                    20762845.691
 107439441.136 8  83719136.317 8  20445023.820                    20445031.832
 11  8 14  1 49 30.0000000  0  8G04G29G02G30G25G10G12G05
 124404214.184 6  96938462.96143  23673316.234                    23673326.504
 126845081.412 6  98840360.241 6  24137819.258                    24137829.969
 110218307.275 8  85884537.13946  20973826.141                    20973832.395
 113581749.017 8  88505320.46745  21613886.711                    21613895.641
 116301940.365 8  90624941.273 7  22131523.125                    22131534.555
 114613615.174 7  89309447.83845  21810227.508                    21810235.867
 109118775.745 8  85027686.141 7  20764611.766                    20764620.254
 107407264.702 8  83694063.797 8  20438900.406                    20438908.875
 11  8 14  1 50  0.0000000  0  8G04G29G02G30G25G10G12G05
 124486068.859 7  97002245.78243  23688893.156                    23688902.566
 126763325.611 6  98776654.439 6  24122261.391                    24122272.586
 110246054.214 8  85906158.14846  20979105.992                    20979112.406
 113549337.852 7  88480065.06745  21607718.758                    21607728.434
 116246602.389 8  90581820.840 7  22120992.969                    22121004.180
 114686286.142 7  89366074.55845  21824055.961                    21824065.184
 109128681.476 8  85035404.899 7  20766497.078                    20766505.457
 107375653.039 8  83669431.363 8  20432884.922                    20432893.414
 11  8 14  1 50 30.0000000  0  8G04G29G02G30G25G10G12G05
 124567888.811 7  97066001.56243  23704462.922                    23704471.684
 126681516.969 6  98712907.518 6  24106693.148                    24106705.141
 110273948.877 8  85927894.26946  20984414.320                    20984420.996
 113517520.911 8  88455272.68745  21601664.047                    21601673.551
 116191760.766 8  90539087.169 7  22110556.703                    22110568.180
 114759408.281 7  89423052.84245  21837970.617                    21837979.492
 109139170.016 8  85043577.793 7  20768492.648                    20768501.027
 107344607.143 8  83645239.788 8  20426976.891                    20426985.367
 11  8 14  1 51  0.0000000  0  8G04G29G02G30G25G10G12G05
 124649673.113 7  97129729.60943  23720026.273                    23720035.398
 126599656.044 6  98649119.882 6  24091115.844                    24091127.117
 110301989.798 7  85949744.36946  20989750.070                    20989756.797
 113486298.590 8  88430943.65245  21595722.773                    21595731.742
 116137416.981 8  90496741.430 7  22100215.211                    22100226.617
 114832978.855 7  89480380.56045  21851970.852                    21851979.535
 109150240.598 8  85052204.220 7  20770599.406                    20770607.781
 107314127.399 8  83621489.371 8  20421177.078                    20421185.387
 11  8 14  1 51 30.0000000  0  8G04G29G02G30G25G10G12G05
 124731421.334 7  97193429.51243  23735582.125                    23735592.250
 126517743.772 6  98585292.176 6  24075528.258                    24075539.145
 110330176.329 7  85971707.91446  20995113.914                    20995120.445
 113455672.124 7  88407078.91645  21589894.547                    21589903.938
 116083573.125 8  90454785.253 7  22089968.953                    22089980.148
 114906995.374 7  89538055.77145  21866055.602                    21866064.027
 109161893.193 8  85061284.165 7  20772817.086                    20772825.020
 107284214.984 8  83598181.022 8  20415485.008                    20415493.477
 11  8 14  1 52  0.0000000  0  8G04G29G02G30G25G10G12G05
 124813132.709 7  97257100.75643  23751131.133                    23751141.223
 126435781.063 6  98521425.206 6  24059931.195                    24059942.656
 110358507.819 8  85993784.41646  21000504.984                    21000511.480
 113425642.567 7  88383679.28745  21584180.000                    21584189.051
 116030231.153 8  90413220.147 7  22079818.781                    22079829.539
 114981454.838 7  89596076.13145  21880224.938                    21880233.391
 109174127.192 8  85070817.155 7  20775145.117                    20775153.188
 107254870.555 8  83575315.257 8  20409900.898                    20409908.957
 11  8 14  1 52 30.0000000  0  8G04G29G02G30G25G10G12G05
 124894806.299 7  97320742.53743  23766673.438                    23766683.164
 126353768.456 7  98457519.343 6  24044324.719                    24044335.918
 110386982.576 8  86015972.55846  21005923.742                    21005929.984
 113396210.215 8  88360745.00845  21578579.227                    21578588.430
 115977392.239 8  90372047.040 7  22069763.516                    22069774.480
 115056354.086 7  89654439.18145  21894477.781                    21894486.328
 109186941.711 8  85080802.492 7  20777583.492                    20777591.547
 107226094.346 8  83552892.266 8  20404425.172                    20404433.516
 11  8 14  1 53  0.0000000  0  8G04G29G02G30G25G10G12G05
 124976441.715 7  97384354.55843  23782207.469                    23782218.480
 126271707.250 7  98393575.598 6  24028709.570                    24028720.020
 110415600.577 8  86038272.32446  21011369.648                    21011376.125
 113367376.647 7  88338277.30746  21573092.617                    21573101.809
 115925058.987 8  90331267.951 7  22059804.711                    22059816.211
 115131690.977 7  89713143.25345  21908813.828                    21908822.508
 109200336.899 8  85091240.313 7  20780132.523                    20780140.539
 107197887.726 8  83530913.123 8  20399057.344                    20399065.652
 11  8 14  1 53 30.0000000  0  8G04G29G02G30G25G10G12G05
 125058038.606 7  97447936.56243  23797735.023                    23797745.371
 126189598.773 7  98329594.998 6  24013084.336                    24013094.973
 110444361.284 8  86060683.27546  21016842.719                    21016848.473
 113339143.068 7  88316277.12245  21567719.656                    21567729.297
 115873233.354 8  90290884.393 7  22049942.602                    22049953.980
 115207463.327 7  89772186.63645  21923232.844                    21923242.066
 109214312.961 8  85102130.753 7  20782792.078                    20782800.508
 107170251.289 7  83509378.263 8  20393798.352                    20393806.305
 11  8 14  1 54  0.0000000  0  8G04G29G02G30G25G10G12G05
 125139595.901 7  97511487.71743  23813254.906                    23813265.000
 126107443.248 6  98265577.775 6  23997449.719                    23997461.410
 110473263.099 8  86083204.17046  21022342.492                    21022349.082
 113311509.731 7  88294744.66845  21562461.484                    21562470.719
 115821916.638 8  90250897.402 7  22040177.344                    22040188.188
 115283667.901 7  89831566.80445  21937733.813                    21937742.910
 109228868.500 8  85113472.740 7  20785561.695                    20785569.813
 107143185.300 8  83488287.917 8  20388647.789                    20388656.293
 11  8 14  1 54 30.0000000  0  8G04G29G02G30G25G10G12G05
 125221112.885 7  97575007.44143  23828767.797                    23828776.738
 126025241.560 6  98201524.575 6  23981808.539                    23981819.297
 110502304.998 8  86105834.22846  21027869.070                    21027875.348
 113284477.304 8  88273680.45646  21557317.508                    21557326.824
 115771110.502 8  90211308.262 7  22030509.023                    22030520.133
 115360301.878 7  89891281.58945  21952317.047                    21952326.164
 109244002.701 8  85125265.634 7  20788441.633                    20788450.270
 107116690.247 8  83467642.458 8  20383605.742                    20383614.395
 11  8 14  1 55  0.0000000  0  8G04G29G02G30G25G10G12G05
 125302588.989 6  97638495.28443  23844272.070                    23844281.316
 125942994.623 6  98137436.077 6  23966157.484                    23966168.227
 110531486.209 8  86128572.83546  21033422.031                    21033428.457
 113258046.792 8  88253085.27145  21552287.734                    21552297.000
 115720816.853 8  90172118.457 7  22020938.555                    22020950.270
 115437362.709 7  89951328.97745  21966981.305                    21966990.207
 109259714.897 8  85137508.908 7  20791431.648                    20791439.980
 107090766.954 8  83447442.523 8  20378672.992                    20378681.266
 11  8 14  1 55 30.0000000  0  8G04G29G02G30G25G10G12G05
 125384023.815 6  97701950.97243  23859767.773                    23859778.004
 125860703.601 6  98073313.284 6  23950498.109                    23950508.336
 110560806.184 8  86151419.56746  21039001.516                    21039007.543
 113232219.071 8  88232959.79245  21547373.000                    21547382.191
 115671037.478 8  90133329.375 7  22011465.750                    22011476.879
 115514847.996 7  90011707.11345  21981725.914                    21981735.117
 109276005.111 8  85150202.592 7  20794531.953                    20794539.879
 107065415.794 8  83427688.408 8  20373848.352                    20373856.738
 11  8 14  1 56  0.0000000  0  8G04G29G02G30G25G10G12G05
 125465416.387 6  97765373.77843  23875255.320                    23875266.387
 125778369.426 6  98009156.838 6  23934830.352                    23934840.625
 110590263.641 8  86174373.43046  21044607.039                    21044612.938
 113206994.456 8  88213304.26045  21542572.867                    21542582.141
 115621773.851 8  90094942.170 7  22002091.375                    22002102.410
 115592754.585 7  90072413.54145  21996551.156                    21996559.926
 109292872.282 8  85163345.846 7  20797740.906                    20797749.625
 107040637.247 8  83408380.489 8  20369133.133                    20369141.418
 11  8 14  1 56 30.0000000  0  8G04G29G02G30G25G10G12G05
 125546766.169 6  97828763.22843  23890736.586                    23890747.504
 125695992.752 6  97944967.329 6  23919154.078                    23919164.934
 110619857.901 8  86197433.89546  21050238.516                    21050244.742
 113182373.824 8  88194119.36746  21537887.602                    21537896.723
 115573027.744 8  90056958.243 7  21992814.805                    21992825.996
 115671079.813 7  90133446.17945  22011456.031                    22011465.199
 109310316.211 8  85176938.532 7  20801060.852                    20801068.828
 107016431.933 8  83389519.235 8  20364527.164                    20364535.129
 11  8 14  1 57  0.0000000  0  8G04G29G02G30G25G10G12G05
 125628072.805 6  97892119.06943  23906208.773                    23906219.887
 125613574.891 6  97880745.731 6  23903469.844                    23903480.930
 110649588.353 8  86220600.47346  21055896.023                    21055902.375
 113158358.227 8  88175405.93845  21533317.547                    21533326.645
 115524801.171 8  90019379.122 7  21983637.875                    21983648.754
 115749820.784 7  90194802.77645  22026439.781                    22026448.895
 109328336.595 8  85190980.400 7  20804490.047                    20804498.367
 106992800.543 8  83371105.199 8  20360030.234                    20360038.691
 11  8 14  1 57 30.0000000  0  8G04G29G02G30G25G10G12G05
 125709335.595 6  97955440.72843  23921673.258                    23921683.684
 125531116.621 7  97816492.652 6  23887778.734                    23887789.410
 110679453.907 8  86243872.34246  21061579.336                    21061585.914
 113134948.078 8  88157164.27545  21528863.266                    21528872.074
 115477095.534 8  89982205.938 7  21974559.438                    21974570.945
 115828974.652 7  90256481.11045  22041502.695                    22041511.426
 109346931.955 8  85205470.299 7  20808028.602                    20808036.777
 106969743.279 8  83353138.532 8  20355642.609                    20355650.996
 11  8 14  1 58  0.0000000  0  8G04G29G02G30G25G10G12G05
 125790553.806 6  98018727.66643  23937128.273                    23937138.727
 125448619.188 7  97752209.074 6  23872079.781                    23872090.934
 110709453.732 8  86267248.83546  21067288.156                    21067294.688
 113112143.945 7  88139394.84545  21524523.055                    21524532.121
 115429912.479 8  89945439.962 7  21965581.070                    21965592.406
 115908538.870 7  90318479.20445  22056643.406                    22056652.324
 109366101.662 8  85220407.745 7  20811676.391                    20811684.531
 106947260.581 8  83335619.575 8  20351364.297                    20351372.449
 11  8 14  1 58 30.0000000  0  8G04G29G02G30G25G10G12G05
 125871727.333 6  98081979.77543  23952574.672                    23952585.172
 125366083.413 6  97687895.620 6  23856374.031                    23856384.570
 110739587.512 8  86290729.71246  21073022.180                    21073028.391
 113089946.638 7  88122098.26545  21520299.375                    21520308.535
 115383253.857 8  89909082.622 7  21956702.031                    21956713.254
 115988510.803 7  90380794.99445  22071861.148                    22071869.684
 109385845.088 8  85235792.240 7  20815433.633                    20815441.574
 106925353.076 8  83318548.824 8  20347195.617                    20347203.563
 11  8 14  1 59  0.0000000  0  8G04G29G02G30G25G10G12G05
 125952855.400 6  98145196.46043  23968013.156                    23968023.121
 125283510.197 6  97623552.973 6  23840660.555                    23840670.656
 110769854.179 8  86314314.13946  21078782.094                    21078788.473
 113068356.798 7  88105275.02446  21516190.969                    21516200.148
 115337121.271 8  89873135.178 7  21947923.320                    21947934.859
 116068887.559 7  90443426.23245  22087156.531                    22087164.824
 109406161.995 8  85251623.608 7  20819299.563                    20819307.770
 106904021.078 8  83301926.515 8  20343136.070                    20343144.094
 11  8 14  1 59 30.0000000  0  8G04G29G02G30G25G10G12G05
 126033937.171 6  98208377.07643  23983442.281                    23983452.363
 125200900.279 6  97559181.753 6  23824940.375                    23824951.402
 110800252.319 8  86338001.01946  21084566.227                    21084573.344
 113047374.419 8  88088925.14045  21512197.844                    21512207.223
 115291515.763 8  89837598.452 7  21939244.891                    21939256.164
 116149666.387 7  90506370.78545  22102528.086                    22102536.852
 109427050.460 8  85267900.335 7  20823274.406                    20823282.863
 106883264.292 8  83285752.428 8  20339186.414                    20339194.438
 11  8 14  2  0  0.0000000  0  8G04G29G02G30G25G10G12G05
 126114972.597 6  98271521.57743  23998862.422                    23998872.621
 125118255.210 6  97494783.133 6  23809213.133                    23809223.488
 110830782.201 8  86361790.55346  21090376.297                    21090382.410
 113027000.768 8  88073049.58146  21508320.984                    21508330.367
 115246439.606 8  89802474.200 7  21930667.039                    21930678.500
 116230844.751 7  90569626.63545  22117976.125                    22117984.676
 109448510.564 8  85284622.500 7  20827357.914                    20827366.496
 106863084.060 8  83270027.596 8  20335345.969                    20335354.121
 11  8 14  2  0 30.0000000  0  8G04G29G02G30G25G10G12G05
 126195961.107 6  98334629.48943  24014275.359                    24014284.352
 125035576.091 6  97430357.981 6  23793479.617                    23793490.336
 110861442.774 8  86385681.92446  21096210.523                    21096216.840
 113007236.076 8  88057648.53246  21504559.820                    21504569.273
 115201894.208 8  89767763.526 7  21922190.531                    21922201.785
 116312419.762 7  90633191.58344  22133499.102                    22133508.102
 109470541.560 8  85301789.514 7  20831550.422                    20831559.148
 106843480.310 8  83254751.971 8  20331615.344                    20331623.324
 11  8 14  2  1  0.0000000  0  8G04G29G02G30G25G10G12G05
 126276901.697 6  98397700.07443  24029677.195                    24029687.188
 124952863.492 6  97365906.720 6  23777740.047                    23777750.957
 110892232.546 8  86409673.95446  21102069.602                    21102075.980
 112988080.491 8  88042722.12245  21500914.891                    21500923.953
 115157880.652 8  89733467.270 7  21913814.875                    21913826.188
 116394388.357 7  90697063.21545  22149097.125                    22149105.426
 109493141.988 8  85319400.240 7  20835851.117                    20835859.492
 106824453.071 8  83239925.578 8  20327994.672                    20328002.969
 11  8 14  2  1 30.0000000  0  8G04G29G02G30G25G10G12G05
 126357794.450 6  98460733.40043  24045071.203                    24045080.848
 124870118.404 7  97301430.150 6  23761994.531                    23762004.777
 110923151.637 8  86433766.76246  21107953.406                    21107960.047
 112969534.868 8  88028270.99445  21497385.914                    21497394.930
 115114400.931 8  89699586.996 7  21905540.852                    21905552.297
 116476748.075 7  90761239.63444  22164769.508                    22164778.133
 109516311.468 8  85337454.380 7  20840260.367                    20840268.441
 106806002.975 8  83225548.904 8  20324483.539                    20324492.008
 11  8 14  2  2  0.0000000  0  8G04G29G02G30G25G10G12G05
 126438638.227 6  98523728.57943  24060455.148                    24060464.719
 124787342.216 7  97236929.315 6  23746242.172                    23746252.418
 110954198.348 8  86457959.01346  21113861.219                    21113867.910
 112951599.172 8  88014295.12646  21493972.367                    21493981.773
 115071456.092 8  89666123.506 7  21897368.797                    21897380.082
 116559495.417 7  90825718.08744  22180516.156                    22180524.344
 109540048.837 8  85355951.027 7  20844777.094                    20844785.922
 106788129.844 8  83211621.815 8  20321082.328                    20321090.645
 11  8 14  2  2 30.0000000  0  8G04G29G02G30G25G10G12G05
 126519432.781 6  98586685.42943  24075828.438                    24075839.555
 124704535.806 7  97172404.926 6  23730485.289                    23730495.242
 110985372.203 8  86482250.34046  21119793.500                    21119800.090
 112934273.849 8  88000794.86246  21490675.586                    21490684.953
 115029047.568 8  89633077.919 7  21889299.094                    21889310.172
 116642627.970 7  90890496.68344  22196335.609                    22196344.313
 109564352.771 8  85374889.162 7  20849402.266                    20849410.336
 106770833.715 8  83198144.335 8  20317790.992                    20317799.203
 11  8 14  2  3  0.0000000  0  8G04G29G02G30G25G10G12G05
 126600177.471 6  98649603.40543  24091193.922                    24091204.902
 124621700.407 7  97107857.942 6  23714721.641                    23714732.313
 111016672.419 8  86506640.12946  21125749.617                    21125756.211
 112917559.414 8  87987770.65645  21487494.406                    21487503.789
 114987177.043 8  89600451.556 7  21881330.961                    21881342.352
 116726142.979 7  90955573.32744  22212228.430                    22212236.574
 109589222.626 8  85394268.270 7  20854134.570                    20854143.281
 106754115.073 8  83185116.851 8  20314609.648                    20314617.703
 11  8 14  2  3 30.0000000  0  8G04G29G02G30G25G10G12G05
 126680872.246 6  98712482.49043  24106550.188                    24106560.605
 124538837.079 7  97043289.181 6  23698953.297                    23698963.617
 111048098.768 8  86531128.22246  21131729.953                    21131736.215
 112901456.249 8  87975222.72146  21484430.578                    21484440.348
 114945845.943 8  89568245.526 7  21873466.086                    21873477.574
 116810037.567 7  91020945.73645  22228192.492                    22228201.445
 109614657.514 8  85414087.663 7  20858974.977                    20858983.313
 106737974.078 8  83172539.480 8  20311538.523                    20311546.367
 11  8 14  2  4  0.0000000  0  8G04G29G02G30G25G10G12G05
 126761516.593 6  98775322.25643  24121896.070                    24121906.148
 124455946.882 7  96978699.492 6  23683179.781                    23683189.867
 111079650.442 8  86555713.96446  21137733.875                    21137740.430
 112885964.611 8  87963151.31245  21481482.328                    21481491.816
 114905055.694 8  89536460.940 7  21865703.875                    21865715.242
 116894308.787 7  91086611.61645  22244228.969                    22244237.410
 109640656.215 8  85434346.395 7  20863922.336                    20863930.832
 106722410.835 8  83160412.298 8  20308576.688                    20308585.195
 11  8 14  2  4 30.0000000  0  8G04G29G02G30G25G10G12G05
 126842110.059 7  98838122.38643  24137232.992                    24137242.594
 124373031.128 7  96914089.873 6  23667401.305                    23667411.813
 111111326.564 8  86580396.68046  21143762.031                    21143767.883
 112871085.099 8  87951556.88846  21478651.375                    21478660.441
 114864807.974 8  89505099.099 7  21858044.961                    21858056.438
 116978954.156 7  91152569.04745  22260336.391                    22260344.492
 109667218.359 8  85455044.174 7  20868977.156                    20868985.254
 106707425.722 8  83148735.620 8  20305724.945                    20305732.988
 11  8 14  2  5  0.0000000  0  8G04G29G02G30G25G10G12G05
 126922652.015 7  98900882.31543  24152559.531                    24152569.094
 124290091.125 7  96849461.338 6  23651618.508                    23651628.309
 111143126.513 8  86605175.88146  21149812.945                    21149819.348
 112856817.613 8  87940439.36646  21475936.305                    21475945.426
 114825103.818 8  89474160.813 7  21850489.484                    21850500.656
 117063970.795 7  91218815.79045  22276514.781                    22276523.285
 109694342.357 8  85476179.761 7  20874138.367                    20874146.496
 106693018.571 8  83137509.291 8  20302983.875                    20302991.301
 11  8 14  2  5 30.0000000  0  8G04G29G02G30G25G10G12G05
 127003141.795 6  98963601.65743  24167876.023                    24167885.680
 124207127.335 7  96784814.266 6  23635831.039                    23635840.926
 111175049.121 8  86630050.67146  21155887.555                    21155893.711
 112843162.291 8  87929798.86146  21473337.742                    21473346.910
 114785944.403 8  89443647.008 7  21843037.656                    21843048.824
 117149355.632 7  91285349.42445  22292762.859                    22292771.539
 109722026.787 8  85497752.049 7  20879406.844                    20879414.547
 106679189.065 8  83126733.082 8  20300351.578                    20300359.406
 11  8 14  2  6  0.0000000  0  8G04G29G02G30G25G10G12G05
 127083579.142 6  99026280.11442  24183181.602                    24183192.523
 124124141.027 7  96720149.650 6  23620039.219                    23620049.676
 111207093.708 8  86655020.49746  21161985.750                    21161991.965
 112830119.200 8  87919635.41746  21470855.602                    21470864.648
 114747330.898 8  89413558.581 7  21835689.750                    21835700.996
 117235105.758 7  91352167.70544  22309080.234                    22309089.305
 109750270.619 8  85519760.242 7  20884781.563                    20884789.211
 106665937.445 8  83116407.180 8  20297829.898                    20297838.258
 11  8 14  2  6 30.0000000  0  8G04G29G02G30G25G10G12G05
 127163963.604 6  99088917.36243  24198478.289                    24198489.145
 124041133.512 7  96655468.534 6  23604242.852                    23604254.090
 111239259.616 7  86680084.86246  21168106.648                    21168112.793
 112817688.569 7  87909949.21646  21468490.211                    21468499.500
 114709264.733 8  89383896.651 7  21828446.094                    21828457.418
 117321218.186 7  91419268.29444  22325466.781                    22325475.348
 109779072.712 7  85542203.438 7  20890262.211                    20890269.957
 106653263.711 8  83106531.569 8  20295417.930                    20295425.996
 11  8 14  2  7  0.0000000  0  8G04G29G02G30G25G10G12G05
 127244294.937 6  99151513.25043  24213765.477                    24213775.453
 123958106.108 7  96590771.897 6  23588443.664                    23588453.930
 111271546.408 8  86705243.41646  21174250.594                    21174256.449
 112805870.774 7  87900740.56246  21466241.352                    21466250.160
 114671747.433 8  89354662.411 7  21821306.820                    21821318.043
 117407690.248 7  91486649.12544  22341921.922                    22341930.992
 109808432.172 8  85565080.947 7  20895849.148                    20895856.906
 106641167.654 8  83097106.104 8  20293116.289                    20293124.645
 11  8 14  2  7 30.0000000  0  8G04G29G02G30G25G10G12G05
 127324572.616 6  99214067.27543  24229042.141                    24229052.543
 123875059.806 7  96526060.540 6  23572640.398                    23572651.031
 111303953.463 7  86730495.68846  21180417.547                    21180423.543
 112794665.756 8  87892009.40046  21464109.039                    21464118.059
 114634780.051 8  89325856.683 7  21814271.891                    21814283.188
 117494519.030 7  91554307.91344  22358444.891                    22358453.605
 109838347.992 7  85588391.981 7  20901541.406                    20901549.691
 106629649.537 8  83088130.975 8  20290924.664                    20290932.527
 11  8 14  2  8  0.0000000  0  8G04G29G02G30G25G10G12G05
 127404796.381 6  99276579.33743  24244309.031                    24244318.348
 123791996.053 7  96461335.576 6  23556833.906                    23556843.969
 111336479.961 8  86755841.02846  21186607.109                    21186613.457
 112784073.759 8  87883755.92646  21462093.336                    21462102.813
 114598363.992 8  89297480.539 7  21807342.141                    21807353.664
 117581701.802 7  91622242.53944  22375035.016                    22375043.656
 109868818.549 8  85612135.277 7  20907339.797                    20907348.254
 106618709.310 8  83079606.159 8  20288842.625                    20288850.504
 11  8 14  2  8 30.0000000  0  8G04G29G02G30G25G10G12G05
 127484965.290 6  99339048.63643  24259563.688                    24259573.980
 123708915.415 7  96396597.477 6  23541023.758                    23541035.035
 111369124.637 7  86781278.46146  21192818.898                    21192825.809
 112774094.287 8  87875979.74146  21460194.586                    21460203.512
 114562499.893 8  89269534.504 7  21800517.438                    21800528.879
 117669235.399 7  91690450.50844  22391692.578                    22391701.363
 109899842.337 7  85636309.652 7  20913243.672                    20913252.098
 106608346.292 8  83071531.117 8  20286870.305                    20286878.777
 11  8 14  2  9  0.0000000  0  8G04G29G02G30G25G10G12G05
 127565079.373 6  99401475.17643  24274809.406                    24274819.125
 123625819.484 7  96331847.453 6  23525211.023                    23525221.770
 111401887.256 8  86806807.79846  21199053.258                    21199059.906
 112764727.767 8  87868681.19046  21458411.875                    21458420.277
 114527189.348 8  89242019.824 7  21793798.117                    21793809.484
 117757117.012 7  91758929.66444  22408415.875                    22408425.109
 109931418.741 8  85660914.648 7  20919252.680                    20919260.496
 106598560.739 8  83063906.044 8  20285008.523                    20285016.789
 11  8 14  2  9 30.0000000  0  9G04G29G26G02G30G25G10G12G05
 127645138.373 6  99463858.82142  24290043.914                    24290053.469
 123542709.491 7  96267086.470 6  23509395.781                    23509406.137
 130537214.59616                  24840414.258
 111434767.486 8  86832428.77546  21205310.148                    21205316.461
 112755974.106 8  87861860.18546  21456746.039                    21456754.961
 114492433.555 8  89214937.406 7  21787184.242                    21787195.551
 117845343.919 7  91827677.88845  22425204.953                    22425213.730
 109963546.195 8  85685949.030 7  20925366.156                    20925374.148
 106589352.670 8  83056730.959 8  20283256.055                    20283264.086
 11  8 14  2 10  0.0000000  0  9G04G29G26G02G30G25G10G12G05
 127725142.088 6  99526199.39043  24305268.023                    24305277.797
 123459587.183 7  96202315.925 6  23493577.906                    23493588.563
 130444511.216 6 101645149.90053  24822773.750                    24822785.539
 111467764.803 8  86858140.99046  21211589.180                    21211595.996
 112747833.799 8  87855517.12246  21455197.281                    21455206.211
 114458234.022 8  89188288.459 7  21780676.281                    21780687.824
 117933913.707 7  91896693.28544  22442059.305                    22442068.270
 109996223.739 8  85711412.053 7  20931584.516                    20931592.504
 106580722.296 8  83050006.025 8  20281613.492                    20281621.793
 11  8 14  2 10 30.0000000  0  9G04G29G26G02G30G25G10G12G05
 127805090.570 6  99588496.91743  24320481.961                    24320491.453
 123376454.015 7  96137536.894 6  23477758.391                    23477768.891
 130351676.165 6 101572810.98743  24805108.148                    24805119.270
 111500878.748 8  86883944.08246  21217890.977                    21217897.227
 112740306.903 8  87849652.04745  21453765.078                    21453773.813
 114424592.084 8  89162073.989 7  21774274.805                    21774285.664
 118022823.727 7  91965973.79745  22458978.555                    22458986.844
 110029450.239 8  85737302.839 7  20937907.250                    20937915.406
 106572669.242 8  83043730.945 8  20280081.109                    20280089.414
 11  8 14  2 11  0.0000000  0  9G04G29G26G02G30G25G10G12G05
 127884982.600 6  99650750.44343  24335685.391                    24335694.082
 123293310.275 7  96072749.642 6  23461937.109                    23461947.020
 130258710.938 6 101500370.63243  24787417.070                    24787428.309
 111534107.951 7  86909836.99346  21224214.070                    21224220.504
 112733392.479 8  87844264.21445  21452448.813                    21452458.008
 114391507.990 8  89136294.211 7  21767978.555                    21767989.848
 118112070.325 7  92035516.59544  22475961.328                    22475969.840
 110063223.504 8  85763619.666 7  20944334.297                    20944342.293
 106565192.736 8  83037905.123 8  20278658.766                    20278666.957
 11  8 14  2 11 30.0000000  0  9G04G29G26G02G30G25G10G12G05
 127964817.699 6  99712959.61643  24350877.055                    24350886.516
 123210157.197 7  96007955.119 6  23446113.430                    23446123.238
 130165618.454 6 101427831.12343  24769702.109                    24769713.023
 111567451.629 8  86935819.09646  21230559.141                    21230565.621
 112727090.438 7  87839353.56346  21451249.688                    21451258.320
 114358982.722 8  89110949.874 7  21761789.383                    21761800.711
 118201650.213 7  92105319.08744  22493007.875                    22493016.797
 110097542.095 8  85790361.430 7  20950865.117                    20950873.281
 106558292.527 8  83032528.371 8  20277345.352                    20277353.398
 11  8 14  2 12  0.0000000  0  9G04G29G26G02G30G25G10G12G05
 128044595.738 6  99775124.32043  24366058.313                    24366068.148
 123126996.127 7  95943154.378 6  23430287.930                    23430298.328
 130072401.580 6 101355194.65443  24751963.594                    24751974.402
 111600909.290 7  86961890.02846  21236926.352                    21236932.211
 112721400.638 7  87834919.98246  21450167.477                    21450175.758
 114327017.482 8  89086041.927 7  21755706.688                    21755717.527
 118291560.690 7  92175379.17544  22510116.883                    22510126.457
 110132404.859 7  85817527.216 7  20957498.836                    20957507.094
 106551968.187 8  83027600.340 8  20276141.758                    20276149.711
 11  8 14  2 12 30.0000000  0  9G04G29G26G02G30G25G10G12G05
 128124316.427 6  99837244.34343  24381228.023                    24381237.949
 123043828.311 7  95878348.393 6  23414462.063                    23414471.641
 129979063.075 6 101282463.42943  24734201.000                    24734212.441
 111634480.436 7  86988049.39246  21243314.266                    21243320.852
 112716322.924 7  87830963.35245  21449200.875                    21449209.051
 114295613.232 8  89061571.120 7  21749730.500                    21749741.578
 118381799.052 7  92245694.74944  22527288.938                    22527298.426
 110167810.395 7  85845115.945 7  20964236.648                    20964244.852
 106546219.474 8  83023120.851 8  20275047.836                    20275055.855
 11  8 14  2 13  0.0000000  0  9G04G29G26G02G30G25G10G12G05
 128203979.504 6  99899319.46643  24396387.969                    24396397.090
 122960655.308 7  95813538.359 6  23398634.664                    23398644.711
 129885606.107 6 101209639.87643  24716417.617                    24716427.566
 111668164.185 8  87014296.48646  21249724.086                    21249730.211
 112711857.207 7  87827483.60146  21448350.414                    21448359.883
 114264771.129 8  89037538.335 7  21743861.617                    21743872.949
 118472362.455 7  92316263.61344  22544522.672                    22544531.684
 110203757.477 8  85873126.663 7  20971076.969                    20971084.848
 106541046.412 8  83019089.916 8  20274063.461                    20274071.379
 11  8 14  2 13 30.0000000  0  9G04G29G26G02G30G25G10G12G05
 128283584.647 6  99961349.46343  24411535.625                    24411546.207
 122877478.364 7  95748725.248 6  23382806.492                    23382816.465
 129792033.236 6 101136726.04943  24698610.664                    24698622.066
 111701960.190 8  87040631.04846  21256155.172                    21256161.328
 112708003.176 7  87824480.47946  21447617.180                    21447626.445
 114234492.074 8  89013944.293 7  21738099.406                    21738110.707
 118563247.792 7  92387083.32644  22561817.813                    22561826.473
 110240244.553 8  85901558.152 7  20978019.984                    20978028.191
 106536448.360 8  83015507.049 8  20273188.602                    20273196.871
 11  8 14  2 14  0.0000000  0  9G04G29G26G02G30G25G10G12G05
 128363131.481 6 100023334.03643  24426673.242                    24426683.348
 122794298.529 7  95683909.876 6  23366978.047                    23366987.582
 129698347.816 6 101063724.51343  24680783.188                    24680793.652
 111735868.052 7  87067052.78146  21262607.813                    21262613.594
 112704760.564 8  87821953.79846  21447000.234                    21447009.418
 114204776.916 8  88990789.661 7  21732445.117                    21732456.152
 118654452.399 7  92458151.83744  22579173.609                    22579181.730
 110277269.459 8  85930408.729 7  20985065.797                    20985073.891
 106532425.085 8  83012372.050 8  20272423.328                    20272430.930
 11  8 14  2 14 30.0000000  0  9G04G29G26G02G30G25G10G12G05
 128442619.649 6 100085272.85643  24441799.492                    24441809.449
 122711117.194 7  95619093.328 6  23351148.547                    23351158.652
 129604552.603 6 100990637.41343  24662934.547                    24662945.332
 111769886.731 7  87093560.85246  21269081.383                    21269087.410
 112702128.931 7  87819903.19446  21446499.742                    21446508.875
 114175626.585 8  88968075.150 7  21726897.844                    21726908.586
 118745972.954 7  92529466.52544  22596589.102                    22596597.781
 110314831.195 7  85959677.617 7  20992213.570                    20992221.695
 106528975.963 8  83009684.452 8  20271766.531                    20271774.434
 11  8 14  2 15  0.0000000  0  9G04G29G26G02G30G25G10G12G05
 128522048.966 6 100147165.83943  24456914.859                    24456924.473
 122627935.893 7  95554276.800 6  23335319.578                    23335329.598
 129510650.481 6 100917467.00443  24645065.258                    24645075.895
 111804015.827 8  87120154.96346  21275576.156                    21275581.879
 112700108.091 8  87818328.53345  21446114.867                    21446123.898
 114147042.020 8  88945801.491 7  21721458.438                    21721469.438
 118837806.893 7  92601025.40844  22614064.828                    22614073.125
 110352928.169 8  85989363.576 7  20999463.203                    20999471.348
 106526100.523 8  83007443.876 8  20271219.250                    20271227.336
 11  8 14  2 15 30.0000000  0  9G04G29G26G02G30G25G10G12G05
 128601419.035 6 100209012.64243  24472018.641                    24472027.832
 122544755.718 7  95489461.197 6  23319490.555                    23319501.473
 129416644.378 6 100844215.57743  24627176.914                    24627187.125
 111838254.599 8  87146834.54246  21282091.219                    21282097.297
 112698697.696 7  87817229.53646  21445846.563                    21445855.652
 114119024.061 8  88923969.334 7  21716126.477                    21716137.902
 118929951.288 7  92672826.21244  22631599.383                    22631607.730
 110391558.798 8  86019465.367 7  21006814.344                    21006822.484
 106523798.435 8  83005650.066 8  20270781.203                    20270789.035
 11  8 14  2 16  0.0000000  0  9G04G29G26G02G30G25G10G12G05
 128680729.991 6 100270813.41943  24487109.742                    24487120.418
 122461578.308 7  95424647.731 6  23303662.297                    23303672.887
 129322537.339 6 100770885.48743  24609268.859                    24609279.125
 111872602.912 8  87173599.48146  21288627.320                    21288633.504
 112697897.504 7  87816606.02646  21445694.344                    21445703.262
 114091573.779 8  88902579.542 7  21710902.914                    21710913.699
 119022403.570 7  92744866.93244  22649192.203                    22649200.457
 110430721.656 8  86049981.887 7  21014267.016                    21014275.027
 106522069.576 8  83004302.933 8  20270452.555                    20270460.176
 11  8 14  2 16 30.0000000  0  9G04G29G26G02G30G25G10G12G05
 128759981.094 6 100332567.53743  24502191.586                    24502201.691
 122378404.809 7  95359837.318 6  23287835.195                    23287845.570
 129228332.437 6 100697479.13643  24591342.477                    24591352.551
 111907059.813 7  87200449.03846  21295184.633                    21295190.176
 112697706.832 7  87816457.46245  21445657.773                    21445667.117
 114064691.770 8  88881632.552 7  21705787.258                    21705798.422
 119115160.256 6  92817144.85144  22666843.141                    22666851.871
 110470414.959 8  86080911.735 7  21021820.469                    21021828.496
 106520912.880 8  83003401.638 8  20270232.383                    20270240.652
 11  8 14  2 17  0.0000000  0  9G04G29G26G02G30G25G10G12G05
 128839172.374 6 100394275.00942  24517260.633                    24517270.930
 122295236.527 7  95295030.957 6  23272008.766                    23272018.504
 129134032.363 6 100623998.63443  24573397.875                    24573407.656
 111941624.869 7  87227382.87846  21301761.508                    21301768.051
 112698125.367 7  87816783.59946  21445737.680                    21445746.938
 114038378.854 8  88861129.013 7  21700780.305                    21700791.434
 119208218.688 6  92889657.90844  22684551.719                    22684560.113
 110510637.047 8  86112253.625 7  21029473.938                    21029482.328
 106520327.929 8  83002945.859 8  20270120.922                    20270128.641
 11  8 14  2 17 30.0000000  0  9G04G29G26G02G30G25G10G12G05
 128918303.574 6 100455935.68242  24532318.781                    24532328.609
 122212075.078 6  95230229.937 6  23256183.414                    23256194.000
 129039640.243 6 100550446.39243  24555434.969                    24555445.848
 111976297.781 8  87254400.75146  21308359.875                    21308365.941
 112699152.796 7  87817584.21046  21445933.258                    21445942.125
 114012635.987 8  88841069.667 7  21695881.570                    21695892.875
 119301576.100 6  92962403.91044  22702317.047                    22702325.055
 110551386.342 8  86144006.324 7  21037228.453                    21037236.477
 106520314.388 8  83002935.334 8  20270118.344                    20270126.602
 11  8 14  2 18  0.0000000  0  9G04G29G26G02G30G25G10G12G05
 128997374.358 6 100517549.32543  24547365.609                    24547375.277
 122128921.812 6  95165435.305 6  23240359.945                    23240369.891
 128945159.154 6 100476824.86643  24537455.672                    24537465.887
 112011077.926 8  87281502.18946  21314977.984                    21314984.254
 112700788.456 7  87818858.76446  21446244.094                    21446253.410
 113987463.790 8  88821454.995 7  21691091.625                    21691102.734
 119395229.645 7  93035380.66844  22720138.969                    22720147.652
 110592661.350 8  86176168.682 7  21045082.813                    21045091.254
 106520871.669 8  83003369.605 8  20270224.156                    20270232.219
 11  8 14  2 18 30.0000000  0  9G04G29G26G02G30G25G10G12G05
 129076384.538 6 100579115.73642  24562401.117                    24562410.617
 122045778.034 6  95100648.073 6  23224537.859                    23224548.070
 128850591.921 6 100403136.18343  24519460.016                    24519470.270
 112045964.464 8  87308686.52746  21321616.930                    21321622.980
 112703031.733 7  87820606.78946  21446671.406                    21446680.375
 113962862.897 8  88802285.489 7  21686409.984                    21686421.051
 119489176.236 6  93108585.79544  22738015.398                    22738025.102
 110634459.955 8  86208739.026 7  21053037.125                    21053045.039
 106521998.955 8  83004248.035 8  20270438.750                    20270446.711
 11  8 14  2 19  0.0000000  0  9G04G29G26G02G30G25G10G12G05
 129155333.671 6 100640634.57843  24577424.016                    24577434.305
 121962645.398 6  95035869.541 6  23208718.578                    23208728.492
 128755941.651 6 100329382.83543  24501448.719                    24501459.430
 112080956.889 7  87335953.36646  21328275.859                    21328282.090
 112705882.327 7  87822828.05046  21447213.938                    21447222.688
 113938834.146 8  88783561.809 7  21681837.383                    21681848.719
 119583413.195 6  93182017.16844  22755948.414                    22755958.246
 110676780.523 8  86241716.096 7  21061090.461                    21061098.281
 106523695.665 8  83005570.175 8  20270761.609                    20270769.605
 11  8 14  2 19 30.0000000  0  9G04G29G26G02G30G25G10G12G05
 129234221.883 6 100702105.94143  24592435.602                    24592445.746
 121879524.995 7  94971100.545 6  23192900.711                    23192911.316
 128661211.522 6 100255567.25643  24483421.352                    24483432.934
 112116054.827 7  87363302.42746  21334954.813                    21334960.734
 112709339.522 7  87825521.98046  21447871.289                    21447880.301
 113915378.152 8  88765284.432 7  21677374.141                    21677385.445
 119677937.599 6  93255672.52044  22773935.875                    22773944.930
 110719621.905 8  86275098.994 7  21069242.672                    21069250.750
 106525961.328 8  83007335.657 8  20271192.992                    20271200.750
 11  8 14  2 20  0.0000000  0  9G04G29G26G02G30G25G10G12G05
 129313048.896 6 100763529.61143  24607436.102                    24607446.613
 121796418.296 6  94906342.205 6  23177086.531                    23177096.281
 128566404.495 6 100181691.69743  24465380.594                    24465390.973
 112151257.687 7  87390733.24746  21341653.742                    21341659.695
 112713402.677 7  87828688.09046  21448644.852                    21448654.055
 113892495.608 8  88747453.902 7  21673019.508                    21673030.520
 119772746.309 6  93329549.39244  22791977.406                    22791987.168
 110762981.754 8  86308885.892 7  21077493.578                    21077501.977
 106528795.145 8  83009543.854 8  20271731.750                    20271740.125
 11  8 14  2 20 30.0000000  0  9G04G29G26G02G30G25G10G12G05
 129391814.527 6 100824905.51042  24622424.336                    24622435.156
 121713326.789 6  94841595.703 6  23161274.094                    23161283.840
 128471523.527 6 100107758.54943  24447324.594                    24447335.805
 112186565.262 7  87418245.66146  21348372.328                    21348378.805
 112718071.270 7  87832325.97146  21449533.328                    21449542.176
 113870187.204 8  88730070.758 7  21668774.539                    21668785.199
 119867836.856 6  93403645.90444  22810073.477                    22810081.875
 110806858.315 8  86343075.429 7  21085843.125                    21085851.453
 106532196.421 8  83012194.229 8  20272379.109                    20272387.414
 11  8 14  2 21  0.0000000  0  9G04G29G26G02G30G25G10G12G05
 129470518.369 6 100886233.18643  24637402.117                    24637412.648
 121630252.043 6  94776862.253 6  23145465.383                    23145475.336
 128376571.792 6 100033770.27543  24429256.797                    24429266.789
 112221976.884 7  87445839.14446  21355111.039                    21355117.223
 112723344.566 7  87836435.05545  21450536.297                    21450545.848
 113848453.416 8  88713135.354 7  21664638.492                    21664649.668
 119963206.105 7  93477959.58544  22828221.594                    22828230.504
 110851249.999 8  86377666.348 7  21094290.570                    21094298.879
 106536164.385 8  83015286.175 8  20273134.563                    20273142.473
 11  8 14  2 21 30.0000000  0  9G04G29G26G02G30G25G10G12G05
 129549160.446 6 100947512.77043  24652366.813                    24652377.141
 121547195.337 7  94712142.856 6  23129660.094                    23129669.613
 128281552.401 6  99959729.35443  24411174.664                    24411185.023
 112257491.844 8  87473513.16646  21361869.281                    21361875.285
 112729221.799 7  87841014.72545  21451654.750                    21451664.023
 113827294.790 8  88696648.147 7  21660612.000                    21660622.914
 120058851.044 6  93552488.09044  22846421.703                    22846431.129
 110896154.741 8  86412657.056 7  21102835.734                    21102844.238
 106540698.235 8  83018819.068 8  20273996.930                    20274004.844
 11  8 14  2 22  0.0000000  0  9G04G29G26G02G30G25G10G12G05
 129627740.586 6 101008744.06743  24667320.445                    24667329.699
 121464158.224 7  94647438.702 6  23113859.156                    23113868.480
 128186468.428 6  99885638.03743  24393080.219                    24393091.328
 112293109.986 8  87501267.57646  21368647.406                    21368653.445
 112735702.476 7  87846064.62745  21452888.008                    21452897.211
 113806712.127 8  88680609.732 7  21656695.563                    21656706.563
 120154768.840 7  93627229.20544  22864674.594                    22864683.609
 110941571.006 8  86448046.354 7  21111477.977                    21111486.402
 106545797.546 8  83022792.579 8  20274967.305                    20274975.895
 11  8 14  2 22 30.0000000  0  8G29G26G02G30G25G10G12G05
 121381142.554 7  94582751.242 6  23098061.773                    23098070.949
 128091323.177 7  99811498.98143  24374975.641                    24374985.832
 112328831.034 8  87529102.18246  21375444.875                    21375450.758
 112742785.952 7  87851584.23845  21454235.789                    21454244.809
 113786705.969 8  88665020.543 7  21652888.133                    21652899.059
 120250956.816 7  93702180.85544  22882978.359                    22882987.594
 110987497.234 8  86483833.027 7  21120217.141                    21120225.996
 106551461.675 8  83027206.224 8  20276044.961                    20276053.438
 11  8 14  2 23  0.0000000  0  8G29G26G02G30G25G10G12G05
 121298149.415 7  94518081.336 6  23082268.742                    23082278.352
 127996119.490 7  99737314.35043  24356858.883                    24356868.137
 112364653.975 7  87557016.17546  21382261.563                    21382267.469
 112750471.137 7  87857572.70246  21455698.586                    21455707.457
 113767276.626 8  88649880.821 7  21649190.828                    21649202.109
 120347412.084 6  93777340.81044  22901333.289                    22901342.453
 111033931.010 8  86520015.197 7  21129053.641                    21129061.406
 106557689.379 8  83032059.013 8  20277230.133                    20277238.395
 11  8 14  2 23 30.0000000  0  8G29G26G02G30G25G10G12G05
 121215180.261 7  94453430.091 6  23066479.383                    23066489.422
 127900860.509 7  99663086.58943  24338731.211                    24338739.840
 112400578.543 8  87585009.37346  21389097.703                    21389103.781
 112758757.385 7  87864029.53346  21457275.680                    21457284.184
 113748424.603 8  88635190.951 7  21645603.328                    21645614.531
 120444131.614 6  93852706.67544  22919737.922                    22919747.523
 111080870.303 8  86556591.278 7  21137985.820                    21137993.875
 106564479.830 8  83037350.290 8  20278522.563                    20278530.406
 11  8 14  2 24  0.0000000  0  8G29G26G02G30G25G10G12G05
 121132236.495 7  94388798.646 7  23050696.188                    23050706.047
 127805549.315 7  99588818.24443  24320594.750                    24320603.105
 112436604.228 7  87613081.35946  21395952.836                    21395959.293
 112767643.565 7  87870953.83845  21458965.992                    21458975.348
 113730150.166 8  88620951.156 7  21642126.016                    21642136.773
 120541112.284 6  93928276.02344  22938193.016                    22938202.617
 111128313.161 8  86593559.744 7  21147013.727                    21147021.902
 106571832.063 8  83043079.326 8  20279921.477                    20279929.461
 11  8 14  2 24 30.0000000  0  8G29G26G02G30G25G10G12G05
 121049319.888 7  94324188.321 6  23034917.891                    23034927.430
 127710189.011 7  99514511.57443  24302447.953                    24302456.508
 112472730.804 8  87641231.96146  21402827.813                    21402833.926
 112777128.975 7  87878345.07745  21460771.477                    21460780.457
 113712453.936 8  88607161.915 7  21638758.359                    21638769.523
 120638351.468 7  94004046.81944  22956696.836                    22956706.430
 111176258.055 8  86630919.405 7  21156137.711                    21156145.840
 106579745.156 8  83049245.407 8  20281427.305                    20281435.223
 11  8 14  2 25  0.0000000  0  8G29G26G02G30G25G10G12G05
 120966432.076 7  94259600.430 7  23019144.672                    23019154.434
 127614782.777 6  99440169.16143  24284292.742                    24284302.078
 112508957.772 8  87669460.78746  21409721.461                    21409727.965
 112787212.842 7  87886202.63745  21462690.180                    21462699.492
 113695336.210 8  88593823.454 7  21635500.961                    21635511.945
 120735846.024 6  94080016.56544  22975249.398                    22975259.480
 111224702.689 8  86668668.475 7  21165355.859                    21165364.281
 106588218.486 8  83055848.030 8  20283039.766                    20283047.879
 11  8 14  2 25 30.0000000  0  8G29G26G02G30G25G10G12G05
 120883574.712 7  94195036.270 7  23003377.563                    23003387.469
 127519334.190 6  99365793.72743  24266127.922                    24266139.551
 112545284.688 8  87697767.49746  21416634.367                    21416640.199
 112797894.413 7  87894525.94145  21464723.141                    21464731.543
 113678797.650 8  88580936.278 7  21632353.953                    21632365.102
 120833593.580 6  94156183.45444  22993849.984                    22993859.879
 111273645.313 8  86706805.584 7  21174669.867                    21174678.086
 106597251.288 8  83062886.606 8  20284758.125                    20284766.625
 11  8 14  2 26  0.0000000  0  8G29G26G02G30G25G10G12G05
 120800749.409 7  94130497.097 6  22987615.930                    22987625.727
 127423846.292 6  99291387.70643  24247957.664                    24247969.043
 112581711.448 8  87726152.01946  21423566.250                    21423571.895
 112809172.882 7  87903314.37245  21466869.273                    21466877.797
 113662838.762 8  88568500.806 7  21629316.992                    21629328.039
 120931591.528 6  94232545.47044  23012498.602                    23012507.984
 111323084.362 8  86745329.523 7  21184077.672                    21184085.820
 106606842.462 8  83070360.271 8  20286583.625                    20286591.574
 11  8 14  2 26 30.0000000  0  8G29G26G02G30G25G10G12G05
 120717957.267 7  94065983.776 6  22971861.172                    22971871.203
 127328321.928 6  99216953.26643  24229780.469                    24229790.859
 112618237.093 8  87754613.57946  21430516.766                    21430522.813
 112821046.873 7  87912566.83845  21469128.672                    21469137.500
 113647459.372 8  88556516.882 7  21626390.508                    21626401.434
 121029836.531 6  94309100.00744  23031193.547                    23031202.973
 111373017.049 8  86784238.116 7  21193579.344                    21193587.777
 106616990.791 8  83078268.079 8  20288514.797                    20288522.965
 11  8 14  2 27  0.0000000  0  8G29G26G02G30G25G10G12G05
 120635200.168 7  94001497.771 7  22956112.883                    22956122.227
 127232764.452 6  99142493.03643  24211596.109                    24211607.328
 112654861.421 8  87783152.03746  21437485.906                    21437491.809
 112833515.495 7  87922282.65145  21471501.406                    21471510.172
 113632659.929 8  88544984.871 7  21623574.281                    21623585.266
 121128325.710 6  94385844.77444  23049935.938                    23049945.145
 111423441.601 8  86823529.979 7  21203175.125                    21203183.223
 106627695.828 7  83086609.692 8  20290551.531                    20290559.742
 11  8 14  2 27 30.0000000  0  8G29G26G02G30G25G10G12G05
 120552479.345 7  93937040.035 7  22940372.266                    22940381.684
 127137176.855 6  99068009.31743  24193406.227                    24193417.793
 112691584.081 8  87811767.12846  21444473.813                    21444479.895
 112846577.416 7  87932460.77746  21473986.734                    21473995.641
 113618440.461 8  88533904.777 7  21620868.242                    21620879.074
 121227055.887 6  94462777.35643  23068723.867                    23068732.793
 111474355.746 8  86863203.347 7  21212863.398                    21212871.227
 106638955.847 7  83095383.754 8  20292694.297                    20292702.547
 11  8 14  2 28  0.0000000  0  8G29G26G02G30G25G10G12G05
 120469796.321 7  93872611.759 6  22924637.641                    22924647.027
 127041562.251 6  98993504.52343  24175211.961                    24175221.965
 112728403.988 8  87840457.98846  21451480.508                    21451486.750
 112860231.450 8  87943100.28345  21476585.102                    21476593.840
 113604800.919 8  88523276.571 7  21618272.813                    21618284.133
 121326024.144 6  94539895.45844  23087557.125                    23087565.977
 111525757.241 8  86903256.472 7  21222645.047                    21222653.063
 106650769.426 8  83104589.165 8  20294942.344                    20294950.832
 11  8 14  2 28 30.0000000  0  8G29G26G02G30G25G10G12G05
 120387152.920 7  93808214.388 6  22908910.680                    22908921.219
 126945924.029 6  98918981.31043  24157012.422                    24157022.598
 112765321.315 8  87869224.76646  21458505.828                    21458512.293
 112874476.967 7  87954200.69845  21479296.273                    21479305.180
 113591742.045 8  88513100.840 7  21615787.930                    21615798.668
 121425228.029 7  94617197.17044  23106434.859                    23106443.348
 111577644.241 8  86943687.908 7  21232518.422                    21232526.906
 106663136.190 8  83114225.629 8  20297295.781                    20297303.902
 11  8 14  2 29  0.0000000  0  8G29G26G02G30G25G10G12G05
 120304550.838 7  93743849.214 6  22893192.375                    22893201.746
 126850265.341 7  98844442.15243  24138809.008                    24138819.270
 112802335.726 8  87898067.18546  21465549.320                    21465555.316
 112889312.709 7  87965761.02345  21482119.133                    21482127.809
 113579263.847 8  88503377.567 7  21613413.484                    21613424.090
 121524664.383 7  94694680.03244  23125357.391                    23125365.844
 111630014.488 8  86984495.896 7  21242484.422                    21242492.813
 106676054.949 8  83124292.215 8  20299753.969                    20299762.352
 11  8 14  2 29 30.0000000  0  8G29G26G02G30G25G10G12G05
 120221991.446 7  93679517.328 6  22877481.742                    22877491.719
 126754589.564 7  98769889.68043  24120602.703                    24120612.727
 112839446.736 8  87926984.87646  21472611.164                    21472617.383
 112904737.587 7  87977780.41545  21485054.430                    21485063.855
 113567366.563 8  88494106.966 7  21611149.492                    21611160.297
 121624330.627 6  94772342.03644  23144322.945                    23144331.836
 111682866.060 8  87025678.941 7  21252541.602                    21252549.871
 106689524.663 8  83134788.113 8  20302317.313                    20302325.449
 11  8 14  2 30  0.0000000  0  8G29G26G02G30G25G10G12G05
 120139476.491 7  93615220.079 6  22861779.727                    22861788.699
 126658899.823 7  98695326.32643  24102393.664                    24102403.492
 112876653.918 8  87955977.51046  21479691.227                    21479697.809
 112920750.245 7  87990257.82645  21488101.617                    21488110.695
 113556050.142 8  88485288.980 7  21608995.852                    21609006.758
 121724223.567 6  94850180.70444  23163331.523                    23163341.000
 111736196.464 8  87067235.105 7  21262689.977                    21262698.504
 106703543.806 8  83145712.144 8  20304984.977                    20304992.703
 11  8 14  2 30 30.0000000  0  8G29G26G02G30G25G10G12G05
 120057007.787 7  93550958.854 6  22846086.125                    22846095.363
 126563199.388 7  98620754.61643  24084182.727                    24084191.305
 112913957.221 8  87985045.03046  21486790.281                    21486796.238
 112937349.756 7  88003192.52245  21491260.008                    21491269.176
 113545314.868 8  88476923.831 7  21606952.984                    21606963.840
 121824340.581 6  94928193.92944  23182382.719                    23182392.332
 111790003.699 8  87109162.824 7  21272929.242                    21272937.934
 106718111.604 8  83157063.695 8  20307757.281                    20307765.168
 11  8 14  2 31  0.0000000  0  8G29G26G02G30G25G10G12G05
 119974586.594 7  93486734.656 6  22830401.961                    22830411.504
 126467491.864 6  98546177.41543  24065969.461                    24065978.871
 112951356.060 8  88014187.00546  21493906.492                    21493912.813
 112954534.969 7  88016583.62145  21494530.875                    21494539.422
 113535160.982 8  88469011.716 7  21605020.977                    21605031.516
 121924679.250 7  95006379.89544  23201477.570                    23201487.125
 111844286.047 8  87151460.760 7  21283259.086                    21283266.906
 106733227.002 8  83168841.951 8  20310633.555                    20310641.746
 11  8 14  2 31 30.0000000  0  8G29G26G02G30G25G10G12G05
 119892214.921 7  93422549.056 6  22814727.438                    22814736.297
 126371780.215 6  98471596.94943  24047755.680                    24047765.473
 112988850.056 8  88043403.12046  21501041.891                    21501047.707
 112972304.475 7  88030429.99945  21497911.648                    21497920.473
 113525588.380 8  88461552.535 7  21603199.109                    21603209.957
 122025235.926 7  95084735.74544  23220612.688                    23220621.668
 111899040.879 8  87194126.871 7  21293678.250                    21293687.031
 106748888.546 8  83181045.773 8  20313613.680                    20313621.781
 11  8 14  2 32  0.0000000  0  8G29G26G02G30G25G10G12G05
 119809894.347 7  93358403.269 6  22799062.141                    22799071.188
 126276067.874 6  98397016.01143  24029542.266                    24029551.695
 113026438.987 8  88072693.21745  21508194.688                    21508200.781
 112990656.991 7  88044730.67845  21501404.125                    21501413.148
 113516597.000 8  88454546.277 7  21601488.039                    21601499.406
 122126008.122 7  95163259.51744  23239788.719                    23239797.945
 111954265.797 8  87237159.274 7  21304187.734                    21304195.809
 106765094.967 8  83193674.175 8  20316697.633                    20316705.520
 11  8 14  2 32 30.0000000  0  8G29G26G02G30G25G10G12G05
 119727626.559 7  93294298.615 7  22783406.977                    22783416.906
 126180357.993 6  98322436.97743  24011329.438                    24011338.988
 113064122.473 8  88102056.98046  21515365.477                    21515371.891
 113009591.284 7  88059484.68745  21505007.203                    21505016.211
 113508186.927 8  88447992.977 7  21599887.602                    21599899.012
 122226992.982 6  95241949.03944  23259005.461                    23259015.203
 112009958.639 8  87280556.295 7  21314785.453                    21314793.578
 106781845.100 8  83206726.247 8  20319885.414                    20319893.020
 11  8 14  2 33  0.0000000  0  8G29G26G02G30G25G10G12G05
 119645413.240 7  93230236.399 6  22767762.063                    22767771.191
 126084654.109 6  98247862.58043  23993117.563                    23993127.406
 113101900.044 8  88131494.06046  21522554.742                    21522560.871
 113029106.058 7  88074691.02545  21508720.266                    21508729.543
 113500358.193 8  88441892.681 7  21598397.633                    21598408.582
 122328187.773 7  95320802.14344  23278262.359                    23278271.367
 112066117.359 8  87324316.340 7  21325471.922                    21325480.629
 106799137.954 8  83220201.230 8  20323175.820                    20323183.871
 11  8 14  2 33 30.0000000  0  8G29G26G02G30G25G10G12G05
 119563256.059 7  93166217.930 7  22752127.922                    22752137.129
 125988959.300 6  98173295.31343  23974906.984                    23974916.840
 113139771.759 8  88161004.49046  21529761.172                    21529767.250
 113049199.964 7  88090348.64145  21512544.813                    21512553.711
 113493110.639 8  88436245.254 7  21597018.758                    21597029.844
 122429589.902 7  95399816.77644  23297558.422                    23297567.859
 112122739.608 8  87368437.581 7  21336247.141                    21336255.008
 106816971.936 8  83234097.857 8  20326569.523                    20326577.602
 11  8 14  2 34  0.0000000  0  8G29G26G02G30G25G10G12G05
 119481156.591 7  93102244.421 7  22736504.805                    22736514.188
 125893276.951 6  98098737.74443  23956699.719                    23956709.914
 113177737.136 8  88190587.90946  21536985.695                    21536991.734
 113069871.551 7  88106456.37945  21516477.977                    21516487.051
 113486444.223 8  88431050.668 7  21595750.125                    21595761.215
 122531196.348 7  95478990.63144  23316893.945                    23316902.918
 112179822.956 8  87412918.111 7  21347109.500                    21347117.824
 106835345.667 8  83248415.070 8  20330065.977                    20330074.180
 11  8 14  2 34 30.0000000  0  8G29G26G02G30G25G10G12G05
 119399116.748 7  93038317.374 7  22720893.031                    22720902.754
 125797610.349 6  98024192.43743  23938494.289                    23938504.961
 113215795.863 8  88220244.07946  21544227.742                    21544233.934
 113091119.515 7  88123013.26046  21520521.188                    21520530.641
 113480358.909 8  88426308.882 7  21594592.148                    21594602.957
 122633004.193 7  95558321.42543  23336267.180                    23336276.574
 112237365.283 7  87457756.291 7  21358059.656                    21358067.484
 106854257.969 8  83263151.950 8  20333664.953                    20333672.547
 11  8 14  2 35  0.0000000  0  8G29G26G02G30G25G10G12G05
 119317138.563 7  92974438.363 7  22705293.070                    22705302.172
 125701962.991 6  97949662.12143  23920293.070                    23920303.316
 113253947.974 8  88249973.00545  21551487.773                    21551494.152
 113112942.628 7  88140018.29945  21524674.539                    21524683.480
 113474854.712 7  88422019.926 7  21593544.508                    21593555.832
 122735011.033 6  95637807.25743  23355677.891                    23355687.047
 112295364.242 7  87502950.287 7  21369096.492                    21369104.480
 106873707.826 8  83278307.709 8  20337365.977                    20337374.199
 11  8 14  2 35 30.0000000  0  8G29G26G02G30G25G10G12G05
 119235223.094 7  92910608.204 7  22689705.203                    22689713.914
 125606338.303 6  97875149.48143  23902096.680                    23902106.383
 113292192.545 8  88279773.98946  21558765.797                    21558771.922
 113135339.161 7  88157470.15446  21528936.414                    21528945.469
 113469931.216 8  88418183.471 7  21592607.813                    21592618.969
 122837213.684 7  95717445.65343  23375126.836                    23375136.129
 112353817.578 7  87548498.345 7  21380219.641                    21380228.008
 106893693.411 8  83293880.913 8  20341169.461                    20341177.234
 11  8 14  2 36  0.0000000  0  8G29G26G02G30G25G10G12G05
 119153372.284 7  92846828.431 7  22674129.359                    22674138.434
 125510739.182 6  97800656.74044  23883904.734                    23883914.496
 113330529.349 8  88309646.83545  21566060.953                    21566067.172
 113158307.331 7  88175367.43645  21533306.883                    21533316.152
 113465588.003 8  88414799.185 7  21591781.273                    21591791.859
 122939609.385 7  95797234.50343  23394612.203                    23394620.527
 112412722.423 8  87594398.230 7  21391428.625                    21391436.820
 106914213.244 8  83309870.411 8  20345073.789                    20345081.934
 11  8 14  2 36 30.0000000  0  8G29G26G02G30G25G10G12G05
 119071588.221 7  92783100.661 7  22658566.445                    22658575.477
 125415169.398 6  97726186.87144  23865718.633                    23865728.676
 113368958.713 8  88339591.78945  21573373.961                    21573379.359
 113181846.354 7  88193709.55145  21537786.250                    21537795.387
 113461825.438 8  88411867.350 7  21591065.117                    21591076.211
 123042195.623 7  95877171.80143  23414134.008                    23414141.664
 112472076.782 8  87640648.387 7  21402723.273                    21402731.523
 106935266.396 7  83326275.478 8  20349080.422                    20349088.320
 11  8 14  2 37  0.0000000  0  8G29G26G02G30G25G10G12G05
 118989872.217 7  92719425.902 7  22643016.344                    22643025.176
 125319632.274 6  97651742.43544  23847538.758                    23847548.668
 113407479.673 8  88369608.12546  21580704.383                    21580710.008
 113205954.136 7  88212494.85345  21542373.984                    21542382.547
 113458642.812 8  88409387.416 7  21590459.578                    21590470.352
 123144969.347 7  95957255.21043  23433691.031                    23433699.203
 112531878.206 8  87687246.903 7  21414103.641                    21414111.855
 106956851.044 8  83343094.710 8  20353187.641                    20353195.422
 11  8 14  2 37 30.0000000  0  8G29G26G02G30G25G10G12G05
 118908226.336 7  92655805.785 7  22627479.461                    22627488.254
 125224131.193 6  97577326.09144  23829364.680                    23829374.625
 113446092.617 8  88399696.12446  21588052.445                    21588057.984
 113230629.486 7  88231722.40145  21547069.773                    21547078.633
 113456040.114 8  88407359.377 7  21589964.508                    21589975.156
 123247927.780 6  96037482.55743  23453282.914                    23453291.910
 112592124.339 8  87734191.941 7  21425567.648                    21425576.281
 106978965.970 8  83360327.131 8  20357395.898                    20357403.887
 11  8 14  2 38  0.0000000  0  8G29G26G02G30G25G10G12G05
 118826652.181 7  92592241.553 7  22611956.570                    22611965.977
 125128669.546 7  97502940.47544  23811199.289                    23811208.957
 113484796.911 8  88429855.32346  21595416.898                    21595423.184
 113255870.731 7  88251390.91945  21551872.789                    21551881.668
 113454017.004 8  88405782.964 7  21589579.547                    21589590.047
 123351068.176 6  96117851.68143  23472910.172                    23472919.090
 112652812.817 8  87781481.667 7  21437116.617                    21437124.809
 107001609.586 8  83377971.527 8  20361705.000                    20361712.621
 11  8 14  2 38 30.0000000  0  8G29G26G02G30G25G10G12G05
 118745151.801 7  92528734.792 7  22596447.438                    22596456.809
 125033250.702 6  97428588.20244  23793042.031                    23793050.777
 113523592.356 8  88460085.55546  21602799.953                    21602805.598
 113281676.229 7  88271499.11845  21556783.148                    21556792.129
 113452573.160 8  88404657.921 7  21589304.578                    21589315.164
 123454387.945 6  96198360.58843  23492571.172                    23492579.555
 112713940.985 7  87829114.006 7  21448748.625                    21448757.238
 107024780.638 8  83396026.908 8  20366114.266                    20366121.961
 11  8 14  2 39  0.0000000  0  8G29G26G02G30G25G10G12G05
 118663726.982 7  92465286.918 7  22580952.852                    22580962.273
 124937878.200 6  97354272.02644  23774892.086                    23774902.098
 113562478.775 8  88490386.68246  21610199.352                    21610205.738
 113308044.379 7  88292045.73645  21561800.664                    21561809.785
 113451708.253 8  88403984.001 7  21589139.805                    21589150.570
 123557884.521 6  96279007.28843  23512266.188                    23512274.824
 112775506.579 7  87877087.207 7  21460464.250                    21460472.551
 107048477.814 8  83414492.257 8  20370623.500                    20370631.676
 11  8 14  2 39 30.0000000  0  8G29G26G02G30G25G10G12G05
 118582379.622 7  92401899.401 7  22565472.773                    22565481.930
 124842555.408 6  97279994.63044  23756753.352                    23756762.723
 113601456.305 8  88520758.80246  21617616.523                    21617622.805
 113334973.811 7  88313029.71845  21566925.336                    21566934.117
 113451422.104 8  88403761.050 7  21589085.406                    21589096.105
 123661554.732 6  96359789.25543  23531993.625                    23532002.996
 112837507.418 8  87925399.558 7  21472262.438                    21472271.043
 107072699.471 8  83433366.291 8  20375232.758                    20375240.594
 11  8 14  2 40  0.0000000  0  8G29G26G02G30G25G10G12G05
 118501111.159 7  92338573.380 7  22550007.813                    22550017.066
 124747285.658 7  97205758.54144  23738623.633                    23738633.082
 113640524.245 8  88551201.37646  21625051.164                    21625056.770
 113362462.440 7  88334449.44445  21572156.242                    21572165.355
 113451713.974 8  88403988.511 7  21589141.039                    21589151.199
 123765395.777 7  96440704.37243  23551753.641                    23551763.367
 112899940.714 8  87974048.873 7  21484143.289                    21484151.305
 107097443.595 7  83452647.450 8  20379941.297                    20379949.063
 11  8 14  2 40 30.0000000  0  9G15G29G26G02G30G25G10G12G05
 129495546.70216                  24642190.906
 118419923.281 7  92275310.152 7  22534558.328                    22534567.492
 124652072.220 6  97131566.33144  23720505.594                    23720514.277
 113679682.338 8  88581714.18846  21632502.609                    21632508.688
 113390508.376 7  88356303.42545  21577493.453                    21577502.094
 113452583.231 8  88404665.876 7  21589306.227                    21589317.051
 123869404.605 7  96521750.20243  23571546.102                    23571555.840
 112962803.144 7  88023032.589 7  21496105.875                    21496113.887
 107122708.198 8  83472334.175 8  20384748.719                    20384756.961
 11  8 14  2 41  0.0000000  0  9G15G29G26G02G30G25G10G12G05
 129402100.275 6 100832852.06715  24624408.234                    24624417.617
 118338818.558 7  92212111.730 7  22519124.438                    22519133.727
 124556918.949 6  97057420.99743  23702397.789                    23702407.469
 113718930.833 8  88612297.44245  21639971.641                    21639977.031
 113419110.678 7  88378590.94445  21582936.258                    21582944.617
 113454030.155 8  88405793.372 7  21589581.688                    21589592.133
 123973579.194 7  96602925.20144  23591370.898                    23591379.078
 113026093.463 7  88072349.718 7  21508149.289                    21508157.961
 107148493.275 8  83492426.459 8  20389655.891                    20389663.586
 11  8 14  2 41 30.0000000  0  9G15G29G26G02G30G25G10G12G05
 129308523.961 6 100759935.629 5  24606600.508                    24606611.586
 118257798.416 7  92148979.219 7  22503706.680                    22503715.527
 124461829.154 6  96983325.15443  23684302.992                    23684312.754
 113758269.257 8  88642950.76045  21647457.172                    21647462.805
 113448267.014 7  88401310.18245  21588484.367                    21588492.938
 113456053.776 8  88407370.243 7  21589966.523                    21589977.211
 124077916.545 7  96684227.04344  23611225.227                    23611233.996
 113089808.590 7  88121997.874 7  21520274.125                    21520282.148
 107174796.273 7  83512922.326 8  20394661.000                    20394668.891
 11  8 14  2 42  0.0000000  0  9G15G29G26G02G30G25G10G12G05
 129214820.794 6 100686920.393 5  24588769.883                    24588780.793
 118176864.605 7  92085913.991 7  22488305.563                    22488314.578
 124366806.087 6  96909281.29043  23666220.438                    23666230.191
 113797697.298 8  88673673.92045  21654960.297                    21654965.832
 113477975.802 8  88424459.89745  21594137.813                    21594146.465
 113458653.643 8  88409396.122 7  21590461.227                    21590471.816
 124182413.921 7  96765653.58243  23631109.922                    23631118.902
 113153946.190 7  88171975.227 7  21532478.875                    21532486.961
 107201615.533 8  83533820.466 8  20399764.172                    20399772.141
 11  8 14  2 42 30.0000000  0  9G15G29G26G02G30G25G10G12G05
 129120993.120 6 100613808.031 5  24570914.016                    24570924.828
 118096019.128 7  92022917.605 7  22472921.352                    22472929.711
 124271853.341 6  96835292.22343  23648151.328                    23648160.781
 113837215.121 8  88704467.03545  21662479.992                    21662485.555
 113508235.305 8  88448038.73845  21599896.172                    21599904.355
 113461829.399 8  88411870.753 7  21591065.695                    21591076.180
 124287068.834 7  96847202.84843  23651025.273                    23651034.066
 113218503.723 7  88222279.796 7  21544763.828                    21544771.945
 107228949.623 8  83555119.784 8  20404966.234                    20404973.660
 11  8 14  2 43  0.0000000  0  9G15G29G26G02G30G25G10G12G05
 129027042.896 6 100540600.239 6  24553036.344                    24553046.996
 118015263.722 7  91959991.397 7  22457554.102                    22457562.664
 124176974.255 6  96761360.58043  23630096.141                    23630106.500
 113876822.069 8  88735329.61045  21670016.828                    21670022.898
 113539043.381 7  88472045.03345  21605758.438                    21605767.129
 113465580.138 8  88414793.414 7  21591779.648                    21591790.137
 124391878.414 7  96928872.63643  23670969.617                    23670978.402
 113283477.922 7  88272909.044 7  21557128.133                    21557136.406
 107256796.773 8  83576818.882 8  20410265.008                    20410273.008
 11  8 14  2 43 30.0000000  0  9G15G29G26G02G30G25G10G12G05
 128932973.132 6 100467299.270 6  24535135.695                    24535146.074
 117934600.336 7  91897136.896 7  22442203.922                    22442212.613
 124082172.598 6  96687489.24443  23612056.648                    23612066.191
 113916518.227 8  88766261.69746  21677570.961                    21677576.859
 113570398.556 7  88496477.65345  21611725.406                    21611734.043
 113469905.626 8  88418163.934 7  21592602.547                    21592613.258
 124496839.895 6  97010660.79343  23690943.648                    23690952.133
 113348866.682 8  88323861.325 7  21569571.305                    21569579.469
 107285155.366 8  83598916.509 8  20415661.602                    20415669.496
 11  8 14  2 44  0.0000000  0  9G15G29G26G02G30G25G10G12G05
 128838786.451 7 100393907.227 6  24517212.148                    24517223.141
 117854031.227 7  91834355.854 7  22426872.313                    22426881.383
 123987451.887 7  96613680.99044  23594031.578                    23594041.293
 113956303.798 8  88797263.45945  21685141.734                    21685148.195
 113602299.133 8  88521335.25145  21617795.648                    21617804.129
 113474805.368 8  88421981.927 7  21593535.180                    21593545.570
 124601950.699 7  97092565.32543  23710945.453                    23710953.258
 113414668.234 8  88375135.259 7  21582092.648                    21582100.777
 107314024.033 8  83621411.594 8  20421155.141                    20421162.891
 11  8 14  2 44 30.0000000  0  9G15G29G26G02G30G25G10G12G05
 128744485.203 7 100320425.886 6  24499267.023                    24499277.348
 117773557.875 7  91771649.436 7  22411558.875                    22411567.461
 123892815.428 7  96539938.36144  23576022.727                    23576032.031
 113996178.077 8  88828334.34246  21692729.570                    21692735.828
 113634742.831 8  88546616.06845  21623969.523                    21623978.441
 113480278.366 8  88426246.612 7  21594576.352                    21594586.906
 124707208.035 6  97174584.03643  23730974.844                    23730983.570
 113480878.995 8  88426728.058 7  21594692.180                    21594700.387
 107343400.867 8  83644302.653 8  20426745.258                    20426753.172
 11  8 14  2 45  0.0000000  0  9G15G29G26G02G30G25G10G12G05
 128650071.617 7 100246857.030 6  24481300.836                    24481310.469
 117693182.347 7  91709019.231 7  22396263.813                    22396272.391
 123798266.663 7  96466264.07043  23558030.609                    23558039.824
 114036141.077 7  88859474.36546  21700334.328                    21700340.609
 113667727.737 7  88572318.59545  21630246.500                    21630254.922
 113486324.036 8  88430957.529 7  21595727.320                    21595737.391
 124812609.527 6  97256715.11543  23751032.070                    23751041.281
 113547496.459 7  88478637.773 7  21607368.836                    21607377.504
 107373283.959 8  83667588.199 8  20432431.797                    20432439.559
 11  8 14  2 45 30.0000000  0  9G15G29G26G02G30G25G10G12G05
 128555548.634 7 100173202.904 6  24463313.344                    24463323.879
 117612906.338 7  91646466.572 7  22380987.617                    22380996.523
 123703809.142 7  96392660.89444  23540056.234                    23540065.375
 114076192.612 7  88890683.37445  21707955.742                    21707962.180
 113701252.106 7  88598441.48745  21636625.930                    21636634.973
 113492941.714 8  88436114.167 7  21596985.891                    21596996.598
 124918152.075 6  97338956.04143  23771116.188                    23771125.098
 113614518.031 7  88530862.385 7  21620123.234                    21620130.734
 107403671.586 8  83691266.889 8  20438214.250                    20438222.277
 11  8 14  2 46  0.0000000  0  9G15G29G26G02G30G25G10G12G05
 128460919.050 7 100099465.753 6  24445305.930                    24445316.480
 117532732.040 7  91583993.165 7  22365730.828                    22365739.602
 123609446.585 7  96319131.69344  23522100.023                    23522108.508
 114116332.876 7  88921961.51445  21715594.789                    21715600.465
 113735314.135 7  88624983.33445  21643107.516                    21643116.480
 113500130.952 8  88441716.169 7  21598354.258                    21598365.039
 125023833.116 6  97421304.89443  23791227.250                    23791235.922
 113681941.447 7  88583400.107 7  21632952.898                    21632961.172
 107434562.465 8  83715337.722 8  20444092.844                    20444100.648
 11  8 14  2 46 30.0000000  0  9G15G29G26G02G30G25G10G12G05
 128366184.796 6 100025647.001 6  24427278.125                    24427288.398
 117452661.159 7  91521600.339 7  22350493.773                    22350502.332
 123515182.440 7  96245679.20444  23504161.078                    23504170.914
 114156561.498 7  88953308.50845  21723249.750                    21723255.355
 113769911.644 7  88651942.43545  21649691.578                    21649699.984
 113507890.755 7  88447762.778 7  21599830.961                    21599841.445
 125129650.037 7  97503759.62943  23811363.156                    23811372.371
 113749763.632 8  88636248.571 7  21645859.422                    21645867.445
 107465954.275 7  83739798.894 8  20450066.664                    20450074.387
 11  8 14  2 47  0.0000000  0  9G15G29G26G02G30G25G10G12G05
 128271348.732 6  99951748.939 6  24409230.930                    24409241.910
 117372695.819 7  91459289.743 7  22335277.023                    22335285.719
 123421020.245 7  96172306.14144  23486242.977                    23486252.074
 114196878.325 7  88984724.22945  21730921.383                    21730927.438
 113805042.698 8  88679317.28645  21656376.594                    21656384.992
 113516220.415 8  88454253.433 7  21601416.063                    21601426.574
 125235600.305 6  97586318.27843  23831525.438                    23831534.113
 113817981.996 8  88689405.749 7  21658840.930                    21658848.887
 107497845.625 8  83764649.309 8  20456134.984                    20456142.719
 11  8 14  2 47 30.0000000  0  9G15G29G26G02G30G25G10G12G05
 128176413.480 6  99877773.580 6  24391165.727                    24391175.711
 117292838.068 7  91397062.975 7  22320080.508                    22320089.449
 123326963.505 7  96099015.25744  23468344.711                    23468353.754
 114237283.455 7  89016208.74045  21738610.336                    21738616.680
 113840705.342 7  88707106.36945  21663162.813                    21663171.855
 113525119.274 8  88461187.605 7  21603109.188                    21603119.887
 125341681.434 7  97668978.87643  23851712.484                    23851720.871
 113886594.316 7  88742869.900 7  21671897.359                    21671905.500
 107530234.743 7  83789887.602 8  20462298.742                    20462306.504
 11  8 14  2 48  0.0000000  0  9G15G29G26G02G30G25G10G12G05
 128081381.626 6  99803722.992 6  24373081.180                    24373092.160
 117213089.756 7  91334921.491 7  22304904.352                    22304913.375
 123233015.676 7  96025809.22744  23450466.664                    23450475.809
 114277776.621 8  89047761.86845  21746315.953                    21746322.047
 113876897.519 7  88735308.07245  21670050.109                    21670058.383
 113534586.376 8  88468564.576 7  21604910.688                    21604921.535
 125447890.523 6  97751739.22443  23871922.547                    23871931.516
 113955597.425 7  88796638.559 7  21685028.219                    21685036.602
 107563119.648 8  83815512.212 8  20468556.477                    20468564.082
 11  8 14  2 48 30.0000000  0  9G15G29G26G02G30G25G10G12G05
 127986255.865 6  99729599.200 6  24354979.867                    24354990.242
 117133452.755 7  91272866.751 7  22289749.898                    22289759.020
 123139180.404 6  95952690.90943  23432610.430                    23432619.469
 114318357.733 8  89079383.51645  21754038.453                    21754044.297
 113913617.193 7  88763920.81045  21677037.906                    21677046.172
 113544620.947 8  88476383.720 7  21606820.273                    21606831.652
 125554225.030 6  97834597.24343  23892156.992                    23892166.363
 114024988.888 7  88850709.829 7  21698233.063                    21698241.027
 107596498.620 8  83841521.816 8  20474908.328                    20474915.801
 11  8 14  2 49  0.0000000  0  9G15G29G26G02G30G25G10G12G05
 127891038.756 6  99655404.208 6  24336860.148                    24336870.695
 117053928.988 7  91210900.243 7  22274617.141                    22274626.020
 123045461.114 7  95879662.96044  23414775.703                    23414785.387
 114359026.435 8  89111073.43145  21761777.016                    21761783.090
 113950862.163 7  88792942.87745  21684125.180                    21684133.453
 113555221.972 8  88484644.267 7  21608837.844                    21608848.484
 125660681.950 6  97917550.68843  23912415.656                    23912424.488
 114094765.635 8  88905081.329 7  21711510.836                    21711519.188
 107630369.481 8  83867914.708 8  20481353.461                    20481361.645
 11  8 14  2 49 30.0000000  0  9G15G29G26G02G30G25G10G12G05
 127795732.737 6  99581139.920 6  24318724.398                    24318734.641
 116974520.962 7  91149023.920 7  22259506.500                    22259515.172
 122951861.774 7  95806728.46844  23396965.367                    23396974.105
 114399783.120 7  89142831.89545  21769533.117                    21769538.996
 113988630.415 7  88822372.68345  21691312.180                    21691320.488
 113566388.745 8  88493345.655 7  21610962.688                    21610973.863
 125767259.305 7  98000597.97443  23932696.227                    23932705.020
 114164925.029 8  88959750.986 7  21724861.602                    21724869.887
 107664731.078 8  83894689.993 8  20487892.594                    20487900.230
 11  8 14  2 50  0.0000000  0  9G15G29G26G02G30G25G10G12G05
 127700340.524 6  99506808.467 6  24300571.711                    24300581.633
 116895230.281 7  91087239.037 7  22244417.641                    22244426.156
 122858385.483 7  95733889.86444  23379177.281                    23379186.289
 114440627.490 7  89174658.68645  21777305.609                    21777311.695
 114026919.785 7  88852208.57645  21698598.180                    21698606.977
 113578120.226 8  88502487.084 7  21613195.063                    21613205.418
 125873954.073 6  98083736.74743  23952999.211                    23953008.352
 114235464.614 7  89014716.907 7  21738284.867                    21738292.770
 107699580.862 8  83921845.686 8  20494524.344                    20494531.957
 11  8 14  2 50 30.0000000  0  9G15G29G26G02G30G25G10G12G05
 127604864.824 7  99432411.943 6  24282403.359                    24282413.352
 116816058.623 7  91025546.904 7  22229351.906                    22229360.348
 122765035.908 7  95661150.01144  23361413.289                    23361422.371
 114481559.461 8  89206553.73745  21785094.617                    21785100.777
 114065728.079 7  88882448.80945  21705983.250                    21705991.719
 113590415.436 8  88512067.779 7  21615534.969                    21615545.410
 125980763.574 6  98166964.94143  23973324.336                    23973333.422
 114306381.339 7  89069976.699 7  21751779.898                    21751787.727
 107734917.007 8  83949380.360 8  20501248.625                    20501255.957
 11  8 14  2 51  0.0000000  0  9G15G29G26G02G30G25G10G12G05
 127509308.401 7  99357952.491 6  24264219.625                    24264229.613
 116737008.260 7  90963949.296 7  22214309.211                    22214318.313
 122671816.786 7  95588511.79644  23343673.805                    23343682.773
 114522579.221 7  89238517.18445  21792899.992                    21792905.996
 114105053.200 7  88913091.76845  21713466.688                    21713475.160
 113603273.482 7  88522087.046 7  21617981.289                    21617992.414
 126087685.453 6  98250280.65243  23993670.563                    23993680.238
 114377672.471 7  89125528.225 7  21765346.242                    21765354.762
 107770737.817 8  83977292.697 8  20508064.930                    20508072.672
 11  8 14  2 51 30.0000000  0  9G15G29G26G02G30G25G10G12G05
 127413673.680 6  99283432.061 6  24246020.289                    24246030.523
 116658081.596 7  90902448.062 7  22199289.609                    22199298.570
 122578731.635 6  95515977.96544  23325960.445                    23325968.848
 114563686.504 7  89270548.81545  21800723.398                    21800728.949
 114144893.071 7  88944135.81645  21721047.750                    21721056.406
 113616693.454 8  88532544.171 7  21620535.305                    21620546.309
 126194717.338 6  98333682.09943  24014038.906                    24014047.934
 114449335.465 7  89181369.522 7  21778983.461                    21778991.605
 107807041.644 8  84005581.403 8  20514973.406                    20514981.258
 11  8 14  2 52  0.0000000  0  9G15G29G26G02G30G25G10G12G05
 127317963.211 7  99208852.595 6  24227807.227                    24227817.398
 116579280.227 7  90841044.454 7  22184294.250                    22184302.906
 122485784.201 7  95443551.46844  23308272.594                    23308282.199
 114604881.150 7  89302648.54045  21808562.250                    21808567.570
 114185245.431 7  88975579.22645  21728726.773                    21728735.566
 113630674.270 7  88543438.328 7  21623195.758                    21623206.332
 126301856.246 6  98417166.99143  24034426.203                    24034435.789
 114521367.565 7  89237498.431 7  21792690.633                    21792699.125
 107843826.019 8  84034244.564 8  20521972.992                    20521980.910
 11  8 14  2 52 30.0000000  0  9G15G29G26G02G30G25G10G12G05
 127222180.041 7  99134216.466 6  24209580.453                    24209590.094
 116500606.329 7  90779740.180 7  22169322.617                    22169331.113
 122392977.756 7  95371234.81544  23290612.695                    23290621.617
 114646163.222 7  89334816.39645  21816417.375                    21816423.695
 114226108.019 8  89007420.21245  21736502.953                    21736510.965
 113645214.813 8  88554768.640 7  21625962.375                    21625972.859
 126409099.757 6  98500733.33143  24054834.773                    24054844.035
 114593765.713 8  89293912.572 7  21806467.672                    21806475.758
 107881089.446 8  84063281.008 8  20529063.891                    20529071.676
 11  8 14  2 53  0.0000000  0  9G15G29G26G02G30G25G10G12G05
 127126326.605 7  99059525.577 6  24191339.805                    24191350.266
 116422061.671 7  90718536.614 7  22154376.641                    22154385.109
 122300315.848 6  95299030.80844  23272979.289                    23272988.805
 114687532.263 7  89367052.01445  21824289.828                    21824295.801
 114267478.356 8  89039656.84845  21744375.172                    21744383.867
 113660313.863 8  88566534.150 7  21628835.813                    21628846.898
 126516445.456 6  98584379.33243  24075261.742                    24075271.141
 114666526.940 7  89350609.634 7  21820313.328                    21820321.359
 107918829.462 8  84092688.824 8  20536245.875                    20536253.621
 11  8 14  2 53 30.0000000  0  9G15G29G26G02G30G25G10G12G05
 127030405.450 7  98984781.940 6  24173086.625                    24173097.043
 116343648.649 7  90657435.625 7  22139455.125                    22139463.680
 122207802.371 7  95226942.45544  23255374.484                    23255383.590
 114728988.562 7  89399355.63145  21832178.289                    21832184.848
 114309354.360 8  89072287.50845  21752343.789                    21752352.559
 113675970.434 8  88578734.089 7  21631815.078                    21631825.980
 126623890.483 6  98668102.71343  24095707.797                    24095717.133
 114739648.831 7  89407587.742 7  21834228.148                    21834236.086
 107957044.339 8  84122466.665 8  20543517.328                    20543525.473
 11  8 14  2 54  0.0000000  0  9G15G29G26G02G30G25G10G12G05
 126934419.571 7  98909987.873 6  24154821.102                    24154830.930
 116265369.091 7  90596438.625 7  22124558.930                    22124567.180
 122115441.009 7  95154972.63344  23237798.891                    23237807.828
 114770532.501 7  89431727.53045  21840084.313                    21840089.871
 114351733.947 8  89105310.56645  21760408.258                    21760417.039
 113692183.666 8  88591367.800 7  21634900.438                    21634911.293
 126731432.887 6  98751902.00643  24116171.922                    24116181.555
 114813128.897 7  89464844.940 7  21848210.594                    21848219.035
 107995732.371 8  84152613.196 8  20550879.656                    20550887.813
 11  8 14  2 54 30.0000000  0  9G15G29G26G02G30G25G10G12G05
 126838371.416 7  98835145.297 6  24136543.648                    24136553.988
 116187225.242 7  90535547.371 7  22109688.297                    22109696.777
 122023235.002 7  95083123.88944  23220252.508                    23220261.816
 114812163.646 7  89464167.39045  21848006.359                    21848012.406
 114394614.610 7  89138724.07845  21768568.102                    21768576.684
 113708952.092 8  88604434.122 7  21638091.367                    21638102.305
 126839069.474 6  98835774.66843  24136654.859                    24136663.895
 114886963.883 7  89522378.692 7  21862261.078                    21862269.156
 108034891.109 8  84183126.505 8  20558331.383                    20558339.043
 11  8 14  2 55  0.0000000  0  9G15G29G26G02G30G25G10G12G05
 126742263.957 7  98760256.495 6  24118255.039                    24118264.668
 116109218.920 7  90474763.283 7  22094844.320                    22094852.465
 121931188.232 7  95011399.19944  23202736.336                    23202745.430
 114853882.095 7  89496675.27045  21855944.813                    21855950.766
 114437993.958 8  89172526.17245  21776823.328                    21776831.660
 113726274.612 8  88617932.204 7  21641387.859                    21641398.281
 126946798.020 6  98919718.98043  24157154.727                    24157163.922
 114961150.788 7  89580186.678 7  21876378.781                    21876386.621
 108074518.721 7  84214005.175 8  20565872.195                    20565879.855
 11  8 14  2 55 30.0000000  0  9G15G29G26G02G30G25G10G12G05
 126646099.928 7  98685323.622 6  24099955.188                    24099964.957
 116031352.418 7  90414088.126 7  22080026.523                    22080035.305
 121839304.246 7  94939801.34744  23185251.898                    23185259.957
 114895687.877 7  89529251.19645  21863900.688                    21863906.648
 114481869.872 8  89206715.19945  21785172.445                    21785181.129
 113744150.187 8  88631861.241 7  21644789.352                    21644800.453
 127054616.072 6  99003733.08443  24177671.859                    24177680.594
 115035686.664 7  89638266.575 7  21890562.383                    21890570.074
 108114613.412 7  84245247.795 8  20573501.797                    20573509.703
 11  8 14  2 56  0.0000000  0  9G15G29G26G02G30G25G10G12G05
 126549881.915 7  98610348.691 6  24081645.250                    24081655.582
 115953627.771 7  90353523.519 7  22065235.992                    22065244.988
 121747586.741 7  94868333.21444  23167798.406                    23167807.027
 114937580.752 7  89561894.99345  21871872.461                    21871878.652
 114526239.863 7  89241289.22145  21793615.766                    21793624.426
 113762577.490 8  88646220.199 7  21648295.461                    21648306.727
 127162520.957 6  99087814.82743  24198205.992                    24198213.930
 115110568.918 8  89696616.393 7  21904811.508                    21904819.695
 108155172.849 8  84276852.559 8  20581220.328                    20581227.977
 11  8 14  2 56 30.0000000  0  9G15G29G26G02G30G25G10G12G05
 126453612.572 6  98535333.732 6  24063326.328                    24063335.820
 115876046.961 7  90293070.989 7  22050472.719                    22050481.637
 121656039.261 7  94796997.56844  23150377.328                    23150386.402
 114979560.893 8  89594606.79445  21879860.984                    21879867.383
 114571101.540 7  89276246.38145  21802153.055                    21802161.523
 113781555.190 8  88661008.034 7  21651907.414                    21651917.895
 127270510.151 6  99171962.19742  24218755.359                    24218762.754
 115185794.657 8  89755233.852 7  21919126.969                    21919134.855
 108196194.823 8  84308817.744 8  20589026.359                    20589034.148
 11  8 14  2 57  0.0000000  0  9G15G29G26G02G30G25G10G12G05
 126357294.870 6  98460281.111 6  24044997.375                    24045007.145
 115798612.301 7  90232732.322 7  22035737.727                    22035745.945
 121564665.452 7  94725797.25244  23132989.539                    23132998.660
 115021628.397 8  89627386.66745  21887866.305                    21887872.645
 114616452.638 8  89311584.90645  21810782.555                    21810791.316
 113801082.153 8  88676223.869 7  21655623.141                    21655633.563
 127378581.389 6  99256173.60842  24239319.859                    24239327.953
 115261361.113 7  89814116.819 7  21933506.820                    21933514.895
 108237677.683 8  84341142.063 8  20596919.984                    20596928.117
 11  8 14  2 57 30.0000000  0  9G15G29G26G02G30G25G10G12G05
 126260931.624 6  98385192.998 6  24026659.984                    24026669.680
 115721325.865 7  90172509.157 7  22021030.641                    22021039.230
 121473469.279 7  94654735.35244  23115635.438                    23115644.234
 115063783.642 8  89660234.90945  21895887.813                    21895894.238
 114662290.952 7  89347303.08245  21819505.648                    21819514.203
 113821157.308 8  88691866.857 7  21659443.320                    21659454.078
 127486732.218 5  99340446.92742  24259900.375                    24259909.344
 115337266.024 8  89873263.504 7  21947950.875                    21947959.184
 108279619.572 8  84373824.064 8  20604901.891                    20604909.613
 11  8 14  2 58  0.0000000  0  9G15G29G26G02G30G25G10G12G05
 126164525.453 6  98310071.433 6  24008314.359                    24008323.602
 115644189.675 7  90112403.070 7  22006352.172                    22006360.738
 121382454.199 7  94583814.56544  23098316.039                    23098324.063
 115106026.168 7  89693151.17645  21903926.336                    21903932.859
 114708613.714 8  89383398.75545  21828320.266                    21828329.227
 113841779.065 8  88707935.780 7  21663367.727                    21663378.219
 127594960.040 5  99424780.30243  24280495.195                    24280504.543
 115413505.718 8  89932671.069 7  21962458.758                    21962466.719
 108322017.935 8  84406861.758 8  20612969.625                    20612977.070
 11  8 14  2 58 30.0000000  0  9G15G29G26G02G30G25G10G12G05
 126068078.890 6  98234918.369 6  23989961.039                    23989970.438
 115567206.315 8  90052416.074 7  21991702.563                    21991711.352
 121291624.065 7  94513037.88044  23081031.445                    23081040.000
 115148356.303 8  89726135.70245  21911981.477                    21911987.668
 114755418.750 8  89419870.22245  21837227.102                    21837235.699
 113862946.344 8  88724429.769 7  21667395.602                    21667406.219
 127703262.890 6  99509172.10243  24301105.609                    24301113.848
 115490077.400 8  89992337.331 7  21977029.914                    21977037.637
 108364871.412 8  84440254.085 8  20621124.664                    20621132.391
 11  8 14  2 59  0.0000000  0  9G15G29G26G02G30G25G10G12G05
 125971595.161 6  98159736.353 6  23971600.102                    23971610.254
 115490377.163 7  89992549.238 7  21977082.445                    21977091.043
 121200981.798 7  94442407.59844  23063782.734                    23063791.555
 115190773.638 8  89759188.15745  21920053.359                    21920059.258
 114802703.108 8  89456715.18945  21846224.977                    21846233.531
 113884657.294 8  88741347.406 7  21671527.094                    21671537.633
 127811637.460 6  99593619.80143  24321729.055                    24321737.555
 115566977.974 8  90052259.862 7  21991663.320                    21991671.531
 108408176.806 8  84473998.566 7  20629365.438                    20629372.863
 11  8 14  2 59 30.0000000  0  9G15G29G26G02G30G25G10G12G05
 125875076.253 7  98084526.942 6  23953233.789                    23953243.066
 115413704.349 7  89932804.215 7  21962491.805                    21962500.047
 121110531.121 7  94371926.60844  23046570.242                    23046579.297
 115233277.929 7  89792308.38045  21928141.977                    21928147.449
 114850464.228 8  89493931.66045  21855313.516                    21855322.246
 113906910.348 8  88758687.470 7  21675761.352                    21675772.430
 127920081.260 6  99678121.39643  24342364.688                    24342373.543
 115644204.448 7  90112436.352 7  22006359.273                    22006367.113
 108451931.569 8  84508093.190 7  20637691.625                    20637699.406
 11  8 14  3  0  0.0000000  0  9G15G29G26G02G30G25G10G12G05
 125778525.643 7  98009292.809 6  23934860.117                    23934869.738
 115337190.316 7  89873182.917 7  21947931.695                    21947940.422
 121020275.983 7  94301597.97644  23029395.375                    23029404.262
 115275869.973 7  89825496.97245  21936246.938                    21936252.844
 114898700.095 7  89531518.06045  21864492.859                    21864501.238
 113929704.610 8  88776449.235 7  21680099.133                    21680109.801
 128028592.602 6  99762675.67843  24363014.125                    24363023.508
 115721754.227 8  90172864.764 7  22021116.359                    22021124.758
 108496134.680 7  84542537.188 8  20646103.188                    20646110.527
 11  8 14  3  0 30.0000000  0  9G15G29G26G02G30G25G10G12G05
 125681946.358 6  97934036.338 6  23916481.602                    23916491.301
 115260837.464 7  89813687.224 7  21933402.250                    21933411.051
 120930220.553 7  94231424.97244  23012258.758                    23012266.926
 115318549.787 8  89858753.96745  21944368.688                    21944374.273
 114947408.287 7  89569472.50945  21873761.367                    21873770.219
 113953038.847 8  88794631.771 7  21684539.625                    21684550.090
 128137168.813 6  99847280.49143  24383675.586                    24383684.754
 115799624.749 7  90233543.106 7  22035934.586                    22035942.855
 108540784.308 8  84577329.117 7  20654599.461                    20654607.266
 11  8 14  3  1  0.0000000  0  9G15G29G26G02G30G25G10G12G05
 125585340.579 6  97858759.224 6  23898098.547                    23898107.879
 115184647.491 7  89754318.456 7  21918903.898                    21918912.625
 120840367.785 7  94161409.86444  22995159.719                    22995168.590
 115361316.992 8  89892079.04845  21952507.414                    21952512.574
 114996585.867 7  89607792.71045  21883119.430                    21883128.055
 113976911.120 8  88813233.549 7  21689081.930                    21689092.957
 128245807.330 6  99931933.85643  24404348.578                    24404357.816
 115877812.636 7  90294468.744 7  22050813.297                    22050821.590
 108585877.416 8  84612466.620 7  20663180.508                    20663187.816
 11  8 14  3  1 30.0000000  0 10G21G15G29G26G02G30G25G10G12G05
 132293405.94615 103085820.65853  25174599.617                    25174610.633
 125488711.864 6  97783464.241 6  23879710.672                    23879720.195
 115108623.198 7  89695078.777 7  21904436.820                    21904445.523
 120750721.770 7  94091555.89844  22978100.219                    22978109.477
 115404172.121 7  89925472.66145  21960661.492                    21960667.977
 115046230.593 8  89646476.92645  21892566.617                    21892575.328
 114001320.285 8  88832253.686 7  21693727.117                    21693737.738
 128354505.819 6 100016633.96843  24425032.680                    24425042.285
 115956315.087 7  90355639.499 7  22065751.664                    22065759.922
 108631412.687 8  84647948.662 8  20671845.758                    20671853.469
 11  8 14  3  2  0.0000000  0 10G21G15G29G26G02G30G25G10G12G05
 132236378.551 6 103041383.89243  25163748.477                    25163758.531
 125392062.710 6  97708153.328 6  23861318.844                    23861328.102
 115032766.576 7  89635969.755 7  21890001.531                    21890010.492
 120661286.441 7  94021866.06644  22961081.539                    22961090.805
 115447115.237 7  89958934.83945  21968833.602                    21968839.770
 115096340.130 7  89685523.33745  21902101.992                    21902110.527
 114026264.969 8  88851691.111 7  21698473.750                    21698484.664
 128463262.212 5 100101379.19242  24445727.852                    24445737.461
 116035129.515 7  90417053.350 7  22080750.063                    22080757.539
 108677387.670 8  84683773.343 8  20680594.320                    20680601.859
 11  8 14  3  2 30.0000000  0 10G21G15G29G26G02G30G25G10G12G05
 132179362.957 6 102996956.29643  25152898.344                    25152908.266
 125295395.698 6  97632828.498 6  23842923.469                    23842933.301
 114957079.340 7  89576992.718 7  21875599.141                    21875607.152
 120572064.781 7  93952342.74844  22944103.383                    22944112.172
 115490146.060 7  89992465.37345  21977022.367                    21977028.379
 115146911.304 7  89724929.46245  21911725.328                    21911733.957
 114051743.239 8  88871544.328 7  21703322.039                    21703332.598
 128572073.767 5 100186167.37242  24466433.914                    24466443.754
 116114252.443 7  90478707.598 7  22095806.578                    22095814.414
 108723799.659 7  84719938.537 7  20689426.297                    20689433.641
 11  8 14  3  3  0.0000000  0 10G21G15G29G26G02G30G25G10G12G05
 132122358.651 6 102952537.50143  25142051.484                    25142061.031
 125198713.810 6  97557492.086 6  23824525.398                    23824534.840
 114881563.974 7  89518149.615 7  21861228.719                    21861237.273
 120483060.822 7  93882989.05344  22927166.266                    22927174.961
 115533264.755 7  90026064.35545  21985227.375                    21985233.395
 115197941.695 7  89764693.41845  21921436.070                    21921444.691
 114077753.573 8  88891812.135 7  21708271.930                    21708282.605
 128680938.096 5 100270996.69342  24487150.531                    24487160.469
 116193680.743 7  90540599.787 7  22110921.445                    22110929.176
 108770646.628 7  84756442.682 7  20698340.906                    20698348.355
 11  8 14  3  3 30.0000000  0 10G21G15G29G26G02G30G25G10G12G05
 132065365.261 7 102908127.19843  25131205.836                    25131215.238
 125102019.626 6  97482146.075 6  23806125.234                    23806134.801
 114806222.568 7  89459442.058 7  21846892.094                    21846900.488
 120394278.096 7  93813807.76944  22910271.711                    22910280.215
 115576471.892 8  90059732.24145  21993449.891                    21993455.914
 115249428.835 7  89804813.27045  21931233.547                    21931242.328
 114104294.560 8  88912493.431 7  21713322.484                    21713333.020
 128789852.801 6 100355865.27742  24507876.320                    24507886.320
 116273411.824 7  90602727.916 7  22126093.602                    22126101.262
 108817926.604 8  84793284.230 7  20707338.148                    20707345.824
 11  8 14  3  4  0.0000000  0 10G21G15G29G26G02G30G25G10G12G05
 132008382.202 7 102863724.94444  25120362.391                    25120371.090
 125005316.219 6  97406792.878 6  23787722.859                    23787732.207
 114731057.046 7  89400871.549 7  21832588.539                    21832596.730
 120305720.302 7  93744801.74344  22893419.758                    22893428.086
 115619767.081 7  90093468.73945  22001688.445                    22001694.004
 115301369.991 7  89845286.90745  21941117.844                    21941126.953
 114131364.474 8  88933586.885 7  21718474.016                    21718484.266
 128898815.642 6 100440771.36842  24528611.422                    24528621.492
 116353442.603 7  90665089.572 7  22141322.742                    22141330.738
 108865637.203 8  84830461.338 7  20716416.813                    20716424.332
 11  8 14  3  4 30.0000000  0 10G21G15G29G26G02G30G25G10G12G05
 131951408.523 7 102819330.00744  25109520.414                    25109529.320
 124908606.386 6  97331434.677 6  23769319.508                    23769329.195
 114656069.704 7  89342439.887 7  21818318.438                    21818326.758
 120217390.923 7  93675973.68644  22876611.180                    22876620.160
 115663150.391 7  90127273.90045  22009944.148                    22009949.570
 115353762.170 7  89886111.98745  21951087.773                    21951096.313
 114158961.460 8  88955091.039 7  21723725.258                    21723735.859
 129007824.259 6 100525713.16042  24549355.664                    24549365.520
 116433770.155 7  90727682.478 7  22156608.195                    22156616.496
 108913775.843 8  84867971.981 7  20725577.422                    20725584.754
 11  8 14  3  5  0.0000000  0 10G21G15G29G26G02G30G25G10G12G05
 131894443.927 7 102774942.11543  25098679.484                    25098689.234
 124811893.277 7  97256073.922 6  23750915.852                    23750925.141
 114581263.172 7  89284149.113 7  21804083.516                    21804091.926
 120129293.854 7  93607326.68544  22859846.563                    22859855.230
 115706621.993 7  90161147.85145  22018216.445                    22018222.020
 115406603.207 7  89927286.82245  21961143.242                    21961151.426
 114187084.299 8  88977004.947 7  21729076.875                    21729087.168
 129116876.390 6 100610688.87043  24570107.359                    24570116.938
 116514391.364 7  90790504.202 7  22171950.250                    22171958.285
 108962340.928 8  84905814.920 7  20734819.156                    20734826.773
 11  8 14  3  5 30.0000000  0  9G21G15G29G26G02G30G25G12G05
 131837488.443 6 102730561.33143  25087840.781                    25087851.387
 124715179.786 7  97180712.856 6  23732511.523                    23732520.391
 114506639.610 8  89226000.922 7  21789883.047                    21789891.832
 120041433.123 7  93538863.82744  22843127.133                    22843136.008
 115750182.341 7  90195090.98045  22026505.516                    22026511.445
 115459890.570 7  89968809.44645  21971283.320                    21971291.570
 114215731.469 8  88999327.431 7  21734528.180                    21734538.918
 116595303.595 7  90853552.698 7  22187347.516                    22187355.766
 109011330.171 8  84943988.368 8  20744141.422                    20744148.980
 11  8 14  3  6  0.0000000  0  9G21G15G29G26G02G30G25G12G05
 131780541.235 6 102686187.03842  25077003.688                    25077014.496
 124618469.506 6  97105354.292 6  23714107.992                    23714117.410
 114432201.772 7  89167997.460 7  21775718.227                    21775726.730
 119953812.754 7  93470588.24944  22826453.875                    22826462.363
 115793832.129 7  90229103.78845  22034811.602                    22034817.664
 115513622.012 7  90010678.11845  21981508.273                    21981516.625
 114244901.682 8  89022057.472 7  21740079.234                    21740089.539
 116676504.245 7  90916825.935 7  22202798.906                    22202807.199
 109060742.097 8  84982491.179 8  20753544.102                    20753551.879
 11  8 14  3  6 30.0000000  0  9G21G15G29G26G02G30G25G12G05
 131723601.513 5 102641818.46942  25066168.805                    25066179.359
 124521764.390 7  97029999.747 6  23695706.000                    23695715.012
 114357951.458 7  89110140.124 7  21761588.352                    21761596.668
 119866435.954 7  93402502.47744  22809825.758                    22809834.887
 115837570.638 7  90263185.73845  22043134.383                    22043141.000
 115567794.136 7  90052890.16845  21991816.438                    21991825.488
 114274592.609 8  89045193.264 7  21745729.078                    21745739.906
 116757990.018 7  90980321.345 7  22218305.469                    22218313.305
 109110573.567 8  85021320.906 7  20763026.805                    20763034.258
 11  8 14  3  7  0.0000000  0  9G21G15G29G26G02G30G25G12G05
 131666668.808 6 102597455.43642  25055334.953                    25055345.148
 124425067.086 6  96954651.279 6  23677305.008                    23677313.996
 114283890.660 8  89052430.451 7  21747495.461                    21747503.422
 119779306.054 7  93334609.10344  22793245.578                    22793255.395
 115881397.993 7  90297336.92445  22051474.898                    22051480.816
 115622404.234 7  90095443.50245  22002208.883                    22002217.398
 114304802.479 8  89068733.436 7  21751478.016                    21751488.117
 116839757.566 7  91044036.325 7  22233865.477                    22233873.520
 109160822.061 8  85060475.601 7  20772588.742                    20772596.352
 11  8 14  3  7 30.0000000  0  9G21G15G29G26G02G30G25G12G05
 131609742.102 6 102553097.01142  25044502.039                    25044512.059
 124328380.773 6  96879311.400 6  23658905.609                    23658915.145
 114210021.282 8  88994869.947 7  21733438.164                    21733446.711
 119692426.895 7  93266911.09744  22776713.344                    22776722.516
 115925314.345 7  90331557.44645  22059831.805                    22059837.770
 115677449.416 7  90138335.86445  22012683.656                    22012692.254
 114335529.367 8  89092676.471 7  21757324.906                    21757335.383
 116921803.926 7  91107968.557 7  22249478.531                    22249486.152
 109211485.338 8  85099953.490 7  20782229.656                    20782237.500
 11  8 14  3  8  0.0000000  0  9G21G15G29G26G02G30G25G12G05
 131552820.878 5 102508742.91942  25033669.781                    25033680.145
 124231708.339 6  96803982.308 6  23640510.086                    23640518.742
 114136345.648 7  88937460.407 7  21719418.211                    21719426.746
 119605801.866 7  93199411.12444  22760229.203                    22760238.059
 115969319.959 7  90365847.52645  22068206.234                    22068211.914
 115732926.918 7  90181565.08545  22023240.359                    22023249.297
 114366771.467 8  89117020.968 7  21763270.086                    21763280.426
 117004125.614 7  91172115.348 7  22265143.367                    22265151.148
 109262561.149 8  85139752.839 8  20791948.820                    20791956.742
 11  8 14  3  8 30.0000000  0  9G21G15G29G26G02G30G25G12G05
 131495904.738 6 102464392.82442  25022838.734                    25022850.410
 124135052.608 6  96728666.245 6  23622117.047                    23622126.211
 114062865.966 7  88880203.557 7  21705435.539                    21705444.027
 119519434.935 7  93132112.25744  22743794.016                    22743802.367
 116013414.707 7  90400207.04445  22076597.219                    22076603.148
 115788833.956 7  90225129.02445  22033879.336                    22033888.016
 114398527.085 8  89141765.605 7  21769313.250                    21769323.695
 117086720.132 7  91236474.717 7  22280860.602                    22280868.965
 109314047.138 8  85179871.801 7  20801746.688                    20801754.172
 11  8 14  3  9  0.0000000  0  9G21G15G29G26G02G30G25G12G05
 131438993.295 6 102420046.35343  25012009.656                    25012020.098
 124038416.903 6  96653365.789 6  23603727.063                    23603736.664
 113989585.121 8  88823101.656 7  21691490.766                    21691499.320
 119433329.929 7  93065017.49444  22727409.031                    22727417.793
 116057599.213 7  90434636.53145  22085005.070                    22085010.914
 115845168.167 7  90269025.81645  22044599.313                    22044607.930
 114430794.693 8  89166909.191 7  21775453.117                    21775464.043
 117169584.684 7  91301044.500 7  22296629.211                    22296637.133
 109365941.526 8  85220309.001 7  20811621.430                    20811629.457
 11  8 14  3  9 30.0000000  0  9G21G15G29G26G02G30G25G12G05
 131382085.713 6 102375702.87243  25001181.313                    25001189.758
 123941803.585 7  96578082.770 6  23585342.961                    23585351.754
 113916504.606 8  88766155.849 7  21677583.906                    21677592.180
 119347489.980 7  92998129.24944  22711074.000                    22711082.418
 116101872.995 7  90469135.57245  22093430.281                    22093436.125
 115901926.176 7  90313252.84545  22055399.898                    22055408.473
 114463571.880 8  89192449.866 7  21781690.750                    21781700.941
 117252715.477 7  91365821.728 7  22312448.852                    22312456.832
 109418241.307 8  85261062.092 8  20821573.852                    20821581.777
 11  8 14  3 10  0.0000000  0  9G21G15G29G26G02G30G25G12G05
 131325181.398 6 102331361.93343  24990352.484                    24990361.105
 123845215.916 6  96502819.752 6  23566962.711                    23566971.656
 113843627.100 8  88709368.230 7  21663715.508                    21663723.457
 119261919.419 7  92931450.93245  22694790.367                    22694799.215
 116146236.676 7  90503704.65545  22101872.305                    22101877.664
 115959105.592 7  90357808.25445  22066280.727                    22066289.215
 114496857.183 8  89218386.475 7  21788024.828                    21788034.996
 117336109.961 7  91430804.438 7  22328317.961                    22328326.371
 109470944.527 8  85302129.546 7  20831603.070                    20831610.539
 11  8 14  3 10 30.0000000  0  9G21G15G29G26G02G30G25G12G05
 131268279.859 6 102287023.17943  24979523.680                    24979533.070
 123748656.680 7  96427578.899 6  23548588.195                    23548597.102
 113770954.429 8  88652740.204 7  21649886.734                    21649895.090
 119176621.273 7  92864984.88644  22678559.313                    22678567.625
 116190690.047 7  90538343.63845  22110331.117                    22110337.242
 116016703.324 7  90402689.61945  22077241.148                    22077249.961
 114530648.511 8  89244717.390 7  21794454.906                    21794465.266
 117419764.924 7  91495990.126 7  22344236.922                    22344245.406
 109524048.739 8  85343509.460 7  20841708.547                    20841716.211
 11  8 14  3 11  0.0000000  0  9G21G15G29G26G02G30G25G12G05
 131211380.768 6 102242686.33443  24968696.211                    24968705.449
 123652128.329 7  96352362.108 6  23530218.273                    23530228.148
 113698489.201 8  88596273.831 7  21636096.688                    21636104.824
 119091599.458 7  92798734.15244  22662379.805                    22662387.871
 116235233.523 7  90573052.82645  22118807.609                    22118813.379
 116074716.587 7  90447894.76745  22088280.578                    22088289.656
 114564943.976 8  89271441.136 7  21800981.023                    21800991.453
 117503677.410 7  91561376.471 7  22360204.906                    22360213.375
 109577551.453 8  85385199.903 7  20851889.992                    20851897.262
 11  8 14  3 11 30.0000000  0  9G21G15G29G26G02G30G25G12G05
 131154483.349 6 102198350.73843  24957868.344                    24957877.625
 123555634.466 7  96277172.183 6  23511855.969                    23511865.625
 113626233.964 8  88539971.089 7  21622346.969                    21622355.457
 119006857.805 7  92732701.74045  22646253.828                    22646262.527
 116279867.190 7  90607832.29145  22127301.336                    22127306.617
 116133142.728 7  90493421.64445  22099398.859                    22099407.461
 114599741.817 8  89298556.346 7  21807602.781                    21807613.430
 117587844.475 7  91626961.197 7  22376221.500                    22376229.531
 109631450.544 8  85427199.205 7  20862146.102                    20862154.086
 11  8 14  3 12  0.0000000  0  9G21G15G29G26G02G30G25G12G05
 131097587.227 6 102154016.26443  24947041.258                    24947050.840
 123459178.322 7  96202011.654 6  23493501.773                    23493510.563
 113554190.762 8  88483833.572 7  21608637.711                    21608646.477
 118922400.111 7  92666890.57644  22630181.766                    22630190.188
 116324591.705 7  90642682.53745  22135812.195                    22135817.609
 116191978.983 7  90539268.08345  22110594.813                    22110603.625
 114635040.229 8  89326061.609 7  21814319.953                    21814330.391
 117672263.239 7  91692742.053 7  22392285.734                    22392294.078
 109685743.752 8  85469505.613 8  20872477.945                    20872485.719
 11  8 14  3 12 30.0000000  0  9G21G15G29G26G02G30G25G12G05
 131040691.861 6 102109682.31643  24936214.273                    24936224.328
 123362762.441 7  96126882.502 6  23475153.906                    23475163.434
 113482361.569 8  88427862.805 7  21594969.125                    21594977.066
 118838229.849 7  92601303.38844  22614165.227                    22614172.914
 116369406.942 7  90677603.49245  22144340.305                    22144346.109
 116251222.310 7  90585431.72845  22121868.578                    22121877.633
 114670836.995 8  89353955.203 7  21821131.711                    21821142.512
 117756930.565 7  91758716.596 7  22408397.992                    22408405.723
 109740428.689 8  85512117.262 7  20882884.172                    20882891.422
 11  8 14  3 13  0.0000000  0  9G21G15G29G26G02G30G25G12G05
 130983796.636 5 102065348.49642  24925386.852                    24925397.402
 123266390.071 7  96051787.263 6  23456815.203                    23456824.418
 113410749.158 8  88372060.956 7  21581341.867                    21581349.844
 118754350.968 7  92535943.25944  22598203.586                    22598211.512
 116414313.139 7  90712595.33045  22152885.930                    22152891.602
 116310870.009 7  90631910.47245  22133219.281                    22133228.199
 114707130.348 8  89382235.746 7  21828037.914                    21828048.480
 117841843.421 7  91824882.457 7  22424555.875                    22424564.148
 109795503.162 8  85555032.444 7  20893364.203                    20893372.078
 11  8 14  3 13 30.0000000  0  9G21G15G29G26G02G30G25G12G05
 130926901.456 6 102021014.65543  24914560.820                    24914570.535
 123170064.628 7  95976728.561 6  23438484.813                    23438494.012
 113339356.167 8  88316430.084 7  21567755.914                    21567763.809
 118670767.638 7  92470813.42944  22582297.672                    22582306.352
 116459311.175 7  90747658.72945  22161448.305                    22161454.371
 116370919.666 7  90678702.42045  22144646.180                    22144654.887
 114743918.773 8  89410902.056 7  21835038.820                    21835049.285
 117926999.294 7  91891237.677 7  22440760.555                    22440768.637
 109850965.151 8  85598249.594 7  20903918.594                    20903926.082
 11  8 14  3 14  0.0000000  0  9G21G15G29G26G02G30G25G12G05
 130870005.087 5 101976679.90142  24903733.336                    24903743.652
 123073788.284 7  95901708.115 6  23420163.945                    23420172.930
 113268184.090 8  88260971.341 7  21554212.438                    21554220.691
 118587482.474 7  92405915.92444  22566449.406                    22566457.199
 116504400.469 7  90782793.24445  22170028.570                    22170034.660
 116431367.617 7  90725804.72345  22156148.977                    22156157.945
 114781199.406 8  89439951.907 7  21842133.328                    21842143.680
 118012394.390 7  91957779.312 7  22457010.805                    22457018.578
 109906811.589 8  85641766.304 7  20914545.844                    20914553.434
 11  8 14  3 14 30.0000000  0  9G21G15G29G26G02G30G25G12G05
 130813107.225 5 101932343.96642  24892906.227                    24892916.453
 122977563.999 7  95826728.243 6  23401853.539                    23401862.234
 113197235.428 8  88205686.701 7  21540711.055                    21540719.438
 118504499.378 7  92341253.79644  22550658.234                    22550665.633
 116549581.034 7  90817998.87045  22178626.602                    22178632.410
 116492210.993 7  90773215.15345  22167727.570                    22167736.117
 114818970.291 8  89469383.775 7  21849320.633                    21849331.004
 118098025.591 7  92024504.923 7  22473305.641                    22473314.031
 109963040.135 8  85685580.763 7  20925245.828                    20925253.273
 11  8 14  3 15  0.0000000  0  9G21G15G29G26G02G30G25G12G05
 130756207.386 6 101888006.55343  24882078.836                    24882088.895
 122881395.217 7  95751791.632 6  23383553.078                    23383562.234
 113126512.848 8  88150578.227 7  21527253.242                    21527260.969
 118421822.232 7  92276830.06644  22534925.125                    22534933.223
 116594853.552 7  90853276.15145  22187241.156                    22187247.664
 116553447.174 7  90820931.66245  22179380.055                    22179388.879
 114857229.667 8  89499196.287 7  21856601.266                    21856611.691
 118183890.274 7  92091412.463 7  22489645.430                    22489653.320
 110019648.667 8  85729691.318 7  20936017.883                    20936025.535
 11  8 14  3 15 30.0000000  0  9G21G15G29G26G02G30G25G12G05
 130699304.889 6 101843667.05743  24871250.109                    24871260.641
 122785284.569 7  95676900.309 6  23365263.203                    23365271.574
 113056018.044 8  88095647.237 7  21513838.266                    21513846.297
 118339454.382 7  92212647.36345  22519251.570                    22519259.504
 116640218.177 7  90888625.20045  22195873.992                    22195880.016
 116615072.953 7  90868951.74045  22191106.992                    22191116.020
 114895975.157 8  89529387.583 7  21863973.992                    21863984.871
 118269984.960 7  92158499.232 7  22506028.617                    22506036.484
 110076634.462 8  85774095.848 7  20946861.867                    20946869.184
 11  8 14  3 16  0.0000000  0  9G21G15G29G26G02G30G25G12G05
 130642399.423 6 101799325.28743  24860421.531                    24860430.742
 122689235.014 7  95602056.585 6  23346985.656                    23346994.301
 112985753.613 8  88040895.751 7  21500467.609                    21500475.359
 118257400.044 7  92148708.94845  22503636.516                    22503644.961
 116685675.043 7  90924046.12445  22204523.992                    22204529.742
 116677085.534 7  90917273.24345  22202907.781                    22202916.754
 114935204.902 8  89559956.216 7  21871439.617                    21871450.004
 118356307.113 7  92225763.247 7  22522454.633                    22522462.984
 110133995.382 8  85818792.672 7  20957777.391                    20957784.766
 11  8 14  3 16 30.0000000  0  9G21G15G29G26G02G30G25G12G05
 130585490.069 7 101754980.39543  24849592.391                    24849600.648
 122593249.692 7  95527262.904 6  23328720.555                    23328728.828
 112915721.867 8  87986325.584 7  21487140.859                    21487148.922
 118175662.293 7  92085017.22845  22488082.188                    22488090.805
 116731224.218 7  90959538.98845  22213191.281                    22213197.215
 116739481.782 7  90965893.69645  22214781.539                    22214790.320
 114974916.502 8  89590900.331 7  21878996.195                    21879006.570
 118442852.871 7  92293201.502 7  22538924.406                    22538932.559
 110191728.938 8  85863779.871 7  20968763.758                    20968771.188
 11  8 14  3 17  0.0000000  0  9G21G15G29G26G02G30G25G12G05
 130528576.594 6 101710632.32543  24838762.195                    24838770.852
 122497331.891 7  95452521.839 6  23310467.477                    23310475.914
 112845924.995 8  87931938.434 7  21473859.188                    21473867.602
 118094245.022 7  92021575.21244  22472588.938                    22472597.582
 116776866.161 7  90995104.12545  22221876.688                    22221882.918
 116802258.896 7  91014810.92545  22226727.414                    22226736.195
 115015107.926 8  89622218.322 7  21886644.320                    21886654.871
 118529619.421 7  92360811.811 7  22555435.234                    22555443.461
 110249832.646 8  85909055.496 7  20979820.359                    20979828.270
 11  8 14  3 17 30.0000000  0  9G21G15G29G26G02G30G25G12G05
 130471658.287 7 101666280.53043  24827931.117                    24827940.008
 122401484.499 7  95377835.642 6  23292228.133                    23292236.934
 112776365.656 8  87877736.386 7  21460622.211                    21460630.191
 118013152.056 7  91958385.91745  22457157.461                    22457166.418
 116822601.172 8  91030741.78745  22230580.508                    22230586.535
 116865414.060 7  91064022.74745  22238745.430                    22238754.246
 115055777.262 8  89653908.712 7  21894383.578                    21894393.988
 118616604.112 7  92428592.087 7  22571987.703                    22571995.930
 110308304.460 8  85954617.957 7  20990947.008                    20990954.332
 11  8 14  3 18  0.0000000  0  9G21G15G29G26G02G30G25G12G05
 130414735.009 7 101621924.80143  24817098.508                    24817107.449
 122305710.455 6  95303206.606 6  23274002.992                    23274011.871
 112707046.119 8  87823721.194 7  21447431.250                    21447439.309
 117932386.885 7  91895452.04345  22441788.734                    22441796.598
 116868429.397 7  91066452.08345  22239301.570                    22239307.707
 116928944.296 7  91113526.83445  22250834.570                    22250843.551
 115096922.282 8  89685969.767 7  21902213.023                    21902223.578
 118703803.989 7  92496540.036 7  22588581.344                    22588589.668
 110367142.002 8  86000465.400 7  21002143.570                    21002150.762
 11  8 14  3 18 30.0000000  0  9G21G15G29G26G02G30G25G12G05
 130357806.042 6 101577564.71244  24806265.727                    24806274.305
 122210012.737 7  95228637.035 6  23255792.281                    23255801.184
 112637968.805 8  87769894.752 7  21434286.016                    21434293.863
 117851953.174 7  91832776.46445  22426482.422                    22426490.480
 116914351.112 7  91102235.22445  22248040.352                    22248046.246
 116992846.481 7  91163320.74145  22262995.320                    22263003.441
 115138540.688 8  89718399.694 7  21910133.125                    21910143.406
 118791215.642 7  92564652.997 7  22605215.766                    22605223.184
 110426342.474 8  86046595.643 7  21013409.289                    21013416.793
 11  8 14  3 19  0.0000000  0  9G21G15G29G26G02G30G25G12G05
 130300870.695 6 101533199.63144  24795431.078                    24795439.613
 122114394.326 7  95154129.271 6  23237597.016                    23237605.391
 112569135.620 8  87716258.531 7  21421187.414                    21421195.551
 117771854.576 7  91770361.99045  22411240.023                    22411248.301
 116960366.603 7  91138091.44745  22256796.570                    22256802.410
 117057117.636 7  91213402.16045  22275225.086                    22275233.492
 115180630.220 8  89751196.737 7  21918142.359                    21918152.547
 118878835.947 7  92632928.558 7  22621889.047                    22621896.965
 110485903.565 8  86093006.893 7  21024743.305                    21024750.652
 11  8 14  3 19 30.0000000  0  9G21G15G29G26G02G30G25G12G05
 130243928.448 6 101488829.16544  24784594.984                    24784603.645
 122018858.452 7  95079685.801 6  23219416.344                    23219425.172
 112500549.000 8  87662814.441 7  21408135.914                    21408143.871
 117692094.586 7  91708211.38245  22396062.156                    22396071.047
 117006476.027 7  91174020.87445  22265570.273                    22265576.785
 117121754.535 7  91263768.58445  22287525.250                    22287533.879
 115223188.591 8  89784359.110 7  21926240.617                    21926251.484
 118966661.848 7  92701364.331 7  22638601.547                    22638609.777
 110545822.877 8  86139697.258 7  21036145.711                    21036152.949
 11  8 14  3 20  0.0000000  0  9G21G15G29G26G02G30G25G12G05
 130186978.922 6 101444453.02543  24773757.320                    24773766.445
 121923408.279 7  95005309.110 6  23201253.555                    23201261.609
 112432211.656 8  87609564.585 7  21395131.914                    21395140.098
 117612677.346 7  91646327.86544  22380949.867                    22380958.207
 117052679.979 7  91210023.96145  22274362.773                    22274369.098
 117186754.623 7  91314418.00545  22299894.359                    22299903.133
 115266213.914 8  89817885.334 7  21934428.008                    21934438.922
 119054690.602 7  92769958.169 7  22655353.055                    22655360.891
 110606098.365 8  86186665.178 7  21047615.297                    21047622.922
 11  8 14  3 20 30.0000000  0  9G21G15G29G26G02G30G25G12G05
 130130021.447 6 101400070.67743  24762918.633                    24762927.902
 121828046.213 7  94931001.085 6  23183106.719                    23183115.180
 112364125.062 8  87556510.127 7  21382175.219                    21382183.500
 117533605.590 7  91584713.52945  22365902.781                    22365911.105
 117098978.232 7  91246100.51845  22283172.500                    22283178.863
 117252114.089 7  91365347.46945  22312332.188                    22312340.582
 115309703.169 8  89851773.068 7  21942704.016                    21942714.340
 119142918.289 7  92838707.008 7  22672142.664                    22672150.336
 110666726.613 8  86233907.976 7  21059152.828                    21059159.926
 11  8 14  3 21  0.0000000  0  9G21G15G29G26G02G30G25G12G05
 130073055.742 6 101355682.00543  24752078.211                    24752087.555
 121732776.419 7  94856764.960 6  23164976.859                    23164985.570
 112296292.723 8  87503653.792 7  21369267.023                    21369275.508
 117454883.656 7  91523371.80945  22350922.305                    22350931.270
 117145371.586 7  91282251.18045  22292001.320                    22292007.203
 117317830.955 7  91416555.43145  22324837.578                    22324845.820
 115353655.057 8  89886021.295 7  21951067.945                    21951078.242
 119231342.908 7  92907609.305 7  22688968.766                    22688976.977
 110727706.316 8  86281424.633 7  21070756.508                    21070764.125
 11  8 14  3 21 30.0000000  0  9G21G15G29G26G02G30G25G12G05
 130016081.137 6 101311286.25143  24741236.203                    24741245.352
 121637600.909 7  94782602.294 6  23146865.742                    23146874.711
 112228716.235 8  87450996.817 7  21356407.773                    21356416.047
 117376514.847 7  91462305.23745  22336008.984                    22336017.750
 117191859.936 7  91318475.85045  22300847.828                    22300853.531
 117383901.379 7  91468038.88445  22337410.242                    22337419.141
 115398066.588 7  89920627.688 7  21959518.773                    21959529.324
 119319960.605 7  92976662.037 7  22705832.078                    22705840.578
 110789034.249 8  86329212.636 7  21082427.203                    21082434.180
 11  8 14  3 22  0.0000000  0  9G21G15G29G26G02G30G25G12G05
 129959097.148 6 101266883.28343  24730392.375                    24730401.527
 121542523.203 7  94708515.833 6  23128773.391                    23128781.238
 112161398.382 8  87398541.377 7  21343597.789                    21343606.121
 117298502.965 7  91401516.78545  22321164.109                    22321172.285
 117238443.831 7  91354774.97545  22309712.289                    22309718.145
 117450322.726 7  91519795.78745  22350049.805                    22350058.379
 115442935.748 8  89955590.680 7  21968057.125                    21968067.590
 119408768.598 7  93045863.070 7  22722731.750                    22722739.695
 110850708.296 8  86377270.339 7  21094162.938                    21094170.313
